<?xml version="1.0" encoding="UTF-8" standalone="no" ?>
<gpx xmlns="http://www.topografix.com/GPX/1/1" xmlns:xsi="http://www.w3.org/2001/XMLSchema-instance" xsi:schemaLocation="http://www.topografix.com/GPX/1/1 http://www.topografix.com/GPX/1/1/gpx.xsd" version="1.1" creator="VisuGPX - https://www.visugpx.com">
  <metadata>
    <name>Les Vans - Thines - La Blacherette</name>
    <desc><![CDATA[Boucle avec un max de petites routes goudronnées pour se remettre des portages des jours précédents sur les singles.]]></desc>
  </metadata>
  <trk>
    <name><![CDATA[(sans titre)]]></name>
    <trkseg>
      <trkpt lat="44.40652" lon="4.12946">
        <ele>204.1</ele>
        <time>2014-05-31T06:59:58Z</time>
      </trkpt>
      <trkpt lat="44.40659" lon="4.12956">
        <ele>202.1</ele>
        <time>2014-05-31T07:02:47Z</time>
      </trkpt>
      <trkpt lat="44.40686" lon="4.12979">
        <ele>199.7</ele>
        <time>2014-05-31T07:03:05Z</time>
      </trkpt>
      <trkpt lat="44.40709" lon="4.12995">
        <ele>199.9</ele>
        <time>2014-05-31T07:03:21Z</time>
      </trkpt>
      <trkpt lat="44.40712" lon="4.13027">
        <ele>197.8</ele>
        <time>2014-05-31T07:03:30Z</time>
      </trkpt>
      <trkpt lat="44.40695" lon="4.13055">
        <ele>197</ele>
        <time>2014-05-31T07:03:37Z</time>
      </trkpt>
      <trkpt lat="44.40671" lon="4.13078">
        <ele>193.3</ele>
        <time>2014-05-31T07:03:45Z</time>
      </trkpt>
      <trkpt lat="44.40642" lon="4.13098">
        <ele>187.6</ele>
        <time>2014-05-31T07:03:54Z</time>
      </trkpt>
      <trkpt lat="44.40613" lon="4.13119">
        <ele>186.3</ele>
        <time>2014-05-31T07:04:03Z</time>
      </trkpt>
      <trkpt lat="44.40597" lon="4.13145">
        <ele>184.9</ele>
        <time>2014-05-31T07:04:11Z</time>
      </trkpt>
      <trkpt lat="44.40594" lon="4.13159">
        <ele>183.5</ele>
        <time>2014-05-31T07:04:56Z</time>
      </trkpt>
      <trkpt lat="44.40594" lon="4.13181">
        <ele>179.3</ele>
        <time>2014-05-31T07:07:19Z</time>
      </trkpt>
      <trkpt lat="44.40604" lon="4.132">
        <ele>181.8</ele>
        <time>2014-05-31T07:09:48Z</time>
      </trkpt>
      <trkpt lat="44.40608" lon="4.13201">
        <ele>176.5</ele>
        <time>2014-05-31T07:10:17Z</time>
      </trkpt>
      <trkpt lat="44.40602" lon="4.13181">
        <ele>176</ele>
        <time>2014-05-31T07:10:45Z</time>
      </trkpt>
      <trkpt lat="44.4059" lon="4.13153">
        <ele>175.3</ele>
        <time>2014-05-31T07:10:59Z</time>
      </trkpt>
      <trkpt lat="44.40576" lon="4.13126">
        <ele>174.3</ele>
        <time>2014-05-31T07:11:12Z</time>
      </trkpt>
      <trkpt lat="44.40564" lon="4.13098">
        <ele>174</ele>
        <time>2014-05-31T07:11:24Z</time>
      </trkpt>
      <trkpt lat="44.40555" lon="4.13068">
        <ele>174.6</ele>
        <time>2014-05-31T07:11:36Z</time>
      </trkpt>
      <trkpt lat="44.40548" lon="4.13038">
        <ele>174.2</ele>
        <time>2014-05-31T07:11:48Z</time>
      </trkpt>
      <trkpt lat="44.40541" lon="4.13009">
        <ele>173.5</ele>
        <time>2014-05-31T07:11:59Z</time>
      </trkpt>
      <trkpt lat="44.40531" lon="4.1298">
        <ele>173.9</ele>
        <time>2014-05-31T07:12:10Z</time>
      </trkpt>
      <trkpt lat="44.40536" lon="4.12951">
        <ele>176.1</ele>
        <time>2014-05-31T07:12:21Z</time>
      </trkpt>
      <trkpt lat="44.40542" lon="4.12921">
        <ele>179</ele>
        <time>2014-05-31T07:12:31Z</time>
      </trkpt>
      <trkpt lat="44.4055" lon="4.12892">
        <ele>179.3</ele>
        <time>2014-05-31T07:12:43Z</time>
      </trkpt>
      <trkpt lat="44.4055" lon="4.12863">
        <ele>177.9</ele>
        <time>2014-05-31T07:12:54Z</time>
      </trkpt>
      <trkpt lat="44.40555" lon="4.12831">
        <ele>177.6</ele>
        <time>2014-05-31T07:13:03Z</time>
      </trkpt>
      <trkpt lat="44.40561" lon="4.12801">
        <ele>178.1</ele>
        <time>2014-05-31T07:13:11Z</time>
      </trkpt>
      <trkpt lat="44.40564" lon="4.12771">
        <ele>179.2</ele>
        <time>2014-05-31T07:13:20Z</time>
      </trkpt>
      <trkpt lat="44.40567" lon="4.12741">
        <ele>180.1</ele>
        <time>2014-05-31T07:13:28Z</time>
      </trkpt>
      <trkpt lat="44.40569" lon="4.12707">
        <ele>180.9</ele>
        <time>2014-05-31T07:13:37Z</time>
      </trkpt>
      <trkpt lat="44.40568" lon="4.12676">
        <ele>181.1</ele>
        <time>2014-05-31T07:13:46Z</time>
      </trkpt>
      <trkpt lat="44.40563" lon="4.12644">
        <ele>186.4</ele>
        <time>2014-05-31T07:13:54Z</time>
      </trkpt>
      <trkpt lat="44.40558" lon="4.12614">
        <ele>191.4</ele>
        <time>2014-05-31T07:14:03Z</time>
      </trkpt>
      <trkpt lat="44.40551" lon="4.12581">
        <ele>196.4</ele>
        <time>2014-05-31T07:14:12Z</time>
      </trkpt>
      <trkpt lat="44.40547" lon="4.12552">
        <ele>199.2</ele>
        <time>2014-05-31T07:14:21Z</time>
      </trkpt>
      <trkpt lat="44.4054" lon="4.1252">
        <ele>201.4</ele>
        <time>2014-05-31T07:14:31Z</time>
      </trkpt>
      <trkpt lat="44.40535" lon="4.12486">
        <ele>202.9</ele>
        <time>2014-05-31T07:14:41Z</time>
      </trkpt>
      <trkpt lat="44.40536" lon="4.12454">
        <ele>201</ele>
        <time>2014-05-31T07:14:50Z</time>
      </trkpt>
      <trkpt lat="44.40542" lon="4.12421">
        <ele>200.3</ele>
        <time>2014-05-31T07:15:00Z</time>
      </trkpt>
      <trkpt lat="44.40549" lon="4.12387">
        <ele>199.4</ele>
        <time>2014-05-31T07:15:10Z</time>
      </trkpt>
      <trkpt lat="44.40555" lon="4.12355">
        <ele>198.8</ele>
        <time>2014-05-31T07:15:19Z</time>
      </trkpt>
      <trkpt lat="44.40559" lon="4.12325">
        <ele>199.2</ele>
        <time>2014-05-31T07:15:29Z</time>
      </trkpt>
      <trkpt lat="44.40564" lon="4.12293">
        <ele>197.9</ele>
        <time>2014-05-31T07:15:39Z</time>
      </trkpt>
      <trkpt lat="44.4058" lon="4.12269">
        <ele>197</ele>
        <time>2014-05-31T07:15:53Z</time>
      </trkpt>
      <trkpt lat="44.40598" lon="4.12244">
        <ele>197.3</ele>
        <time>2014-05-31T07:16:09Z</time>
      </trkpt>
      <trkpt lat="44.40615" lon="4.12219">
        <ele>200.5</ele>
        <time>2014-05-31T07:16:28Z</time>
      </trkpt>
      <trkpt lat="44.40629" lon="4.12192">
        <ele>203</ele>
        <time>2014-05-31T07:16:46Z</time>
      </trkpt>
      <trkpt lat="44.40643" lon="4.12165">
        <ele>206.3</ele>
        <time>2014-05-31T07:17:04Z</time>
      </trkpt>
      <trkpt lat="44.40653" lon="4.12135">
        <ele>213</ele>
        <time>2014-05-31T07:17:20Z</time>
      </trkpt>
      <trkpt lat="44.40662" lon="4.12105">
        <ele>215.3</ele>
        <time>2014-05-31T07:17:36Z</time>
      </trkpt>
      <trkpt lat="44.40671" lon="4.12076">
        <ele>215.9</ele>
        <time>2014-05-31T07:17:53Z</time>
      </trkpt>
      <trkpt lat="44.40676" lon="4.12046">
        <ele>217</ele>
        <time>2014-05-31T07:18:08Z</time>
      </trkpt>
      <trkpt lat="44.4068" lon="4.12014">
        <ele>219.9</ele>
        <time>2014-05-31T07:18:21Z</time>
      </trkpt>
      <trkpt lat="44.40682" lon="4.11983">
        <ele>223.1</ele>
        <time>2014-05-31T07:18:33Z</time>
      </trkpt>
      <trkpt lat="44.40687" lon="4.11952">
        <ele>225</ele>
        <time>2014-05-31T07:18:44Z</time>
      </trkpt>
      <trkpt lat="44.40695" lon="4.11921">
        <ele>227.4</ele>
        <time>2014-05-31T07:18:56Z</time>
      </trkpt>
      <trkpt lat="44.40706" lon="4.11892">
        <ele>229.8</ele>
        <time>2014-05-31T07:19:06Z</time>
      </trkpt>
      <trkpt lat="44.40717" lon="4.11864">
        <ele>231.8</ele>
        <time>2014-05-31T07:19:17Z</time>
      </trkpt>
      <trkpt lat="44.4073" lon="4.11837">
        <ele>233</ele>
        <time>2014-05-31T07:19:27Z</time>
      </trkpt>
      <trkpt lat="44.40745" lon="4.11809">
        <ele>234.4</ele>
        <time>2014-05-31T07:19:37Z</time>
      </trkpt>
      <trkpt lat="44.40759" lon="4.1178">
        <ele>235.8</ele>
        <time>2014-05-31T07:19:46Z</time>
      </trkpt>
      <trkpt lat="44.40771" lon="4.11751">
        <ele>237</ele>
        <time>2014-05-31T07:19:54Z</time>
      </trkpt>
      <trkpt lat="44.40784" lon="4.11722">
        <ele>237.8</ele>
        <time>2014-05-31T07:20:03Z</time>
      </trkpt>
      <trkpt lat="44.40797" lon="4.11696">
        <ele>238</ele>
        <time>2014-05-31T07:20:11Z</time>
      </trkpt>
      <trkpt lat="44.40813" lon="4.11668">
        <ele>238.7</ele>
        <time>2014-05-31T07:20:20Z</time>
      </trkpt>
      <trkpt lat="44.40819" lon="4.11636">
        <ele>240.3</ele>
        <time>2014-05-31T07:20:29Z</time>
      </trkpt>
      <trkpt lat="44.4082" lon="4.11602">
        <ele>241.3</ele>
        <time>2014-05-31T07:20:37Z</time>
      </trkpt>
      <trkpt lat="44.40826" lon="4.11572">
        <ele>243.4</ele>
        <time>2014-05-31T07:20:45Z</time>
      </trkpt>
      <trkpt lat="44.40836" lon="4.11542">
        <ele>243.7</ele>
        <time>2014-05-31T07:20:53Z</time>
      </trkpt>
      <trkpt lat="44.40843" lon="4.11511">
        <ele>244.3</ele>
        <time>2014-05-31T07:21:01Z</time>
      </trkpt>
      <trkpt lat="44.40841" lon="4.11478">
        <ele>244.5</ele>
        <time>2014-05-31T07:21:09Z</time>
      </trkpt>
      <trkpt lat="44.40845" lon="4.11447">
        <ele>244.3</ele>
        <time>2014-05-31T07:21:16Z</time>
      </trkpt>
      <trkpt lat="44.40854" lon="4.11415">
        <ele>244</ele>
        <time>2014-05-31T07:21:20Z</time>
      </trkpt>
      <trkpt lat="44.40862" lon="4.11385">
        <ele>243.5</ele>
        <time>2014-05-31T07:21:25Z</time>
      </trkpt>
      <trkpt lat="44.4087" lon="4.11355">
        <ele>243.5</ele>
        <time>2014-05-31T07:21:29Z</time>
      </trkpt>
      <trkpt lat="44.40877" lon="4.11323">
        <ele>243.5</ele>
        <time>2014-05-31T07:21:32Z</time>
      </trkpt>
      <trkpt lat="44.40883" lon="4.11292">
        <ele>243</ele>
        <time>2014-05-31T07:21:37Z</time>
      </trkpt>
      <trkpt lat="44.40889" lon="4.11262">
        <ele>243</ele>
        <time>2014-05-31T07:21:41Z</time>
      </trkpt>
      <trkpt lat="44.40898" lon="4.11227">
        <ele>243</ele>
        <time>2014-05-31T07:21:47Z</time>
      </trkpt>
      <trkpt lat="44.40908" lon="4.11198">
        <ele>243</ele>
        <time>2014-05-31T07:21:53Z</time>
      </trkpt>
      <trkpt lat="44.40919" lon="4.11164">
        <ele>243.8</ele>
        <time>2014-05-31T07:22:01Z</time>
      </trkpt>
      <trkpt lat="44.40927" lon="4.1113">
        <ele>244.1</ele>
        <time>2014-05-31T07:22:09Z</time>
      </trkpt>
      <trkpt lat="44.40936" lon="4.11101">
        <ele>244.6</ele>
        <time>2014-05-31T07:22:20Z</time>
      </trkpt>
      <trkpt lat="44.40944" lon="4.11078">
        <ele>244.6</ele>
        <time>2014-05-31T07:22:44Z</time>
      </trkpt>
      <trkpt lat="44.40923" lon="4.11091">
        <ele>240.6</ele>
        <time>2014-05-31T07:23:08Z</time>
      </trkpt>
      <trkpt lat="44.4091" lon="4.11061">
        <ele>240.3</ele>
        <time>2014-05-31T07:23:18Z</time>
      </trkpt>
      <trkpt lat="44.40914" lon="4.11032">
        <ele>241.7</ele>
        <time>2014-05-31T07:23:27Z</time>
      </trkpt>
      <trkpt lat="44.40923" lon="4.11">
        <ele>241.2</ele>
        <time>2014-05-31T07:23:35Z</time>
      </trkpt>
      <trkpt lat="44.40923" lon="4.10968">
        <ele>241.3</ele>
        <time>2014-05-31T07:23:42Z</time>
      </trkpt>
      <trkpt lat="44.40922" lon="4.10929">
        <ele>241.5</ele>
        <time>2014-05-31T07:23:48Z</time>
      </trkpt>
      <trkpt lat="44.4092" lon="4.10897">
        <ele>241.5</ele>
        <time>2014-05-31T07:23:52Z</time>
      </trkpt>
      <trkpt lat="44.40919" lon="4.10862">
        <ele>240.8</ele>
        <time>2014-05-31T07:23:57Z</time>
      </trkpt>
      <trkpt lat="44.40922" lon="4.10829">
        <ele>240.5</ele>
        <time>2014-05-31T07:24:00Z</time>
      </trkpt>
      <trkpt lat="44.4093" lon="4.10798">
        <ele>240.5</ele>
        <time>2014-05-31T07:24:05Z</time>
      </trkpt>
      <trkpt lat="44.40939" lon="4.1077">
        <ele>241</ele>
        <time>2014-05-31T07:24:09Z</time>
      </trkpt>
      <trkpt lat="44.40943" lon="4.10741">
        <ele>240.5</ele>
        <time>2014-05-31T07:24:12Z</time>
      </trkpt>
      <trkpt lat="44.40943" lon="4.10711">
        <ele>240.5</ele>
        <time>2014-05-31T07:24:17Z</time>
      </trkpt>
      <trkpt lat="44.40942" lon="4.10676">
        <ele>240.3</ele>
        <time>2014-05-31T07:24:21Z</time>
      </trkpt>
      <trkpt lat="44.40949" lon="4.10642">
        <ele>240.3</ele>
        <time>2014-05-31T07:24:24Z</time>
      </trkpt>
      <trkpt lat="44.40968" lon="4.10613">
        <ele>240.1</ele>
        <time>2014-05-31T07:24:30Z</time>
      </trkpt>
      <trkpt lat="44.40992" lon="4.10585">
        <ele>240</ele>
        <time>2014-05-31T07:24:35Z</time>
      </trkpt>
      <trkpt lat="44.41004" lon="4.10555">
        <ele>239.5</ele>
        <time>2014-05-31T07:24:40Z</time>
      </trkpt>
      <trkpt lat="44.41011" lon="4.10522">
        <ele>239</ele>
        <time>2014-05-31T07:24:44Z</time>
      </trkpt>
      <trkpt lat="44.41015" lon="4.1049">
        <ele>239</ele>
        <time>2014-05-31T07:24:48Z</time>
      </trkpt>
      <trkpt lat="44.41019" lon="4.10459">
        <ele>238.5</ele>
        <time>2014-05-31T07:24:51Z</time>
      </trkpt>
      <trkpt lat="44.41023" lon="4.10426">
        <ele>238</ele>
        <time>2014-05-31T07:24:56Z</time>
      </trkpt>
      <trkpt lat="44.41028" lon="4.10393">
        <ele>238.3</ele>
        <time>2014-05-31T07:25:00Z</time>
      </trkpt>
      <trkpt lat="44.41032" lon="4.10361">
        <ele>237.5</ele>
        <time>2014-05-31T07:25:03Z</time>
      </trkpt>
      <trkpt lat="44.41036" lon="4.10329">
        <ele>237.3</ele>
        <time>2014-05-31T07:25:08Z</time>
      </trkpt>
      <trkpt lat="44.41041" lon="4.10295">
        <ele>237.3</ele>
        <time>2014-05-31T07:25:12Z</time>
      </trkpt>
      <trkpt lat="44.41045" lon="4.10265">
        <ele>237.5</ele>
        <time>2014-05-31T07:25:15Z</time>
      </trkpt>
      <trkpt lat="44.41049" lon="4.10236">
        <ele>237</ele>
        <time>2014-05-31T07:25:20Z</time>
      </trkpt>
      <trkpt lat="44.41054" lon="4.10206">
        <ele>237</ele>
        <time>2014-05-31T07:25:23Z</time>
      </trkpt>
      <trkpt lat="44.41068" lon="4.10173">
        <ele>236.5</ele>
        <time>2014-05-31T07:25:28Z</time>
      </trkpt>
      <trkpt lat="44.41092" lon="4.10143">
        <ele>235.3</ele>
        <time>2014-05-31T07:25:34Z</time>
      </trkpt>
      <trkpt lat="44.41119" lon="4.10111">
        <ele>234.4</ele>
        <time>2014-05-31T07:25:41Z</time>
      </trkpt>
      <trkpt lat="44.41146" lon="4.10081">
        <ele>233.4</ele>
        <time>2014-05-31T07:25:47Z</time>
      </trkpt>
      <trkpt lat="44.41169" lon="4.1005">
        <ele>232.6</ele>
        <time>2014-05-31T07:25:53Z</time>
      </trkpt>
      <trkpt lat="44.41189" lon="4.10019">
        <ele>231.3</ele>
        <time>2014-05-31T07:25:59Z</time>
      </trkpt>
      <trkpt lat="44.41213" lon="4.09987">
        <ele>230</ele>
        <time>2014-05-31T07:26:04Z</time>
      </trkpt>
      <trkpt lat="44.41235" lon="4.09958">
        <ele>228.5</ele>
        <time>2014-05-31T07:26:09Z</time>
      </trkpt>
      <trkpt lat="44.41252" lon="4.09931">
        <ele>228</ele>
        <time>2014-05-31T07:26:13Z</time>
      </trkpt>
      <trkpt lat="44.41265" lon="4.09901">
        <ele>227.8</ele>
        <time>2014-05-31T07:26:18Z</time>
      </trkpt>
      <trkpt lat="44.41277" lon="4.09872">
        <ele>227.8</ele>
        <time>2014-05-31T07:26:22Z</time>
      </trkpt>
      <trkpt lat="44.41287" lon="4.09843">
        <ele>227.8</ele>
        <time>2014-05-31T07:26:25Z</time>
      </trkpt>
      <trkpt lat="44.41297" lon="4.09815">
        <ele>227.3</ele>
        <time>2014-05-31T07:26:30Z</time>
      </trkpt>
      <trkpt lat="44.41306" lon="4.09786">
        <ele>226.3</ele>
        <time>2014-05-31T07:26:34Z</time>
      </trkpt>
      <trkpt lat="44.41312" lon="4.09751">
        <ele>225.5</ele>
        <time>2014-05-31T07:26:38Z</time>
      </trkpt>
      <trkpt lat="44.41317" lon="4.09716">
        <ele>225</ele>
        <time>2014-05-31T07:26:44Z</time>
      </trkpt>
      <trkpt lat="44.41322" lon="4.09682">
        <ele>225</ele>
        <time>2014-05-31T07:26:50Z</time>
      </trkpt>
      <trkpt lat="44.41313" lon="4.09653">
        <ele>224.5</ele>
        <time>2014-05-31T07:26:55Z</time>
      </trkpt>
      <trkpt lat="44.41286" lon="4.09628">
        <ele>224.8</ele>
        <time>2014-05-31T07:26:59Z</time>
      </trkpt>
      <trkpt lat="44.4127" lon="4.09597">
        <ele>224.5</ele>
        <time>2014-05-31T07:27:04Z</time>
      </trkpt>
      <trkpt lat="44.41272" lon="4.09564">
        <ele>224.5</ele>
        <time>2014-05-31T07:27:08Z</time>
      </trkpt>
      <trkpt lat="44.41289" lon="4.09536">
        <ele>224.1</ele>
        <time>2014-05-31T07:27:13Z</time>
      </trkpt>
      <trkpt lat="44.41317" lon="4.0951">
        <ele>222.3</ele>
        <time>2014-05-31T07:27:19Z</time>
      </trkpt>
      <trkpt lat="44.41344" lon="4.09485">
        <ele>220.1</ele>
        <time>2014-05-31T07:27:25Z</time>
      </trkpt>
      <trkpt lat="44.41367" lon="4.09462">
        <ele>219.6</ele>
        <time>2014-05-31T07:27:31Z</time>
      </trkpt>
      <trkpt lat="44.41392" lon="4.09438">
        <ele>218.6</ele>
        <time>2014-05-31T07:27:37Z</time>
      </trkpt>
      <trkpt lat="44.4142" lon="4.09412">
        <ele>218.1</ele>
        <time>2014-05-31T07:27:42Z</time>
      </trkpt>
      <trkpt lat="44.4145" lon="4.09386">
        <ele>217.4</ele>
        <time>2014-05-31T07:27:48Z</time>
      </trkpt>
      <trkpt lat="44.41473" lon="4.09364">
        <ele>216.3</ele>
        <time>2014-05-31T07:27:53Z</time>
      </trkpt>
      <trkpt lat="44.41495" lon="4.09343">
        <ele>216.5</ele>
        <time>2014-05-31T07:27:57Z</time>
      </trkpt>
      <trkpt lat="44.41519" lon="4.0932">
        <ele>215.6</ele>
        <time>2014-05-31T07:28:01Z</time>
      </trkpt>
      <trkpt lat="44.41544" lon="4.09296">
        <ele>215</ele>
        <time>2014-05-31T07:28:08Z</time>
      </trkpt>
      <trkpt lat="44.41567" lon="4.09273">
        <ele>214.5</ele>
        <time>2014-05-31T07:28:14Z</time>
      </trkpt>
      <trkpt lat="44.41594" lon="4.09247">
        <ele>214</ele>
        <time>2014-05-31T07:28:20Z</time>
      </trkpt>
      <trkpt lat="44.4162" lon="4.09223">
        <ele>213.8</ele>
        <time>2014-05-31T07:28:26Z</time>
      </trkpt>
      <trkpt lat="44.41648" lon="4.09199">
        <ele>213.5</ele>
        <time>2014-05-31T07:28:33Z</time>
      </trkpt>
      <trkpt lat="44.41676" lon="4.09172">
        <ele>212.6</ele>
        <time>2014-05-31T07:28:39Z</time>
      </trkpt>
      <trkpt lat="44.41705" lon="4.09144">
        <ele>212.5</ele>
        <time>2014-05-31T07:28:45Z</time>
      </trkpt>
      <trkpt lat="44.41734" lon="4.09116">
        <ele>211.5</ele>
        <time>2014-05-31T07:28:51Z</time>
      </trkpt>
      <trkpt lat="44.41764" lon="4.09089">
        <ele>210.5</ele>
        <time>2014-05-31T07:28:57Z</time>
      </trkpt>
      <trkpt lat="44.41794" lon="4.09068">
        <ele>209.8</ele>
        <time>2014-05-31T07:29:03Z</time>
      </trkpt>
      <trkpt lat="44.41824" lon="4.09079">
        <ele>209.3</ele>
        <time>2014-05-31T07:29:09Z</time>
      </trkpt>
      <trkpt lat="44.41847" lon="4.09103">
        <ele>208.3</ele>
        <time>2014-05-31T07:29:15Z</time>
      </trkpt>
      <trkpt lat="44.41871" lon="4.09125">
        <ele>207.3</ele>
        <time>2014-05-31T07:29:21Z</time>
      </trkpt>
      <trkpt lat="44.41895" lon="4.09147">
        <ele>206.1</ele>
        <time>2014-05-31T07:29:27Z</time>
      </trkpt>
      <trkpt lat="44.41918" lon="4.0917">
        <ele>204.8</ele>
        <time>2014-05-31T07:29:33Z</time>
      </trkpt>
      <trkpt lat="44.41941" lon="4.09193">
        <ele>204.9</ele>
        <time>2014-05-31T07:29:39Z</time>
      </trkpt>
      <trkpt lat="44.41963" lon="4.09217">
        <ele>205</ele>
        <time>2014-05-31T07:29:46Z</time>
      </trkpt>
      <trkpt lat="44.4198" lon="4.09245">
        <ele>204.6</ele>
        <time>2014-05-31T07:29:52Z</time>
      </trkpt>
      <trkpt lat="44.41995" lon="4.09274">
        <ele>204</ele>
        <time>2014-05-31T07:29:58Z</time>
      </trkpt>
      <trkpt lat="44.42011" lon="4.09305">
        <ele>204</ele>
        <time>2014-05-31T07:30:04Z</time>
      </trkpt>
      <trkpt lat="44.42027" lon="4.09335">
        <ele>203.6</ele>
        <time>2014-05-31T07:30:10Z</time>
      </trkpt>
      <trkpt lat="44.42043" lon="4.09366">
        <ele>203.5</ele>
        <time>2014-05-31T07:30:15Z</time>
      </trkpt>
      <trkpt lat="44.4206" lon="4.09398">
        <ele>203.3</ele>
        <time>2014-05-31T07:30:21Z</time>
      </trkpt>
      <trkpt lat="44.42075" lon="4.09427">
        <ele>202.4</ele>
        <time>2014-05-31T07:30:27Z</time>
      </trkpt>
      <trkpt lat="44.42092" lon="4.09458">
        <ele>201.9</ele>
        <time>2014-05-31T07:30:34Z</time>
      </trkpt>
      <trkpt lat="44.42108" lon="4.09491">
        <ele>201.8</ele>
        <time>2014-05-31T07:30:40Z</time>
      </trkpt>
      <trkpt lat="44.42124" lon="4.09524">
        <ele>201.5</ele>
        <time>2014-05-31T07:30:46Z</time>
      </trkpt>
      <trkpt lat="44.42141" lon="4.09552">
        <ele>201.6</ele>
        <time>2014-05-31T07:30:52Z</time>
      </trkpt>
      <trkpt lat="44.4216" lon="4.09576">
        <ele>201.5</ele>
        <time>2014-05-31T07:30:58Z</time>
      </trkpt>
      <trkpt lat="44.42187" lon="4.09594">
        <ele>202.7</ele>
        <time>2014-05-31T07:31:06Z</time>
      </trkpt>
      <trkpt lat="44.42218" lon="4.09605">
        <ele>202.5</ele>
        <time>2014-05-31T07:31:14Z</time>
      </trkpt>
      <trkpt lat="44.42253" lon="4.09605">
        <ele>201.1</ele>
        <time>2014-05-31T07:31:23Z</time>
      </trkpt>
      <trkpt lat="44.42278" lon="4.09583">
        <ele>200.8</ele>
        <time>2014-05-31T07:31:30Z</time>
      </trkpt>
      <trkpt lat="44.42297" lon="4.09553">
        <ele>201</ele>
        <time>2014-05-31T07:31:36Z</time>
      </trkpt>
      <trkpt lat="44.42315" lon="4.09519">
        <ele>201.5</ele>
        <time>2014-05-31T07:31:42Z</time>
      </trkpt>
      <trkpt lat="44.42333" lon="4.09484">
        <ele>201.5</ele>
        <time>2014-05-31T07:31:48Z</time>
      </trkpt>
      <trkpt lat="44.42352" lon="4.0945">
        <ele>201.5</ele>
        <time>2014-05-31T07:31:54Z</time>
      </trkpt>
      <trkpt lat="44.42365" lon="4.09417">
        <ele>200.8</ele>
        <time>2014-05-31T07:31:59Z</time>
      </trkpt>
      <trkpt lat="44.42373" lon="4.09386">
        <ele>200.8</ele>
        <time>2014-05-31T07:32:03Z</time>
      </trkpt>
      <trkpt lat="44.42381" lon="4.09352">
        <ele>200.5</ele>
        <time>2014-05-31T07:32:07Z</time>
      </trkpt>
      <trkpt lat="44.42387" lon="4.09317">
        <ele>201</ele>
        <time>2014-05-31T07:32:10Z</time>
      </trkpt>
      <trkpt lat="44.42391" lon="4.09279">
        <ele>200.5</ele>
        <time>2014-05-31T07:32:15Z</time>
      </trkpt>
      <trkpt lat="44.42399" lon="4.09241">
        <ele>200</ele>
        <time>2014-05-31T07:32:19Z</time>
      </trkpt>
      <trkpt lat="44.4241" lon="4.09205">
        <ele>199.5</ele>
        <time>2014-05-31T07:32:22Z</time>
      </trkpt>
      <trkpt lat="44.42421" lon="4.09172">
        <ele>199.3</ele>
        <time>2014-05-31T07:32:27Z</time>
      </trkpt>
      <trkpt lat="44.42438" lon="4.09137">
        <ele>198</ele>
        <time>2014-05-31T07:32:31Z</time>
      </trkpt>
      <trkpt lat="44.42461" lon="4.09111">
        <ele>197.3</ele>
        <time>2014-05-31T07:32:35Z</time>
      </trkpt>
      <trkpt lat="44.42486" lon="4.09092">
        <ele>196.5</ele>
        <time>2014-05-31T07:32:39Z</time>
      </trkpt>
      <trkpt lat="44.42515" lon="4.09085">
        <ele>196</ele>
        <time>2014-05-31T07:32:42Z</time>
      </trkpt>
      <trkpt lat="44.42544" lon="4.09077">
        <ele>196</ele>
        <time>2014-05-31T07:32:47Z</time>
      </trkpt>
      <trkpt lat="44.42569" lon="4.0906">
        <ele>196</ele>
        <time>2014-05-31T07:32:51Z</time>
      </trkpt>
      <trkpt lat="44.42594" lon="4.09041">
        <ele>195.2</ele>
        <time>2014-05-31T07:32:57Z</time>
      </trkpt>
      <trkpt lat="44.42603" lon="4.09028">
        <ele>195.6</ele>
        <time>2014-05-31T07:33:27Z</time>
      </trkpt>
      <trkpt lat="44.42647" lon="4.09027">
        <ele>195.3</ele>
        <time>2014-05-31T07:34:04Z</time>
      </trkpt>
      <trkpt lat="44.42661" lon="4.09034">
        <ele>193.5</ele>
        <time>2014-05-31T07:34:38Z</time>
      </trkpt>
      <trkpt lat="44.42697" lon="4.0904">
        <ele>190.9</ele>
        <time>2014-05-31T07:35:05Z</time>
      </trkpt>
      <trkpt lat="44.42712" lon="4.09011">
        <ele>189.5</ele>
        <time>2014-05-31T07:35:14Z</time>
      </trkpt>
      <trkpt lat="44.42717" lon="4.08985">
        <ele>188.6</ele>
        <time>2014-05-31T07:35:22Z</time>
      </trkpt>
      <trkpt lat="44.42727" lon="4.08963">
        <ele>188.5</ele>
        <time>2014-05-31T07:36:21Z</time>
      </trkpt>
      <trkpt lat="44.42747" lon="4.08921">
        <ele>189.2</ele>
        <time>2014-05-31T07:36:28Z</time>
      </trkpt>
      <trkpt lat="44.42761" lon="4.08891">
        <ele>190</ele>
        <time>2014-05-31T07:36:34Z</time>
      </trkpt>
      <trkpt lat="44.4277" lon="4.0886">
        <ele>190.5</ele>
        <time>2014-05-31T07:36:41Z</time>
      </trkpt>
      <trkpt lat="44.42779" lon="4.08825">
        <ele>191.3</ele>
        <time>2014-05-31T07:36:48Z</time>
      </trkpt>
      <trkpt lat="44.42781" lon="4.08792">
        <ele>191.7</ele>
        <time>2014-05-31T07:36:55Z</time>
      </trkpt>
      <trkpt lat="44.42786" lon="4.08759">
        <ele>192.3</ele>
        <time>2014-05-31T07:37:02Z</time>
      </trkpt>
      <trkpt lat="44.42793" lon="4.08728">
        <ele>192.8</ele>
        <time>2014-05-31T07:37:08Z</time>
      </trkpt>
      <trkpt lat="44.42803" lon="4.087">
        <ele>193.5</ele>
        <time>2014-05-31T07:37:14Z</time>
      </trkpt>
      <trkpt lat="44.4282" lon="4.08671">
        <ele>194</ele>
        <time>2014-05-31T07:37:21Z</time>
      </trkpt>
      <trkpt lat="44.42832" lon="4.0864">
        <ele>194</ele>
        <time>2014-05-31T07:37:28Z</time>
      </trkpt>
      <trkpt lat="44.42842" lon="4.08604">
        <ele>195.1</ele>
        <time>2014-05-31T07:37:35Z</time>
      </trkpt>
      <trkpt lat="44.42859" lon="4.08575">
        <ele>195.6</ele>
        <time>2014-05-31T07:37:43Z</time>
      </trkpt>
      <trkpt lat="44.42884" lon="4.08552">
        <ele>197</ele>
        <time>2014-05-31T07:37:51Z</time>
      </trkpt>
      <trkpt lat="44.42914" lon="4.08543">
        <ele>198.6</ele>
        <time>2014-05-31T07:37:59Z</time>
      </trkpt>
      <trkpt lat="44.42947" lon="4.08552">
        <ele>200.4</ele>
        <time>2014-05-31T07:38:07Z</time>
      </trkpt>
      <trkpt lat="44.42979" lon="4.08562">
        <ele>202.9</ele>
        <time>2014-05-31T07:38:15Z</time>
      </trkpt>
      <trkpt lat="44.43008" lon="4.08577">
        <ele>202.8</ele>
        <time>2014-05-31T07:38:23Z</time>
      </trkpt>
      <trkpt lat="44.43038" lon="4.08588">
        <ele>201.4</ele>
        <time>2014-05-31T07:38:31Z</time>
      </trkpt>
      <trkpt lat="44.43068" lon="4.08589">
        <ele>200.4</ele>
        <time>2014-05-31T07:38:39Z</time>
      </trkpt>
      <trkpt lat="44.43098" lon="4.08594">
        <ele>200.6</ele>
        <time>2014-05-31T07:38:47Z</time>
      </trkpt>
      <trkpt lat="44.43128" lon="4.08602">
        <ele>200.5</ele>
        <time>2014-05-31T07:38:55Z</time>
      </trkpt>
      <trkpt lat="44.43158" lon="4.08613">
        <ele>201.1</ele>
        <time>2014-05-31T07:39:03Z</time>
      </trkpt>
      <trkpt lat="44.43186" lon="4.08628">
        <ele>201.8</ele>
        <time>2014-05-31T07:39:10Z</time>
      </trkpt>
      <trkpt lat="44.43217" lon="4.08644">
        <ele>202.4</ele>
        <time>2014-05-31T07:39:19Z</time>
      </trkpt>
      <trkpt lat="44.4325" lon="4.08652">
        <ele>204.6</ele>
        <time>2014-05-31T07:39:27Z</time>
      </trkpt>
      <trkpt lat="44.43281" lon="4.08656">
        <ele>202.6</ele>
        <time>2014-05-31T07:39:35Z</time>
      </trkpt>
      <trkpt lat="44.4331" lon="4.08662">
        <ele>202.3</ele>
        <time>2014-05-31T07:39:43Z</time>
      </trkpt>
      <trkpt lat="44.43337" lon="4.08682">
        <ele>202.7</ele>
        <time>2014-05-31T07:39:51Z</time>
      </trkpt>
      <trkpt lat="44.43368" lon="4.08684">
        <ele>200.5</ele>
        <time>2014-05-31T07:39:59Z</time>
      </trkpt>
      <trkpt lat="44.43401" lon="4.08675">
        <ele>200.3</ele>
        <time>2014-05-31T07:40:07Z</time>
      </trkpt>
      <trkpt lat="44.43434" lon="4.08667">
        <ele>199.9</ele>
        <time>2014-05-31T07:40:15Z</time>
      </trkpt>
      <trkpt lat="44.43459" lon="4.08646">
        <ele>198.5</ele>
        <time>2014-05-31T07:40:22Z</time>
      </trkpt>
      <trkpt lat="44.43477" lon="4.08621">
        <ele>198.5</ele>
        <time>2014-05-31T07:40:28Z</time>
      </trkpt>
      <trkpt lat="44.435" lon="4.08596">
        <ele>199.3</ele>
        <time>2014-05-31T07:40:35Z</time>
      </trkpt>
      <trkpt lat="44.43523" lon="4.08571">
        <ele>200.5</ele>
        <time>2014-05-31T07:40:42Z</time>
      </trkpt>
      <trkpt lat="44.43536" lon="4.08542">
        <ele>203</ele>
        <time>2014-05-31T07:40:48Z</time>
      </trkpt>
      <trkpt lat="44.43532" lon="4.0851">
        <ele>204.3</ele>
        <time>2014-05-31T07:40:55Z</time>
      </trkpt>
      <trkpt lat="44.43531" lon="4.08478">
        <ele>204.6</ele>
        <time>2014-05-31T07:41:01Z</time>
      </trkpt>
      <trkpt lat="44.43533" lon="4.08442">
        <ele>204.3</ele>
        <time>2014-05-31T07:41:07Z</time>
      </trkpt>
      <trkpt lat="44.43534" lon="4.08408">
        <ele>204.6</ele>
        <time>2014-05-31T07:41:13Z</time>
      </trkpt>
      <trkpt lat="44.43533" lon="4.08372">
        <ele>205.4</ele>
        <time>2014-05-31T07:41:19Z</time>
      </trkpt>
      <trkpt lat="44.4353" lon="4.08336">
        <ele>206.3</ele>
        <time>2014-05-31T07:41:25Z</time>
      </trkpt>
      <trkpt lat="44.4353" lon="4.08303">
        <ele>206.8</ele>
        <time>2014-05-31T07:41:30Z</time>
      </trkpt>
      <trkpt lat="44.4353" lon="4.0827">
        <ele>207.4</ele>
        <time>2014-05-31T07:41:36Z</time>
      </trkpt>
      <trkpt lat="44.4353" lon="4.08238">
        <ele>208.3</ele>
        <time>2014-05-31T07:41:42Z</time>
      </trkpt>
      <trkpt lat="44.4353" lon="4.08204">
        <ele>208.9</ele>
        <time>2014-05-31T07:41:49Z</time>
      </trkpt>
      <trkpt lat="44.4353" lon="4.08172">
        <ele>209.6</ele>
        <time>2014-05-31T07:41:55Z</time>
      </trkpt>
      <trkpt lat="44.43531" lon="4.08139">
        <ele>209.9</ele>
        <time>2014-05-31T07:42:01Z</time>
      </trkpt>
      <trkpt lat="44.43538" lon="4.08108">
        <ele>210.3</ele>
        <time>2014-05-31T07:42:07Z</time>
      </trkpt>
      <trkpt lat="44.43555" lon="4.08079">
        <ele>210.2</ele>
        <time>2014-05-31T07:42:14Z</time>
      </trkpt>
      <trkpt lat="44.4358" lon="4.08056">
        <ele>210.3</ele>
        <time>2014-05-31T07:42:22Z</time>
      </trkpt>
      <trkpt lat="44.4361" lon="4.08047">
        <ele>207.8</ele>
        <time>2014-05-31T07:42:30Z</time>
      </trkpt>
      <trkpt lat="44.43642" lon="4.08037">
        <ele>206.6</ele>
        <time>2014-05-31T07:42:38Z</time>
      </trkpt>
      <trkpt lat="44.43674" lon="4.08028">
        <ele>205.4</ele>
        <time>2014-05-31T07:42:46Z</time>
      </trkpt>
      <trkpt lat="44.43703" lon="4.08019">
        <ele>206.7</ele>
        <time>2014-05-31T07:42:54Z</time>
      </trkpt>
      <trkpt lat="44.43736" lon="4.08024">
        <ele>208</ele>
        <time>2014-05-31T07:43:02Z</time>
      </trkpt>
      <trkpt lat="44.43768" lon="4.08018">
        <ele>207.8</ele>
        <time>2014-05-31T07:43:10Z</time>
      </trkpt>
      <trkpt lat="44.43801" lon="4.08009">
        <ele>208.4</ele>
        <time>2014-05-31T07:43:18Z</time>
      </trkpt>
      <trkpt lat="44.43835" lon="4.08012">
        <ele>209.1</ele>
        <time>2014-05-31T07:43:26Z</time>
      </trkpt>
      <trkpt lat="44.43867" lon="4.08024">
        <ele>208.8</ele>
        <time>2014-05-31T07:43:34Z</time>
      </trkpt>
      <trkpt lat="44.43897" lon="4.08038">
        <ele>207.4</ele>
        <time>2014-05-31T07:43:42Z</time>
      </trkpt>
      <trkpt lat="44.43929" lon="4.08053">
        <ele>206.4</ele>
        <time>2014-05-31T07:43:50Z</time>
      </trkpt>
      <trkpt lat="44.43957" lon="4.08071">
        <ele>205.5</ele>
        <time>2014-05-31T07:43:57Z</time>
      </trkpt>
      <trkpt lat="44.43975" lon="4.08103">
        <ele>205.9</ele>
        <time>2014-05-31T07:44:05Z</time>
      </trkpt>
      <trkpt lat="44.43984" lon="4.08137">
        <ele>206.8</ele>
        <time>2014-05-31T07:44:11Z</time>
      </trkpt>
      <trkpt lat="44.44001" lon="4.08164">
        <ele>208.3</ele>
        <time>2014-05-31T07:44:17Z</time>
      </trkpt>
      <trkpt lat="44.44024" lon="4.08185">
        <ele>209</ele>
        <time>2014-05-31T07:44:23Z</time>
      </trkpt>
      <trkpt lat="44.44055" lon="4.08192">
        <ele>208.3</ele>
        <time>2014-05-31T07:44:30Z</time>
      </trkpt>
      <trkpt lat="44.44082" lon="4.08177">
        <ele>207.4</ele>
        <time>2014-05-31T07:44:37Z</time>
      </trkpt>
      <trkpt lat="44.44109" lon="4.08161">
        <ele>207.1</ele>
        <time>2014-05-31T07:44:43Z</time>
      </trkpt>
      <trkpt lat="44.44143" lon="4.08149">
        <ele>207.4</ele>
        <time>2014-05-31T07:44:51Z</time>
      </trkpt>
      <trkpt lat="44.44177" lon="4.08137">
        <ele>207.4</ele>
        <time>2014-05-31T07:44:59Z</time>
      </trkpt>
      <trkpt lat="44.44207" lon="4.08118">
        <ele>208.3</ele>
        <time>2014-05-31T07:45:06Z</time>
      </trkpt>
      <trkpt lat="44.44224" lon="4.08086">
        <ele>209.5</ele>
        <time>2014-05-31T07:45:13Z</time>
      </trkpt>
      <trkpt lat="44.44234" lon="4.08052">
        <ele>210.6</ele>
        <time>2014-05-31T07:45:19Z</time>
      </trkpt>
      <trkpt lat="44.44232" lon="4.08014">
        <ele>212.4</ele>
        <time>2014-05-31T07:45:25Z</time>
      </trkpt>
      <trkpt lat="44.44235" lon="4.07978">
        <ele>213.4</ele>
        <time>2014-05-31T07:45:31Z</time>
      </trkpt>
      <trkpt lat="44.44249" lon="4.07946">
        <ele>213.9</ele>
        <time>2014-05-31T07:45:38Z</time>
      </trkpt>
      <trkpt lat="44.44266" lon="4.07914">
        <ele>214</ele>
        <time>2014-05-31T07:45:46Z</time>
      </trkpt>
      <trkpt lat="44.44282" lon="4.07882">
        <ele>214.3</ele>
        <time>2014-05-31T07:45:53Z</time>
      </trkpt>
      <trkpt lat="44.44295" lon="4.07852">
        <ele>215.9</ele>
        <time>2014-05-31T07:46:00Z</time>
      </trkpt>
      <trkpt lat="44.44314" lon="4.07824">
        <ele>216.3</ele>
        <time>2014-05-31T07:46:08Z</time>
      </trkpt>
      <trkpt lat="44.44324" lon="4.07793">
        <ele>218</ele>
        <time>2014-05-31T07:46:15Z</time>
      </trkpt>
      <trkpt lat="44.4433" lon="4.07757">
        <ele>219.6</ele>
        <time>2014-05-31T07:46:22Z</time>
      </trkpt>
      <trkpt lat="44.44336" lon="4.07722">
        <ele>220.9</ele>
        <time>2014-05-31T07:46:29Z</time>
      </trkpt>
      <trkpt lat="44.44347" lon="4.07687">
        <ele>222.2</ele>
        <time>2014-05-31T07:46:37Z</time>
      </trkpt>
      <trkpt lat="44.4435" lon="4.07654">
        <ele>222.6</ele>
        <time>2014-05-31T07:46:44Z</time>
      </trkpt>
      <trkpt lat="44.44349" lon="4.0762">
        <ele>223.5</ele>
        <time>2014-05-31T07:46:51Z</time>
      </trkpt>
      <trkpt lat="44.44351" lon="4.07586">
        <ele>223.6</ele>
        <time>2014-05-31T07:46:58Z</time>
      </trkpt>
      <trkpt lat="44.44355" lon="4.07551">
        <ele>224</ele>
        <time>2014-05-31T07:47:05Z</time>
      </trkpt>
      <trkpt lat="44.44366" lon="4.07521">
        <ele>224.5</ele>
        <time>2014-05-31T07:47:12Z</time>
      </trkpt>
      <trkpt lat="44.44373" lon="4.07493">
        <ele>225.5</ele>
        <time>2014-05-31T07:47:18Z</time>
      </trkpt>
      <trkpt lat="44.44372" lon="4.07459">
        <ele>225.8</ele>
        <time>2014-05-31T07:47:25Z</time>
      </trkpt>
      <trkpt lat="44.44357" lon="4.07426">
        <ele>226.3</ele>
        <time>2014-05-31T07:47:33Z</time>
      </trkpt>
      <trkpt lat="44.44342" lon="4.07396">
        <ele>227.1</ele>
        <time>2014-05-31T07:47:41Z</time>
      </trkpt>
      <trkpt lat="44.4432" lon="4.07372">
        <ele>228.1</ele>
        <time>2014-05-31T07:47:50Z</time>
      </trkpt>
      <trkpt lat="44.44294" lon="4.0735">
        <ele>229.3</ele>
        <time>2014-05-31T07:47:59Z</time>
      </trkpt>
      <trkpt lat="44.44272" lon="4.07328">
        <ele>229.4</ele>
        <time>2014-05-31T07:48:07Z</time>
      </trkpt>
      <trkpt lat="44.44247" lon="4.07308">
        <ele>229.3</ele>
        <time>2014-05-31T07:48:15Z</time>
      </trkpt>
      <trkpt lat="44.44223" lon="4.07287">
        <ele>229.8</ele>
        <time>2014-05-31T07:48:23Z</time>
      </trkpt>
      <trkpt lat="44.44203" lon="4.07262">
        <ele>231.1</ele>
        <time>2014-05-31T07:48:31Z</time>
      </trkpt>
      <trkpt lat="44.44184" lon="4.07237">
        <ele>232.3</ele>
        <time>2014-05-31T07:48:39Z</time>
      </trkpt>
      <trkpt lat="44.44161" lon="4.07217">
        <ele>233.4</ele>
        <time>2014-05-31T07:48:47Z</time>
      </trkpt>
      <trkpt lat="44.44134" lon="4.07201">
        <ele>235.3</ele>
        <time>2014-05-31T07:48:56Z</time>
      </trkpt>
      <trkpt lat="44.44107" lon="4.07191">
        <ele>236.8</ele>
        <time>2014-05-31T07:49:04Z</time>
      </trkpt>
      <trkpt lat="44.44084" lon="4.07172">
        <ele>238.2</ele>
        <time>2014-05-31T07:49:12Z</time>
      </trkpt>
      <trkpt lat="44.44092" lon="4.07142">
        <ele>242.2</ele>
        <time>2014-05-31T07:49:19Z</time>
      </trkpt>
      <trkpt lat="44.44118" lon="4.07123">
        <ele>243.3</ele>
        <time>2014-05-31T07:49:27Z</time>
      </trkpt>
      <trkpt lat="44.44149" lon="4.07108">
        <ele>242.4</ele>
        <time>2014-05-31T07:49:35Z</time>
      </trkpt>
      <trkpt lat="44.44181" lon="4.07098">
        <ele>242.5</ele>
        <time>2014-05-31T07:49:43Z</time>
      </trkpt>
      <trkpt lat="44.44216" lon="4.07102">
        <ele>242.8</ele>
        <time>2014-05-31T07:49:51Z</time>
      </trkpt>
      <trkpt lat="44.44251" lon="4.07105">
        <ele>242.5</ele>
        <time>2014-05-31T07:49:58Z</time>
      </trkpt>
      <trkpt lat="44.4428" lon="4.07093">
        <ele>242.3</ele>
        <time>2014-05-31T07:50:05Z</time>
      </trkpt>
      <trkpt lat="44.44303" lon="4.07071">
        <ele>242.4</ele>
        <time>2014-05-31T07:50:11Z</time>
      </trkpt>
      <trkpt lat="44.44331" lon="4.07062">
        <ele>241.9</ele>
        <time>2014-05-31T07:50:21Z</time>
      </trkpt>
      <trkpt lat="44.44347" lon="4.07063">
        <ele>246.2</ele>
        <time>2014-05-31T07:50:44Z</time>
      </trkpt>
      <trkpt lat="44.44374" lon="4.07079">
        <ele>246.5</ele>
        <time>2014-05-31T07:51:04Z</time>
      </trkpt>
      <trkpt lat="44.44405" lon="4.07082">
        <ele>245</ele>
        <time>2014-05-31T07:51:13Z</time>
      </trkpt>
      <trkpt lat="44.44432" lon="4.07063">
        <ele>244</ele>
        <time>2014-05-31T07:51:20Z</time>
      </trkpt>
      <trkpt lat="44.44448" lon="4.07034">
        <ele>245.3</ele>
        <time>2014-05-31T07:51:25Z</time>
      </trkpt>
      <trkpt lat="44.4445" lon="4.07003">
        <ele>245.5</ele>
        <time>2014-05-31T07:51:29Z</time>
      </trkpt>
      <trkpt lat="44.44444" lon="4.06967">
        <ele>245.5</ele>
        <time>2014-05-31T07:51:34Z</time>
      </trkpt>
      <trkpt lat="44.44443" lon="4.06931">
        <ele>246.3</ele>
        <time>2014-05-31T07:51:38Z</time>
      </trkpt>
      <trkpt lat="44.44448" lon="4.06898">
        <ele>247.3</ele>
        <time>2014-05-31T07:51:42Z</time>
      </trkpt>
      <trkpt lat="44.44458" lon="4.06861">
        <ele>247.9</ele>
        <time>2014-05-31T07:51:47Z</time>
      </trkpt>
      <trkpt lat="44.4446" lon="4.06824">
        <ele>248</ele>
        <time>2014-05-31T07:51:53Z</time>
      </trkpt>
      <trkpt lat="44.44463" lon="4.06793">
        <ele>248</ele>
        <time>2014-05-31T07:51:57Z</time>
      </trkpt>
      <trkpt lat="44.44465" lon="4.06762">
        <ele>247.8</ele>
        <time>2014-05-31T07:52:00Z</time>
      </trkpt>
      <trkpt lat="44.44451" lon="4.06731">
        <ele>247.5</ele>
        <time>2014-05-31T07:52:06Z</time>
      </trkpt>
      <trkpt lat="44.44427" lon="4.06703">
        <ele>247.1</ele>
        <time>2014-05-31T07:52:12Z</time>
      </trkpt>
      <trkpt lat="44.44402" lon="4.06679">
        <ele>246.8</ele>
        <time>2014-05-31T07:52:18Z</time>
      </trkpt>
      <trkpt lat="44.44382" lon="4.06658">
        <ele>247</ele>
        <time>2014-05-31T07:52:38Z</time>
      </trkpt>
      <trkpt lat="44.44377" lon="4.06658">
        <ele>249</ele>
        <time>2014-05-31T07:53:50Z</time>
      </trkpt>
      <trkpt lat="44.4438" lon="4.06624">
        <ele>250.6</ele>
        <time>2014-05-31T07:54:50Z</time>
      </trkpt>
      <trkpt lat="44.44381" lon="4.06589">
        <ele>249.3</ele>
        <time>2014-05-31T07:54:57Z</time>
      </trkpt>
      <trkpt lat="44.44399" lon="4.0656">
        <ele>246.1</ele>
        <time>2014-05-31T07:55:03Z</time>
      </trkpt>
      <trkpt lat="44.44417" lon="4.06531">
        <ele>244.4</ele>
        <time>2014-05-31T07:55:10Z</time>
      </trkpt>
      <trkpt lat="44.44423" lon="4.06517">
        <ele>243.3</ele>
        <time>2014-05-31T07:55:41Z</time>
      </trkpt>
      <trkpt lat="44.44434" lon="4.06496">
        <ele>240.2</ele>
        <time>2014-05-31T07:56:48Z</time>
      </trkpt>
      <trkpt lat="44.44467" lon="4.06474">
        <ele>241.1</ele>
        <time>2014-05-31T07:57:55Z</time>
      </trkpt>
      <trkpt lat="44.44499" lon="4.06477">
        <ele>241</ele>
        <time>2014-05-31T07:58:07Z</time>
      </trkpt>
      <trkpt lat="44.44531" lon="4.06474">
        <ele>239.6</ele>
        <time>2014-05-31T07:58:18Z</time>
      </trkpt>
      <trkpt lat="44.44563" lon="4.06481">
        <ele>239.4</ele>
        <time>2014-05-31T07:58:27Z</time>
      </trkpt>
      <trkpt lat="44.44594" lon="4.06482">
        <ele>239.5</ele>
        <time>2014-05-31T07:58:36Z</time>
      </trkpt>
      <trkpt lat="44.44622" lon="4.06462">
        <ele>238.9</ele>
        <time>2014-05-31T07:58:43Z</time>
      </trkpt>
      <trkpt lat="44.44642" lon="4.06437">
        <ele>239.4</ele>
        <time>2014-05-31T07:58:50Z</time>
      </trkpt>
      <trkpt lat="44.44661" lon="4.06413">
        <ele>239.1</ele>
        <time>2014-05-31T07:58:56Z</time>
      </trkpt>
      <trkpt lat="44.44691" lon="4.06408">
        <ele>239.1</ele>
        <time>2014-05-31T07:59:04Z</time>
      </trkpt>
      <trkpt lat="44.44722" lon="4.06422">
        <ele>238.6</ele>
        <time>2014-05-31T07:59:12Z</time>
      </trkpt>
      <trkpt lat="44.44746" lon="4.06415">
        <ele>239.1</ele>
        <time>2014-05-31T07:59:19Z</time>
      </trkpt>
      <trkpt lat="44.44746" lon="4.06377">
        <ele>239.1</ele>
        <time>2014-05-31T07:59:25Z</time>
      </trkpt>
      <trkpt lat="44.44734" lon="4.0635">
        <ele>238.9</ele>
        <time>2014-05-31T07:59:31Z</time>
      </trkpt>
      <trkpt lat="44.44718" lon="4.06318">
        <ele>238</ele>
        <time>2014-05-31T07:59:38Z</time>
      </trkpt>
      <trkpt lat="44.44707" lon="4.06286">
        <ele>237.8</ele>
        <time>2014-05-31T07:59:45Z</time>
      </trkpt>
      <trkpt lat="44.447" lon="4.06252">
        <ele>238.4</ele>
        <time>2014-05-31T07:59:51Z</time>
      </trkpt>
      <trkpt lat="44.44691" lon="4.06221">
        <ele>238.5</ele>
        <time>2014-05-31T07:59:58Z</time>
      </trkpt>
      <trkpt lat="44.44679" lon="4.06191">
        <ele>238.8</ele>
        <time>2014-05-31T08:00:04Z</time>
      </trkpt>
      <trkpt lat="44.44668" lon="4.06159">
        <ele>239.8</ele>
        <time>2014-05-31T08:00:10Z</time>
      </trkpt>
      <trkpt lat="44.44658" lon="4.06126">
        <ele>239.8</ele>
        <time>2014-05-31T08:00:16Z</time>
      </trkpt>
      <trkpt lat="44.4464" lon="4.06099">
        <ele>240.3</ele>
        <time>2014-05-31T08:00:22Z</time>
      </trkpt>
      <trkpt lat="44.4462" lon="4.06075">
        <ele>241</ele>
        <time>2014-05-31T08:00:28Z</time>
      </trkpt>
      <trkpt lat="44.44599" lon="4.06049">
        <ele>241.8</ele>
        <time>2014-05-31T08:00:35Z</time>
      </trkpt>
      <trkpt lat="44.44581" lon="4.06018">
        <ele>243.9</ele>
        <time>2014-05-31T08:00:42Z</time>
      </trkpt>
      <trkpt lat="44.44584" lon="4.05988">
        <ele>246.3</ele>
        <time>2014-05-31T08:00:49Z</time>
      </trkpt>
      <trkpt lat="44.44604" lon="4.05967">
        <ele>246.9</ele>
        <time>2014-05-31T08:00:55Z</time>
      </trkpt>
      <trkpt lat="44.44632" lon="4.05956">
        <ele>247.5</ele>
        <time>2014-05-31T08:01:01Z</time>
      </trkpt>
      <trkpt lat="44.4466" lon="4.05936">
        <ele>247.5</ele>
        <time>2014-05-31T08:01:07Z</time>
      </trkpt>
      <trkpt lat="44.44691" lon="4.05921">
        <ele>247</ele>
        <time>2014-05-31T08:01:13Z</time>
      </trkpt>
      <trkpt lat="44.44727" lon="4.05919">
        <ele>247.1</ele>
        <time>2014-05-31T08:01:19Z</time>
      </trkpt>
      <trkpt lat="44.44762" lon="4.05893">
        <ele>247.3</ele>
        <time>2014-05-31T08:01:25Z</time>
      </trkpt>
      <trkpt lat="44.44786" lon="4.05867">
        <ele>247.3</ele>
        <time>2014-05-31T08:01:30Z</time>
      </trkpt>
      <trkpt lat="44.44806" lon="4.05844">
        <ele>247</ele>
        <time>2014-05-31T08:01:34Z</time>
      </trkpt>
      <trkpt lat="44.44838" lon="4.05829">
        <ele>246.5</ele>
        <time>2014-05-31T08:01:40Z</time>
      </trkpt>
      <trkpt lat="44.44856" lon="4.05798">
        <ele>246.5</ele>
        <time>2014-05-31T08:01:45Z</time>
      </trkpt>
      <trkpt lat="44.44873" lon="4.05769">
        <ele>246.5</ele>
        <time>2014-05-31T08:01:49Z</time>
      </trkpt>
      <trkpt lat="44.44887" lon="4.05739">
        <ele>246.5</ele>
        <time>2014-05-31T08:01:53Z</time>
      </trkpt>
      <trkpt lat="44.44904" lon="4.05714">
        <ele>246.5</ele>
        <time>2014-05-31T08:01:58Z</time>
      </trkpt>
      <trkpt lat="44.44915" lon="4.05684">
        <ele>247</ele>
        <time>2014-05-31T08:02:02Z</time>
      </trkpt>
      <trkpt lat="44.44917" lon="4.05649">
        <ele>247</ele>
        <time>2014-05-31T08:02:05Z</time>
      </trkpt>
      <trkpt lat="44.44917" lon="4.05612">
        <ele>247.3</ele>
        <time>2014-05-31T08:02:10Z</time>
      </trkpt>
      <trkpt lat="44.44916" lon="4.05577">
        <ele>246.8</ele>
        <time>2014-05-31T08:02:14Z</time>
      </trkpt>
      <trkpt lat="44.44918" lon="4.05542">
        <ele>246.8</ele>
        <time>2014-05-31T08:02:18Z</time>
      </trkpt>
      <trkpt lat="44.4492" lon="4.05507">
        <ele>246.5</ele>
        <time>2014-05-31T08:02:22Z</time>
      </trkpt>
      <trkpt lat="44.4492" lon="4.05471">
        <ele>246.8</ele>
        <time>2014-05-31T08:02:25Z</time>
      </trkpt>
      <trkpt lat="44.44919" lon="4.05437">
        <ele>247</ele>
        <time>2014-05-31T08:02:30Z</time>
      </trkpt>
      <trkpt lat="44.4492" lon="4.05403">
        <ele>246.5</ele>
        <time>2014-05-31T08:02:34Z</time>
      </trkpt>
      <trkpt lat="44.44929" lon="4.05372">
        <ele>244.8</ele>
        <time>2014-05-31T08:02:37Z</time>
      </trkpt>
      <trkpt lat="44.44948" lon="4.05342">
        <ele>244.3</ele>
        <time>2014-05-31T08:02:43Z</time>
      </trkpt>
      <trkpt lat="44.44971" lon="4.05313">
        <ele>243.8</ele>
        <time>2014-05-31T08:02:49Z</time>
      </trkpt>
      <trkpt lat="44.44994" lon="4.05281">
        <ele>243</ele>
        <time>2014-05-31T08:02:55Z</time>
      </trkpt>
      <trkpt lat="44.45018" lon="4.05247">
        <ele>241.8</ele>
        <time>2014-05-31T08:03:01Z</time>
      </trkpt>
      <trkpt lat="44.45044" lon="4.05216">
        <ele>239.8</ele>
        <time>2014-05-31T08:03:07Z</time>
      </trkpt>
      <trkpt lat="44.45069" lon="4.05187">
        <ele>238.9</ele>
        <time>2014-05-31T08:03:12Z</time>
      </trkpt>
      <trkpt lat="44.45085" lon="4.05161">
        <ele>238.8</ele>
        <time>2014-05-31T08:03:16Z</time>
      </trkpt>
      <trkpt lat="44.45098" lon="4.05133">
        <ele>237.5</ele>
        <time>2014-05-31T08:03:21Z</time>
      </trkpt>
      <trkpt lat="44.45114" lon="4.05102">
        <ele>236.8</ele>
        <time>2014-05-31T08:03:26Z</time>
      </trkpt>
      <trkpt lat="44.45117" lon="4.05065">
        <ele>236.5</ele>
        <time>2014-05-31T08:03:32Z</time>
      </trkpt>
      <trkpt lat="44.45132" lon="4.05041">
        <ele>236.6</ele>
        <time>2014-05-31T08:03:40Z</time>
      </trkpt>
      <trkpt lat="44.45163" lon="4.05049">
        <ele>237.4</ele>
        <time>2014-05-31T08:03:51Z</time>
      </trkpt>
      <trkpt lat="44.4519" lon="4.05064">
        <ele>237.9</ele>
        <time>2014-05-31T08:04:02Z</time>
      </trkpt>
      <trkpt lat="44.45214" lon="4.0506">
        <ele>239</ele>
        <time>2014-05-31T08:04:15Z</time>
      </trkpt>
      <trkpt lat="44.45227" lon="4.05034">
        <ele>240.4</ele>
        <time>2014-05-31T08:04:27Z</time>
      </trkpt>
      <trkpt lat="44.45233" lon="4.05009">
        <ele>239.9</ele>
        <time>2014-05-31T08:04:49Z</time>
      </trkpt>
      <trkpt lat="44.45232" lon="4.04984">
        <ele>238</ele>
        <time>2014-05-31T08:05:10Z</time>
      </trkpt>
      <trkpt lat="44.45244" lon="4.04952">
        <ele>237.2</ele>
        <time>2014-05-31T08:05:19Z</time>
      </trkpt>
      <trkpt lat="44.45267" lon="4.04928">
        <ele>236.8</ele>
        <time>2014-05-31T08:05:27Z</time>
      </trkpt>
      <trkpt lat="44.45297" lon="4.04918">
        <ele>237.3</ele>
        <time>2014-05-31T08:05:35Z</time>
      </trkpt>
      <trkpt lat="44.45331" lon="4.04925">
        <ele>238.5</ele>
        <time>2014-05-31T08:05:43Z</time>
      </trkpt>
      <trkpt lat="44.45361" lon="4.04942">
        <ele>239.6</ele>
        <time>2014-05-31T08:05:50Z</time>
      </trkpt>
      <trkpt lat="44.45389" lon="4.04959">
        <ele>240.6</ele>
        <time>2014-05-31T08:05:57Z</time>
      </trkpt>
      <trkpt lat="44.45412" lon="4.04984">
        <ele>242.4</ele>
        <time>2014-05-31T08:06:03Z</time>
      </trkpt>
      <trkpt lat="44.45438" lon="4.05008">
        <ele>243.2</ele>
        <time>2014-05-31T08:06:10Z</time>
      </trkpt>
      <trkpt lat="44.45468" lon="4.05025">
        <ele>243.9</ele>
        <time>2014-05-31T08:06:18Z</time>
      </trkpt>
      <trkpt lat="44.45499" lon="4.05026">
        <ele>245</ele>
        <time>2014-05-31T08:06:26Z</time>
      </trkpt>
      <trkpt lat="44.45526" lon="4.05012">
        <ele>245.3</ele>
        <time>2014-05-31T08:06:35Z</time>
      </trkpt>
      <trkpt lat="44.45542" lon="4.04983">
        <ele>245.3</ele>
        <time>2014-05-31T08:06:42Z</time>
      </trkpt>
      <trkpt lat="44.45549" lon="4.04951">
        <ele>244.9</ele>
        <time>2014-05-31T08:06:49Z</time>
      </trkpt>
      <trkpt lat="44.45562" lon="4.04919">
        <ele>245.4</ele>
        <time>2014-05-31T08:06:56Z</time>
      </trkpt>
      <trkpt lat="44.45577" lon="4.04888">
        <ele>245.4</ele>
        <time>2014-05-31T08:07:04Z</time>
      </trkpt>
      <trkpt lat="44.45601" lon="4.04868">
        <ele>245.5</ele>
        <time>2014-05-31T08:07:12Z</time>
      </trkpt>
      <trkpt lat="44.45629" lon="4.04853">
        <ele>246</ele>
        <time>2014-05-31T08:07:20Z</time>
      </trkpt>
      <trkpt lat="44.45661" lon="4.0485">
        <ele>246.2</ele>
        <time>2014-05-31T08:07:29Z</time>
      </trkpt>
      <trkpt lat="44.45685" lon="4.04831">
        <ele>246.5</ele>
        <time>2014-05-31T08:07:36Z</time>
      </trkpt>
      <trkpt lat="44.45704" lon="4.04804">
        <ele>246.5</ele>
        <time>2014-05-31T08:07:44Z</time>
      </trkpt>
      <trkpt lat="44.45717" lon="4.04774">
        <ele>247.6</ele>
        <time>2014-05-31T08:07:51Z</time>
      </trkpt>
      <trkpt lat="44.45732" lon="4.04747">
        <ele>248</ele>
        <time>2014-05-31T08:07:57Z</time>
      </trkpt>
      <trkpt lat="44.45749" lon="4.04722">
        <ele>248.8</ele>
        <time>2014-05-31T08:08:02Z</time>
      </trkpt>
      <trkpt lat="44.4576" lon="4.04693">
        <ele>251.2</ele>
        <time>2014-05-31T08:08:09Z</time>
      </trkpt>
      <trkpt lat="44.45773" lon="4.04661">
        <ele>251.3</ele>
        <time>2014-05-31T08:08:16Z</time>
      </trkpt>
      <trkpt lat="44.45799" lon="4.04641">
        <ele>251.7</ele>
        <time>2014-05-31T08:08:24Z</time>
      </trkpt>
      <trkpt lat="44.45829" lon="4.04638">
        <ele>253.3</ele>
        <time>2014-05-31T08:08:32Z</time>
      </trkpt>
      <trkpt lat="44.45846" lon="4.04662">
        <ele>255.5</ele>
        <time>2014-05-31T08:08:39Z</time>
      </trkpt>
      <trkpt lat="44.45859" lon="4.04691">
        <ele>256.2</ele>
        <time>2014-05-31T08:08:47Z</time>
      </trkpt>
      <trkpt lat="44.45881" lon="4.04717">
        <ele>256.8</ele>
        <time>2014-05-31T08:08:57Z</time>
      </trkpt>
      <trkpt lat="44.45906" lon="4.04739">
        <ele>257</ele>
        <time>2014-05-31T08:09:07Z</time>
      </trkpt>
      <trkpt lat="44.45937" lon="4.04745">
        <ele>257.4</ele>
        <time>2014-05-31T08:09:18Z</time>
      </trkpt>
      <trkpt lat="44.45969" lon="4.04738">
        <ele>257.5</ele>
        <time>2014-05-31T08:09:30Z</time>
      </trkpt>
      <trkpt lat="44.46" lon="4.04729">
        <ele>257.5</ele>
        <time>2014-05-31T08:09:43Z</time>
      </trkpt>
      <trkpt lat="44.46031" lon="4.04719">
        <ele>257.8</ele>
        <time>2014-05-31T08:09:55Z</time>
      </trkpt>
      <trkpt lat="44.4606" lon="4.04723">
        <ele>259.3</ele>
        <time>2014-05-31T08:10:07Z</time>
      </trkpt>
      <trkpt lat="44.46089" lon="4.04736">
        <ele>261.7</ele>
        <time>2014-05-31T08:10:19Z</time>
      </trkpt>
      <trkpt lat="44.461" lon="4.04749">
        <ele>277.8</ele>
        <time>2014-05-31T08:10:43Z</time>
      </trkpt>
      <trkpt lat="44.46127" lon="4.04764">
        <ele>284.5</ele>
        <time>2014-05-31T08:11:05Z</time>
      </trkpt>
      <trkpt lat="44.46156" lon="4.0478">
        <ele>284.8</ele>
        <time>2014-05-31T08:11:14Z</time>
      </trkpt>
      <trkpt lat="44.4619" lon="4.0479">
        <ele>285.3</ele>
        <time>2014-05-31T08:11:22Z</time>
      </trkpt>
      <trkpt lat="44.46222" lon="4.04793">
        <ele>285.8</ele>
        <time>2014-05-31T08:11:30Z</time>
      </trkpt>
      <trkpt lat="44.46252" lon="4.04813">
        <ele>286.8</ele>
        <time>2014-05-31T08:11:38Z</time>
      </trkpt>
      <trkpt lat="44.46276" lon="4.04838">
        <ele>287.4</ele>
        <time>2014-05-31T08:11:49Z</time>
      </trkpt>
      <trkpt lat="44.46305" lon="4.04846">
        <ele>288.5</ele>
        <time>2014-05-31T08:12:00Z</time>
      </trkpt>
      <trkpt lat="44.46317" lon="4.04872">
        <ele>289.6</ele>
        <time>2014-05-31T08:12:07Z</time>
      </trkpt>
      <trkpt lat="44.46301" lon="4.04902">
        <ele>290</ele>
        <time>2014-05-31T08:12:14Z</time>
      </trkpt>
      <trkpt lat="44.46303" lon="4.04934">
        <ele>289.9</ele>
        <time>2014-05-31T08:12:21Z</time>
      </trkpt>
      <trkpt lat="44.46312" lon="4.04967">
        <ele>289.6</ele>
        <time>2014-05-31T08:12:28Z</time>
      </trkpt>
      <trkpt lat="44.46319" lon="4.04992">
        <ele>291.1</ele>
        <time>2014-05-31T08:13:14Z</time>
      </trkpt>
      <trkpt lat="44.46327" lon="4.05036">
        <ele>291.5</ele>
        <time>2014-05-31T08:13:22Z</time>
      </trkpt>
      <trkpt lat="44.46333" lon="4.05069">
        <ele>291.4</ele>
        <time>2014-05-31T08:13:30Z</time>
      </trkpt>
      <trkpt lat="44.46336" lon="4.051">
        <ele>290.8</ele>
        <time>2014-05-31T08:13:38Z</time>
      </trkpt>
      <trkpt lat="44.46341" lon="4.05132">
        <ele>290.1</ele>
        <time>2014-05-31T08:13:46Z</time>
      </trkpt>
      <trkpt lat="44.46351" lon="4.05163">
        <ele>291.3</ele>
        <time>2014-05-31T08:13:54Z</time>
      </trkpt>
      <trkpt lat="44.46361" lon="4.05195">
        <ele>291.7</ele>
        <time>2014-05-31T08:14:02Z</time>
      </trkpt>
      <trkpt lat="44.46372" lon="4.05225">
        <ele>291.4</ele>
        <time>2014-05-31T08:14:10Z</time>
      </trkpt>
      <trkpt lat="44.46384" lon="4.05256">
        <ele>292</ele>
        <time>2014-05-31T08:14:19Z</time>
      </trkpt>
      <trkpt lat="44.46397" lon="4.05287">
        <ele>294</ele>
        <time>2014-05-31T08:14:29Z</time>
      </trkpt>
      <trkpt lat="44.46413" lon="4.05317">
        <ele>296.5</ele>
        <time>2014-05-31T08:14:38Z</time>
      </trkpt>
      <trkpt lat="44.46424" lon="4.05348">
        <ele>298.1</ele>
        <time>2014-05-31T08:14:47Z</time>
      </trkpt>
      <trkpt lat="44.46439" lon="4.05376">
        <ele>299.6</ele>
        <time>2014-05-31T08:14:57Z</time>
      </trkpt>
      <trkpt lat="44.46453" lon="4.05403">
        <ele>300.1</ele>
        <time>2014-05-31T08:15:08Z</time>
      </trkpt>
      <trkpt lat="44.46476" lon="4.05423">
        <ele>301.5</ele>
        <time>2014-05-31T08:15:18Z</time>
      </trkpt>
      <trkpt lat="44.46501" lon="4.05444">
        <ele>303.4</ele>
        <time>2014-05-31T08:15:29Z</time>
      </trkpt>
      <trkpt lat="44.46515" lon="4.05473">
        <ele>304.5</ele>
        <time>2014-05-31T08:15:38Z</time>
      </trkpt>
      <trkpt lat="44.46534" lon="4.05499">
        <ele>305.1</ele>
        <time>2014-05-31T08:15:49Z</time>
      </trkpt>
      <trkpt lat="44.46563" lon="4.05508">
        <ele>305.6</ele>
        <time>2014-05-31T08:16:00Z</time>
      </trkpt>
      <trkpt lat="44.46593" lon="4.05496">
        <ele>307.5</ele>
        <time>2014-05-31T08:16:11Z</time>
      </trkpt>
      <trkpt lat="44.46616" lon="4.05476">
        <ele>310.9</ele>
        <time>2014-05-31T08:16:21Z</time>
      </trkpt>
      <trkpt lat="44.46636" lon="4.0545">
        <ele>314.9</ele>
        <time>2014-05-31T08:16:31Z</time>
      </trkpt>
      <trkpt lat="44.46655" lon="4.05426">
        <ele>316.4</ele>
        <time>2014-05-31T08:16:40Z</time>
      </trkpt>
      <trkpt lat="44.46686" lon="4.05423">
        <ele>316.9</ele>
        <time>2014-05-31T08:16:50Z</time>
      </trkpt>
      <trkpt lat="44.46718" lon="4.05414">
        <ele>318.1</ele>
        <time>2014-05-31T08:17:00Z</time>
      </trkpt>
      <trkpt lat="44.46748" lon="4.05404">
        <ele>319.2</ele>
        <time>2014-05-31T08:17:09Z</time>
      </trkpt>
      <trkpt lat="44.46779" lon="4.05402">
        <ele>322.3</ele>
        <time>2014-05-31T08:17:20Z</time>
      </trkpt>
      <trkpt lat="44.46807" lon="4.05388">
        <ele>324.6</ele>
        <time>2014-05-31T08:17:30Z</time>
      </trkpt>
      <trkpt lat="44.46835" lon="4.05398">
        <ele>326</ele>
        <time>2014-05-31T08:17:38Z</time>
      </trkpt>
      <trkpt lat="44.46846" lon="4.05428">
        <ele>326</ele>
        <time>2014-05-31T08:17:45Z</time>
      </trkpt>
      <trkpt lat="44.46852" lon="4.0546">
        <ele>326</ele>
        <time>2014-05-31T08:17:51Z</time>
      </trkpt>
      <trkpt lat="44.46855" lon="4.05493">
        <ele>326</ele>
        <time>2014-05-31T08:17:59Z</time>
      </trkpt>
      <trkpt lat="44.46862" lon="4.05525">
        <ele>326.4</ele>
        <time>2014-05-31T08:18:07Z</time>
      </trkpt>
      <trkpt lat="44.46874" lon="4.05553">
        <ele>327.3</ele>
        <time>2014-05-31T08:18:15Z</time>
      </trkpt>
      <trkpt lat="44.46892" lon="4.05575">
        <ele>329.3</ele>
        <time>2014-05-31T08:18:23Z</time>
      </trkpt>
      <trkpt lat="44.46915" lon="4.05558">
        <ele>332.2</ele>
        <time>2014-05-31T08:18:32Z</time>
      </trkpt>
      <trkpt lat="44.46925" lon="4.05528">
        <ele>332.8</ele>
        <time>2014-05-31T08:18:40Z</time>
      </trkpt>
      <trkpt lat="44.46926" lon="4.05494">
        <ele>333.4</ele>
        <time>2014-05-31T08:18:47Z</time>
      </trkpt>
      <trkpt lat="44.46928" lon="4.05464">
        <ele>334.1</ele>
        <time>2014-05-31T08:18:54Z</time>
      </trkpt>
      <trkpt lat="44.46936" lon="4.05432">
        <ele>335.3</ele>
        <time>2014-05-31T08:19:01Z</time>
      </trkpt>
      <trkpt lat="44.4695" lon="4.05397">
        <ele>335.9</ele>
        <time>2014-05-31T08:19:09Z</time>
      </trkpt>
      <trkpt lat="44.46971" lon="4.05366">
        <ele>336.8</ele>
        <time>2014-05-31T08:19:17Z</time>
      </trkpt>
      <trkpt lat="44.46992" lon="4.0534">
        <ele>338</ele>
        <time>2014-05-31T08:19:25Z</time>
      </trkpt>
      <trkpt lat="44.47024" lon="4.05333">
        <ele>339.1</ele>
        <time>2014-05-31T08:19:34Z</time>
      </trkpt>
      <trkpt lat="44.47056" lon="4.05327">
        <ele>339.5</ele>
        <time>2014-05-31T08:19:43Z</time>
      </trkpt>
      <trkpt lat="44.47087" lon="4.05327">
        <ele>340.3</ele>
        <time>2014-05-31T08:19:52Z</time>
      </trkpt>
      <trkpt lat="44.47108" lon="4.0535">
        <ele>342.5</ele>
        <time>2014-05-31T08:20:00Z</time>
      </trkpt>
      <trkpt lat="44.47132" lon="4.05367">
        <ele>344.8</ele>
        <time>2014-05-31T08:20:08Z</time>
      </trkpt>
      <trkpt lat="44.47146" lon="4.05392">
        <ele>345.9</ele>
        <time>2014-05-31T08:20:14Z</time>
      </trkpt>
      <trkpt lat="44.47147" lon="4.05422">
        <ele>346.3</ele>
        <time>2014-05-31T08:20:21Z</time>
      </trkpt>
      <trkpt lat="44.47161" lon="4.05455">
        <ele>345.7</ele>
        <time>2014-05-31T08:20:29Z</time>
      </trkpt>
      <trkpt lat="44.47174" lon="4.05488">
        <ele>346</ele>
        <time>2014-05-31T08:20:37Z</time>
      </trkpt>
      <trkpt lat="44.47182" lon="4.05519">
        <ele>346.4</ele>
        <time>2014-05-31T08:20:44Z</time>
      </trkpt>
      <trkpt lat="44.47192" lon="4.05551">
        <ele>347.1</ele>
        <time>2014-05-31T08:20:51Z</time>
      </trkpt>
      <trkpt lat="44.47207" lon="4.0558">
        <ele>348.1</ele>
        <time>2014-05-31T08:20:58Z</time>
      </trkpt>
      <trkpt lat="44.47231" lon="4.05597">
        <ele>349.6</ele>
        <time>2014-05-31T08:21:06Z</time>
      </trkpt>
      <trkpt lat="44.47256" lon="4.05575">
        <ele>352.3</ele>
        <time>2014-05-31T08:21:15Z</time>
      </trkpt>
      <trkpt lat="44.47275" lon="4.05545">
        <ele>353</ele>
        <time>2014-05-31T08:21:22Z</time>
      </trkpt>
      <trkpt lat="44.473" lon="4.05526">
        <ele>353.8</ele>
        <time>2014-05-31T08:21:30Z</time>
      </trkpt>
      <trkpt lat="44.47327" lon="4.05516">
        <ele>354.3</ele>
        <time>2014-05-31T08:21:38Z</time>
      </trkpt>
      <trkpt lat="44.47358" lon="4.05512">
        <ele>354.8</ele>
        <time>2014-05-31T08:21:46Z</time>
      </trkpt>
      <trkpt lat="44.4739" lon="4.05511">
        <ele>355.1</ele>
        <time>2014-05-31T08:21:54Z</time>
      </trkpt>
      <trkpt lat="44.47421" lon="4.05506">
        <ele>355.7</ele>
        <time>2014-05-31T08:22:03Z</time>
      </trkpt>
      <trkpt lat="44.47452" lon="4.05501">
        <ele>356</ele>
        <time>2014-05-31T08:22:12Z</time>
      </trkpt>
      <trkpt lat="44.47481" lon="4.05514">
        <ele>356.3</ele>
        <time>2014-05-31T08:22:20Z</time>
      </trkpt>
      <trkpt lat="44.4751" lon="4.0552">
        <ele>365.9</ele>
        <time>2014-05-31T08:22:29Z</time>
      </trkpt>
      <trkpt lat="44.47523" lon="4.05489">
        <ele>368.6</ele>
        <time>2014-05-31T08:22:37Z</time>
      </trkpt>
      <trkpt lat="44.47531" lon="4.05458">
        <ele>370.5</ele>
        <time>2014-05-31T08:22:43Z</time>
      </trkpt>
      <trkpt lat="44.47554" lon="4.05446">
        <ele>372.2</ele>
        <time>2014-05-31T08:22:50Z</time>
      </trkpt>
      <trkpt lat="44.47582" lon="4.05467">
        <ele>372.7</ele>
        <time>2014-05-31T08:22:58Z</time>
      </trkpt>
      <trkpt lat="44.47612" lon="4.05472">
        <ele>373.8</ele>
        <time>2014-05-31T08:23:06Z</time>
      </trkpt>
      <trkpt lat="44.47642" lon="4.05467">
        <ele>374</ele>
        <time>2014-05-31T08:23:14Z</time>
      </trkpt>
      <trkpt lat="44.47666" lon="4.05488">
        <ele>375</ele>
        <time>2014-05-31T08:23:21Z</time>
      </trkpt>
      <trkpt lat="44.47682" lon="4.05517">
        <ele>375.8</ele>
        <time>2014-05-31T08:23:27Z</time>
      </trkpt>
      <trkpt lat="44.47696" lon="4.05549">
        <ele>376.1</ele>
        <time>2014-05-31T08:23:34Z</time>
      </trkpt>
      <trkpt lat="44.47706" lon="4.05581">
        <ele>376.7</ele>
        <time>2014-05-31T08:23:42Z</time>
      </trkpt>
      <trkpt lat="44.47729" lon="4.05594">
        <ele>377.9</ele>
        <time>2014-05-31T08:23:53Z</time>
      </trkpt>
      <trkpt lat="44.47757" lon="4.05575">
        <ele>381.3</ele>
        <time>2014-05-31T08:24:03Z</time>
      </trkpt>
      <trkpt lat="44.47784" lon="4.05556">
        <ele>384.1</ele>
        <time>2014-05-31T08:24:14Z</time>
      </trkpt>
      <trkpt lat="44.47809" lon="4.05535">
        <ele>388.1</ele>
        <time>2014-05-31T08:24:24Z</time>
      </trkpt>
      <trkpt lat="44.47838" lon="4.05518">
        <ele>390.5</ele>
        <time>2014-05-31T08:24:34Z</time>
      </trkpt>
      <trkpt lat="44.47862" lon="4.05495">
        <ele>392.3</ele>
        <time>2014-05-31T08:24:43Z</time>
      </trkpt>
      <trkpt lat="44.47869" lon="4.05469">
        <ele>393</ele>
        <time>2014-05-31T08:24:48Z</time>
      </trkpt>
      <trkpt lat="44.47877" lon="4.05454">
        <ele>394.2</ele>
        <time>2014-05-31T08:24:53Z</time>
      </trkpt>
      <trkpt lat="44.47891" lon="4.0545">
        <ele>393.8</ele>
        <time>2014-05-31T08:24:57Z</time>
      </trkpt>
      <trkpt lat="44.47905" lon="4.05448">
        <ele>394.2</ele>
        <time>2014-05-31T08:25:01Z</time>
      </trkpt>
      <trkpt lat="44.4792" lon="4.05444">
        <ele>394.3</ele>
        <time>2014-05-31T08:25:05Z</time>
      </trkpt>
      <trkpt lat="44.47934" lon="4.05448">
        <ele>394.3</ele>
        <time>2014-05-31T08:25:08Z</time>
      </trkpt>
      <trkpt lat="44.47949" lon="4.05459">
        <ele>394.4</ele>
        <time>2014-05-31T08:25:13Z</time>
      </trkpt>
      <trkpt lat="44.47964" lon="4.05458">
        <ele>394.6</ele>
        <time>2014-05-31T08:25:18Z</time>
      </trkpt>
      <trkpt lat="44.4798" lon="4.05455">
        <ele>395.3</ele>
        <time>2014-05-31T08:25:23Z</time>
      </trkpt>
      <trkpt lat="44.47996" lon="4.05453">
        <ele>396.3</ele>
        <time>2014-05-31T08:25:28Z</time>
      </trkpt>
      <trkpt lat="44.48013" lon="4.05449">
        <ele>397</ele>
        <time>2014-05-31T08:25:33Z</time>
      </trkpt>
      <trkpt lat="44.4803" lon="4.05444">
        <ele>396.9</ele>
        <time>2014-05-31T08:25:38Z</time>
      </trkpt>
      <trkpt lat="44.48047" lon="4.0544">
        <ele>397</ele>
        <time>2014-05-31T08:25:43Z</time>
      </trkpt>
      <trkpt lat="44.48063" lon="4.05433">
        <ele>397.3</ele>
        <time>2014-05-31T08:25:48Z</time>
      </trkpt>
      <trkpt lat="44.48079" lon="4.05427">
        <ele>398.4</ele>
        <time>2014-05-31T08:25:53Z</time>
      </trkpt>
      <trkpt lat="44.48096" lon="4.05424">
        <ele>398.5</ele>
        <time>2014-05-31T08:25:58Z</time>
      </trkpt>
      <trkpt lat="44.48112" lon="4.0542">
        <ele>399.6</ele>
        <time>2014-05-31T08:26:03Z</time>
      </trkpt>
      <trkpt lat="44.48128" lon="4.05416">
        <ele>400.6</ele>
        <time>2014-05-31T08:26:08Z</time>
      </trkpt>
      <trkpt lat="44.48144" lon="4.05412">
        <ele>401</ele>
        <time>2014-05-31T08:26:13Z</time>
      </trkpt>
      <trkpt lat="44.4816" lon="4.05407">
        <ele>401.5</ele>
        <time>2014-05-31T08:26:17Z</time>
      </trkpt>
      <trkpt lat="44.48176" lon="4.05403">
        <ele>401.5</ele>
        <time>2014-05-31T08:26:22Z</time>
      </trkpt>
      <trkpt lat="44.48192" lon="4.054">
        <ele>402.6</ele>
        <time>2014-05-31T08:26:26Z</time>
      </trkpt>
      <trkpt lat="44.48207" lon="4.05398">
        <ele>403.1</ele>
        <time>2014-05-31T08:26:31Z</time>
      </trkpt>
      <trkpt lat="44.48222" lon="4.05393">
        <ele>403.5</ele>
        <time>2014-05-31T08:26:36Z</time>
      </trkpt>
      <trkpt lat="44.48237" lon="4.05391">
        <ele>403.9</ele>
        <time>2014-05-31T08:26:41Z</time>
      </trkpt>
      <trkpt lat="44.48252" lon="4.05389">
        <ele>404.5</ele>
        <time>2014-05-31T08:26:46Z</time>
      </trkpt>
      <trkpt lat="44.48267" lon="4.05387">
        <ele>407.8</ele>
        <time>2014-05-31T08:26:51Z</time>
      </trkpt>
      <trkpt lat="44.48282" lon="4.05385">
        <ele>410.4</ele>
        <time>2014-05-31T08:26:58Z</time>
      </trkpt>
      <trkpt lat="44.48291" lon="4.05395">
        <ele>412.3</ele>
        <time>2014-05-31T08:27:03Z</time>
      </trkpt>
      <trkpt lat="44.48272" lon="4.05365">
        <ele>415.5</ele>
        <time>2014-05-31T08:33:07Z</time>
      </trkpt>
      <trkpt lat="44.4827" lon="4.05349">
        <ele>415.3</ele>
        <time>2014-05-31T08:33:10Z</time>
      </trkpt>
      <trkpt lat="44.48273" lon="4.05333">
        <ele>414.5</ele>
        <time>2014-05-31T08:33:13Z</time>
      </trkpt>
      <trkpt lat="44.48275" lon="4.05315">
        <ele>414.3</ele>
        <time>2014-05-31T08:33:16Z</time>
      </trkpt>
      <trkpt lat="44.4828" lon="4.05297">
        <ele>413.5</ele>
        <time>2014-05-31T08:33:19Z</time>
      </trkpt>
      <trkpt lat="44.48289" lon="4.05282">
        <ele>412</ele>
        <time>2014-05-31T08:33:22Z</time>
      </trkpt>
      <trkpt lat="44.48301" lon="4.05273">
        <ele>412.8</ele>
        <time>2014-05-31T08:33:26Z</time>
      </trkpt>
      <trkpt lat="44.48317" lon="4.05285">
        <ele>406.7</ele>
        <time>2014-05-31T08:33:29Z</time>
      </trkpt>
      <trkpt lat="44.48323" lon="4.05282">
        <ele>400.3</ele>
        <time>2014-05-31T08:34:23Z</time>
      </trkpt>
      <trkpt lat="44.48327" lon="4.05311">
        <ele>399.4</ele>
        <time>2014-05-31T08:35:27Z</time>
      </trkpt>
      <trkpt lat="44.48341" lon="4.05318">
        <ele>400.1</ele>
        <time>2014-05-31T08:35:32Z</time>
      </trkpt>
      <trkpt lat="44.48357" lon="4.05313">
        <ele>400.3</ele>
        <time>2014-05-31T08:35:37Z</time>
      </trkpt>
      <trkpt lat="44.48369" lon="4.05301">
        <ele>401.3</ele>
        <time>2014-05-31T08:35:42Z</time>
      </trkpt>
      <trkpt lat="44.48381" lon="4.0529">
        <ele>402.5</ele>
        <time>2014-05-31T08:35:45Z</time>
      </trkpt>
      <trkpt lat="44.48392" lon="4.05279">
        <ele>403.7</ele>
        <time>2014-05-31T08:35:50Z</time>
      </trkpt>
      <trkpt lat="44.48404" lon="4.05269">
        <ele>404.2</ele>
        <time>2014-05-31T08:35:54Z</time>
      </trkpt>
      <trkpt lat="44.48419" lon="4.05265">
        <ele>404.1</ele>
        <time>2014-05-31T08:35:58Z</time>
      </trkpt>
      <trkpt lat="44.48435" lon="4.05267">
        <ele>404.4</ele>
        <time>2014-05-31T08:36:03Z</time>
      </trkpt>
      <trkpt lat="44.48446" lon="4.05281">
        <ele>404</ele>
        <time>2014-05-31T08:36:08Z</time>
      </trkpt>
      <trkpt lat="44.48448" lon="4.05298">
        <ele>402.8</ele>
        <time>2014-05-31T08:36:11Z</time>
      </trkpt>
      <trkpt lat="44.48452" lon="4.05314">
        <ele>402</ele>
        <time>2014-05-31T08:36:14Z</time>
      </trkpt>
      <trkpt lat="44.48454" lon="4.0533">
        <ele>401.8</ele>
        <time>2014-05-31T08:36:17Z</time>
      </trkpt>
      <trkpt lat="44.48456" lon="4.05346">
        <ele>401.8</ele>
        <time>2014-05-31T08:36:20Z</time>
      </trkpt>
      <trkpt lat="44.48466" lon="4.05355">
        <ele>401.5</ele>
        <time>2014-05-31T08:36:23Z</time>
      </trkpt>
      <trkpt lat="44.48482" lon="4.05356">
        <ele>402.3</ele>
        <time>2014-05-31T08:36:28Z</time>
      </trkpt>
      <trkpt lat="44.48498" lon="4.05353">
        <ele>402.8</ele>
        <time>2014-05-31T08:36:32Z</time>
      </trkpt>
      <trkpt lat="44.48513" lon="4.05346">
        <ele>403.7</ele>
        <time>2014-05-31T08:36:37Z</time>
      </trkpt>
      <trkpt lat="44.48529" lon="4.05342">
        <ele>404.5</ele>
        <time>2014-05-31T08:36:41Z</time>
      </trkpt>
      <trkpt lat="44.48545" lon="4.05346">
        <ele>405.7</ele>
        <time>2014-05-31T08:36:46Z</time>
      </trkpt>
      <trkpt lat="44.48559" lon="4.05351">
        <ele>406</ele>
        <time>2014-05-31T08:36:50Z</time>
      </trkpt>
      <trkpt lat="44.48572" lon="4.0536">
        <ele>406</ele>
        <time>2014-05-31T08:36:54Z</time>
      </trkpt>
      <trkpt lat="44.48585" lon="4.05367">
        <ele>406</ele>
        <time>2014-05-31T08:36:58Z</time>
      </trkpt>
      <trkpt lat="44.486" lon="4.0537">
        <ele>406.6</ele>
        <time>2014-05-31T08:37:02Z</time>
      </trkpt>
      <trkpt lat="44.48616" lon="4.05364">
        <ele>407.6</ele>
        <time>2014-05-31T08:37:07Z</time>
      </trkpt>
      <trkpt lat="44.4863" lon="4.05355">
        <ele>408.8</ele>
        <time>2014-05-31T08:37:12Z</time>
      </trkpt>
      <trkpt lat="44.48644" lon="4.05348">
        <ele>410.8</ele>
        <time>2014-05-31T08:37:16Z</time>
      </trkpt>
      <trkpt lat="44.4866" lon="4.05349">
        <ele>412</ele>
        <time>2014-05-31T08:37:19Z</time>
      </trkpt>
      <trkpt lat="44.48676" lon="4.05347">
        <ele>412.8</ele>
        <time>2014-05-31T08:37:24Z</time>
      </trkpt>
      <trkpt lat="44.48692" lon="4.05344">
        <ele>413.3</ele>
        <time>2014-05-31T08:37:29Z</time>
      </trkpt>
      <trkpt lat="44.48705" lon="4.05338">
        <ele>413.8</ele>
        <time>2014-05-31T08:37:32Z</time>
      </trkpt>
      <trkpt lat="44.48716" lon="4.05329">
        <ele>415.2</ele>
        <time>2014-05-31T08:37:37Z</time>
      </trkpt>
      <trkpt lat="44.48727" lon="4.05318">
        <ele>416</ele>
        <time>2014-05-31T08:37:41Z</time>
      </trkpt>
      <trkpt lat="44.48739" lon="4.05307">
        <ele>416.5</ele>
        <time>2014-05-31T08:37:45Z</time>
      </trkpt>
      <trkpt lat="44.48754" lon="4.05298">
        <ele>417</ele>
        <time>2014-05-31T08:37:50Z</time>
      </trkpt>
      <trkpt lat="44.4877" lon="4.05295">
        <ele>417.1</ele>
        <time>2014-05-31T08:37:55Z</time>
      </trkpt>
      <trkpt lat="44.48787" lon="4.05292">
        <ele>418</ele>
        <time>2014-05-31T08:38:00Z</time>
      </trkpt>
      <trkpt lat="44.48804" lon="4.05287">
        <ele>419</ele>
        <time>2014-05-31T08:38:05Z</time>
      </trkpt>
      <trkpt lat="44.4882" lon="4.05281">
        <ele>420.4</ele>
        <time>2014-05-31T08:38:10Z</time>
      </trkpt>
      <trkpt lat="44.48835" lon="4.05276">
        <ele>422.3</ele>
        <time>2014-05-31T08:38:15Z</time>
      </trkpt>
      <trkpt lat="44.48852" lon="4.05273">
        <ele>423.2</ele>
        <time>2014-05-31T08:38:20Z</time>
      </trkpt>
      <trkpt lat="44.48868" lon="4.05271">
        <ele>423.9</ele>
        <time>2014-05-31T08:38:24Z</time>
      </trkpt>
      <trkpt lat="44.48883" lon="4.05266">
        <ele>424.6</ele>
        <time>2014-05-31T08:38:29Z</time>
      </trkpt>
      <trkpt lat="44.48898" lon="4.05261">
        <ele>425.2</ele>
        <time>2014-05-31T08:38:34Z</time>
      </trkpt>
      <trkpt lat="44.48914" lon="4.05257">
        <ele>426</ele>
        <time>2014-05-31T08:38:38Z</time>
      </trkpt>
      <trkpt lat="44.4893" lon="4.05256">
        <ele>426</ele>
        <time>2014-05-31T08:38:42Z</time>
      </trkpt>
      <trkpt lat="44.48946" lon="4.05255">
        <ele>425.5</ele>
        <time>2014-05-31T08:38:46Z</time>
      </trkpt>
      <trkpt lat="44.4896" lon="4.05245">
        <ele>426.2</ele>
        <time>2014-05-31T08:38:49Z</time>
      </trkpt>
      <trkpt lat="44.48974" lon="4.05236">
        <ele>426.5</ele>
        <time>2014-05-31T08:38:54Z</time>
      </trkpt>
      <trkpt lat="44.48986" lon="4.05227">
        <ele>427</ele>
        <time>2014-05-31T08:38:58Z</time>
      </trkpt>
      <trkpt lat="44.48997" lon="4.05216">
        <ele>428.3</ele>
        <time>2014-05-31T08:39:02Z</time>
      </trkpt>
      <trkpt lat="44.49006" lon="4.05204">
        <ele>430</ele>
        <time>2014-05-31T08:39:07Z</time>
      </trkpt>
      <trkpt lat="44.49012" lon="4.05188">
        <ele>429.9</ele>
        <time>2014-05-31T08:39:12Z</time>
      </trkpt>
      <trkpt lat="44.49017" lon="4.05172">
        <ele>431</ele>
        <time>2014-05-31T08:39:17Z</time>
      </trkpt>
      <trkpt lat="44.4902" lon="4.05155">
        <ele>431.5</ele>
        <time>2014-05-31T08:39:22Z</time>
      </trkpt>
      <trkpt lat="44.49022" lon="4.05141">
        <ele>432.9</ele>
        <time>2014-05-31T08:39:27Z</time>
      </trkpt>
      <trkpt lat="44.49029" lon="4.05125">
        <ele>433.4</ele>
        <time>2014-05-31T08:39:32Z</time>
      </trkpt>
      <trkpt lat="44.49038" lon="4.0511">
        <ele>432.9</ele>
        <time>2014-05-31T08:39:37Z</time>
      </trkpt>
      <trkpt lat="44.49045" lon="4.05096">
        <ele>433.3</ele>
        <time>2014-05-31T08:39:42Z</time>
      </trkpt>
      <trkpt lat="44.49055" lon="4.05083">
        <ele>433.5</ele>
        <time>2014-05-31T08:39:46Z</time>
      </trkpt>
      <trkpt lat="44.49065" lon="4.0507">
        <ele>433.1</ele>
        <time>2014-05-31T08:39:51Z</time>
      </trkpt>
      <trkpt lat="44.49074" lon="4.05055">
        <ele>433.6</ele>
        <time>2014-05-31T08:39:56Z</time>
      </trkpt>
      <trkpt lat="44.49077" lon="4.05039">
        <ele>434</ele>
        <time>2014-05-31T08:40:01Z</time>
      </trkpt>
      <trkpt lat="44.49076" lon="4.05022">
        <ele>434.5</ele>
        <time>2014-05-31T08:40:06Z</time>
      </trkpt>
      <trkpt lat="44.49075" lon="4.05007">
        <ele>434.9</ele>
        <time>2014-05-31T08:40:11Z</time>
      </trkpt>
      <trkpt lat="44.4907" lon="4.04992">
        <ele>435.6</ele>
        <time>2014-05-31T08:40:16Z</time>
      </trkpt>
      <trkpt lat="44.49065" lon="4.04977">
        <ele>436</ele>
        <time>2014-05-31T08:40:21Z</time>
      </trkpt>
      <trkpt lat="44.49059" lon="4.04962">
        <ele>436.8</ele>
        <time>2014-05-31T08:40:26Z</time>
      </trkpt>
      <trkpt lat="44.49058" lon="4.04947">
        <ele>438</ele>
        <time>2014-05-31T08:40:31Z</time>
      </trkpt>
      <trkpt lat="44.49066" lon="4.04931">
        <ele>439.3</ele>
        <time>2014-05-31T08:40:36Z</time>
      </trkpt>
      <trkpt lat="44.49074" lon="4.04916">
        <ele>440.3</ele>
        <time>2014-05-31T08:40:40Z</time>
      </trkpt>
      <trkpt lat="44.4908" lon="4.04905">
        <ele>441.2</ele>
        <time>2014-05-31T08:40:43Z</time>
      </trkpt>
      <trkpt lat="44.49088" lon="4.04892">
        <ele>442.5</ele>
        <time>2014-05-31T08:40:48Z</time>
      </trkpt>
      <trkpt lat="44.49096" lon="4.04878">
        <ele>442.6</ele>
        <time>2014-05-31T08:40:53Z</time>
      </trkpt>
      <trkpt lat="44.49105" lon="4.04863">
        <ele>442.6</ele>
        <time>2014-05-31T08:40:58Z</time>
      </trkpt>
      <trkpt lat="44.49115" lon="4.0485">
        <ele>443.6</ele>
        <time>2014-05-31T08:41:03Z</time>
      </trkpt>
      <trkpt lat="44.49127" lon="4.04842">
        <ele>445.2</ele>
        <time>2014-05-31T08:41:08Z</time>
      </trkpt>
      <trkpt lat="44.49142" lon="4.04836">
        <ele>446.9</ele>
        <time>2014-05-31T08:41:14Z</time>
      </trkpt>
      <trkpt lat="44.49155" lon="4.04827">
        <ele>447.5</ele>
        <time>2014-05-31T08:41:19Z</time>
      </trkpt>
      <trkpt lat="44.49166" lon="4.04816">
        <ele>448.3</ele>
        <time>2014-05-31T08:41:24Z</time>
      </trkpt>
      <trkpt lat="44.49173" lon="4.04802">
        <ele>449.3</ele>
        <time>2014-05-31T08:41:28Z</time>
      </trkpt>
      <trkpt lat="44.49178" lon="4.04785">
        <ele>449.8</ele>
        <time>2014-05-31T08:41:32Z</time>
      </trkpt>
      <trkpt lat="44.49184" lon="4.04768">
        <ele>450.5</ele>
        <time>2014-05-31T08:41:35Z</time>
      </trkpt>
      <trkpt lat="44.49191" lon="4.04753">
        <ele>450.8</ele>
        <time>2014-05-31T08:41:40Z</time>
      </trkpt>
      <trkpt lat="44.49199" lon="4.0474">
        <ele>452.4</ele>
        <time>2014-05-31T08:41:44Z</time>
      </trkpt>
      <trkpt lat="44.4921" lon="4.04728">
        <ele>453.3</ele>
        <time>2014-05-31T08:41:49Z</time>
      </trkpt>
      <trkpt lat="44.49224" lon="4.04721">
        <ele>454.6</ele>
        <time>2014-05-31T08:41:54Z</time>
      </trkpt>
      <trkpt lat="44.49238" lon="4.04717">
        <ele>456.5</ele>
        <time>2014-05-31T08:41:59Z</time>
      </trkpt>
      <trkpt lat="44.49254" lon="4.04715">
        <ele>457.5</ele>
        <time>2014-05-31T08:42:06Z</time>
      </trkpt>
      <trkpt lat="44.49264" lon="4.04706">
        <ele>456.9</ele>
        <time>2014-05-31T08:42:11Z</time>
      </trkpt>
      <trkpt lat="44.49262" lon="4.04689">
        <ele>457.5</ele>
        <time>2014-05-31T08:42:16Z</time>
      </trkpt>
      <trkpt lat="44.49257" lon="4.04676">
        <ele>457.5</ele>
        <time>2014-05-31T08:42:21Z</time>
      </trkpt>
      <trkpt lat="44.49248" lon="4.04662">
        <ele>457.5</ele>
        <time>2014-05-31T08:42:26Z</time>
      </trkpt>
      <trkpt lat="44.49239" lon="4.04648">
        <ele>457.5</ele>
        <time>2014-05-31T08:42:31Z</time>
      </trkpt>
      <trkpt lat="44.49232" lon="4.04634">
        <ele>458</ele>
        <time>2014-05-31T08:42:35Z</time>
      </trkpt>
      <trkpt lat="44.49228" lon="4.04617">
        <ele>458.5</ele>
        <time>2014-05-31T08:42:38Z</time>
      </trkpt>
      <trkpt lat="44.49227" lon="4.046">
        <ele>458.5</ele>
        <time>2014-05-31T08:42:42Z</time>
      </trkpt>
      <trkpt lat="44.49226" lon="4.04583">
        <ele>459.5</ele>
        <time>2014-05-31T08:42:45Z</time>
      </trkpt>
      <trkpt lat="44.49224" lon="4.04565">
        <ele>459.7</ele>
        <time>2014-05-31T08:42:50Z</time>
      </trkpt>
      <trkpt lat="44.49226" lon="4.04548">
        <ele>460.8</ele>
        <time>2014-05-31T08:42:53Z</time>
      </trkpt>
      <trkpt lat="44.4923" lon="4.04532">
        <ele>461.5</ele>
        <time>2014-05-31T08:42:56Z</time>
      </trkpt>
      <trkpt lat="44.49236" lon="4.04517">
        <ele>462.3</ele>
        <time>2014-05-31T08:42:59Z</time>
      </trkpt>
      <trkpt lat="44.49244" lon="4.04502">
        <ele>463.5</ele>
        <time>2014-05-31T08:43:03Z</time>
      </trkpt>
      <trkpt lat="44.49254" lon="4.04489">
        <ele>463.7</ele>
        <time>2014-05-31T08:43:07Z</time>
      </trkpt>
      <trkpt lat="44.49262" lon="4.04474">
        <ele>464.5</ele>
        <time>2014-05-31T08:43:10Z</time>
      </trkpt>
      <trkpt lat="44.4927" lon="4.04459">
        <ele>465.5</ele>
        <time>2014-05-31T08:43:15Z</time>
      </trkpt>
      <trkpt lat="44.49279" lon="4.04445">
        <ele>466.3</ele>
        <time>2014-05-31T08:43:19Z</time>
      </trkpt>
      <trkpt lat="44.49288" lon="4.04431">
        <ele>466.7</ele>
        <time>2014-05-31T08:43:22Z</time>
      </trkpt>
      <trkpt lat="44.49297" lon="4.04419">
        <ele>467</ele>
        <time>2014-05-31T08:43:27Z</time>
      </trkpt>
      <trkpt lat="44.49304" lon="4.04406">
        <ele>467</ele>
        <time>2014-05-31T08:43:31Z</time>
      </trkpt>
      <trkpt lat="44.49309" lon="4.0439">
        <ele>467.5</ele>
        <time>2014-05-31T08:43:35Z</time>
      </trkpt>
      <trkpt lat="44.49314" lon="4.04372">
        <ele>468.7</ele>
        <time>2014-05-31T08:43:39Z</time>
      </trkpt>
      <trkpt lat="44.49319" lon="4.04357">
        <ele>469.3</ele>
        <time>2014-05-31T08:43:42Z</time>
      </trkpt>
      <trkpt lat="44.49325" lon="4.04342">
        <ele>469.7</ele>
        <time>2014-05-31T08:43:47Z</time>
      </trkpt>
      <trkpt lat="44.49332" lon="4.04326">
        <ele>469.7</ele>
        <time>2014-05-31T08:43:51Z</time>
      </trkpt>
      <trkpt lat="44.49341" lon="4.04311">
        <ele>470.8</ele>
        <time>2014-05-31T08:43:54Z</time>
      </trkpt>
      <trkpt lat="44.49349" lon="4.04299">
        <ele>471.7</ele>
        <time>2014-05-31T08:43:59Z</time>
      </trkpt>
      <trkpt lat="44.49358" lon="4.04287">
        <ele>471.7</ele>
        <time>2014-05-31T08:44:03Z</time>
      </trkpt>
      <trkpt lat="44.49367" lon="4.04275">
        <ele>472</ele>
        <time>2014-05-31T08:44:07Z</time>
      </trkpt>
      <trkpt lat="44.49376" lon="4.04263">
        <ele>472.8</ele>
        <time>2014-05-31T08:44:11Z</time>
      </trkpt>
      <trkpt lat="44.49386" lon="4.04249">
        <ele>472.7</ele>
        <time>2014-05-31T08:44:14Z</time>
      </trkpt>
      <trkpt lat="44.49394" lon="4.04233">
        <ele>473.2</ele>
        <time>2014-05-31T08:44:19Z</time>
      </trkpt>
      <trkpt lat="44.49403" lon="4.04217">
        <ele>473.5</ele>
        <time>2014-05-31T08:44:23Z</time>
      </trkpt>
      <trkpt lat="44.49413" lon="4.04204">
        <ele>474.3</ele>
        <time>2014-05-31T08:44:27Z</time>
      </trkpt>
      <trkpt lat="44.49426" lon="4.04195">
        <ele>473.9</ele>
        <time>2014-05-31T08:44:32Z</time>
      </trkpt>
      <trkpt lat="44.49441" lon="4.04203">
        <ele>473.7</ele>
        <time>2014-05-31T08:44:37Z</time>
      </trkpt>
      <trkpt lat="44.49451" lon="4.04216">
        <ele>475</ele>
        <time>2014-05-31T08:44:41Z</time>
      </trkpt>
      <trkpt lat="44.49462" lon="4.04228">
        <ele>474.1</ele>
        <time>2014-05-31T08:44:45Z</time>
      </trkpt>
      <trkpt lat="44.49468" lon="4.04242">
        <ele>473.5</ele>
        <time>2014-05-31T08:44:49Z</time>
      </trkpt>
      <trkpt lat="44.4947" lon="4.0426">
        <ele>472.8</ele>
        <time>2014-05-31T08:44:52Z</time>
      </trkpt>
      <trkpt lat="44.49463" lon="4.04273">
        <ele>473.5</ele>
        <time>2014-05-31T08:44:57Z</time>
      </trkpt>
      <trkpt lat="44.49453" lon="4.04284">
        <ele>473.5</ele>
        <time>2014-05-31T08:45:01Z</time>
      </trkpt>
      <trkpt lat="44.49447" lon="4.043">
        <ele>473.5</ele>
        <time>2014-05-31T08:45:04Z</time>
      </trkpt>
      <trkpt lat="44.49443" lon="4.04317">
        <ele>473.5</ele>
        <time>2014-05-31T08:45:09Z</time>
      </trkpt>
      <trkpt lat="44.49438" lon="4.04335">
        <ele>473.7</ele>
        <time>2014-05-31T08:45:13Z</time>
      </trkpt>
      <trkpt lat="44.49434" lon="4.04351">
        <ele>473.7</ele>
        <time>2014-05-31T08:45:17Z</time>
      </trkpt>
      <trkpt lat="44.49429" lon="4.04366">
        <ele>474</ele>
        <time>2014-05-31T08:45:21Z</time>
      </trkpt>
      <trkpt lat="44.49425" lon="4.04381">
        <ele>474.2</ele>
        <time>2014-05-31T08:45:26Z</time>
      </trkpt>
      <trkpt lat="44.49421" lon="4.04396">
        <ele>474</ele>
        <time>2014-05-31T08:45:30Z</time>
      </trkpt>
      <trkpt lat="44.49419" lon="4.04412">
        <ele>474.5</ele>
        <time>2014-05-31T08:45:34Z</time>
      </trkpt>
      <trkpt lat="44.49418" lon="4.04427">
        <ele>474.3</ele>
        <time>2014-05-31T08:45:37Z</time>
      </trkpt>
      <trkpt lat="44.49416" lon="4.04444">
        <ele>475</ele>
        <time>2014-05-31T08:45:42Z</time>
      </trkpt>
      <trkpt lat="44.49413" lon="4.04458">
        <ele>475.3</ele>
        <time>2014-05-31T08:45:46Z</time>
      </trkpt>
      <trkpt lat="44.49406" lon="4.04472">
        <ele>476</ele>
        <time>2014-05-31T08:45:51Z</time>
      </trkpt>
      <trkpt lat="44.49397" lon="4.04486">
        <ele>476.5</ele>
        <time>2014-05-31T08:45:56Z</time>
      </trkpt>
      <trkpt lat="44.4939" lon="4.045">
        <ele>476.5</ele>
        <time>2014-05-31T08:46:01Z</time>
      </trkpt>
      <trkpt lat="44.49381" lon="4.04513">
        <ele>476.6</ele>
        <time>2014-05-31T08:46:06Z</time>
      </trkpt>
      <trkpt lat="44.49368" lon="4.04524">
        <ele>476.5</ele>
        <time>2014-05-31T08:46:11Z</time>
      </trkpt>
      <trkpt lat="44.49356" lon="4.04534">
        <ele>477.2</ele>
        <time>2014-05-31T08:46:15Z</time>
      </trkpt>
      <trkpt lat="44.4935" lon="4.04548">
        <ele>479</ele>
        <time>2014-05-31T08:46:20Z</time>
      </trkpt>
      <trkpt lat="44.49351" lon="4.04563">
        <ele>480.5</ele>
        <time>2014-05-31T08:46:25Z</time>
      </trkpt>
      <trkpt lat="44.49357" lon="4.04578">
        <ele>479.8</ele>
        <time>2014-05-31T08:46:28Z</time>
      </trkpt>
      <trkpt lat="44.49365" lon="4.04593">
        <ele>480.4</ele>
        <time>2014-05-31T08:46:33Z</time>
      </trkpt>
      <trkpt lat="44.49374" lon="4.04607">
        <ele>481.8</ele>
        <time>2014-05-31T08:46:38Z</time>
      </trkpt>
      <trkpt lat="44.49385" lon="4.04619">
        <ele>482.4</ele>
        <time>2014-05-31T08:46:43Z</time>
      </trkpt>
      <trkpt lat="44.49396" lon="4.0463">
        <ele>483</ele>
        <time>2014-05-31T08:46:48Z</time>
      </trkpt>
      <trkpt lat="44.49403" lon="4.04642">
        <ele>483.3</ele>
        <time>2014-05-31T08:46:52Z</time>
      </trkpt>
      <trkpt lat="44.4941" lon="4.04656">
        <ele>483.5</ele>
        <time>2014-05-31T08:46:57Z</time>
      </trkpt>
      <trkpt lat="44.49417" lon="4.0467">
        <ele>483.2</ele>
        <time>2014-05-31T08:47:00Z</time>
      </trkpt>
      <trkpt lat="44.49425" lon="4.04686">
        <ele>483.5</ele>
        <time>2014-05-31T08:47:05Z</time>
      </trkpt>
      <trkpt lat="44.49429" lon="4.04704">
        <ele>484.5</ele>
        <time>2014-05-31T08:47:09Z</time>
      </trkpt>
      <trkpt lat="44.4943" lon="4.04722">
        <ele>484.5</ele>
        <time>2014-05-31T08:47:12Z</time>
      </trkpt>
      <trkpt lat="44.49429" lon="4.04738">
        <ele>485</ele>
        <time>2014-05-31T08:47:16Z</time>
      </trkpt>
      <trkpt lat="44.49429" lon="4.04753">
        <ele>486</ele>
        <time>2014-05-31T08:47:19Z</time>
      </trkpt>
      <trkpt lat="44.49429" lon="4.04767">
        <ele>486.8</ele>
        <time>2014-05-31T08:47:22Z</time>
      </trkpt>
      <trkpt lat="44.49428" lon="4.04784">
        <ele>487.5</ele>
        <time>2014-05-31T08:47:25Z</time>
      </trkpt>
      <trkpt lat="44.49426" lon="4.04802">
        <ele>487.5</ele>
        <time>2014-05-31T08:47:30Z</time>
      </trkpt>
      <trkpt lat="44.49424" lon="4.04821">
        <ele>487.8</ele>
        <time>2014-05-31T08:47:34Z</time>
      </trkpt>
      <trkpt lat="44.49421" lon="4.04839">
        <ele>489</ele>
        <time>2014-05-31T08:47:37Z</time>
      </trkpt>
      <trkpt lat="44.49421" lon="4.04856">
        <ele>490</ele>
        <time>2014-05-31T08:47:42Z</time>
      </trkpt>
      <trkpt lat="44.49422" lon="4.04873">
        <ele>492.2</ele>
        <time>2014-05-31T08:47:46Z</time>
      </trkpt>
      <trkpt lat="44.49425" lon="4.04891">
        <ele>496.2</ele>
        <time>2014-05-31T08:47:50Z</time>
      </trkpt>
      <trkpt lat="44.49429" lon="4.04907">
        <ele>498.3</ele>
        <time>2014-05-31T08:47:54Z</time>
      </trkpt>
      <trkpt lat="44.49434" lon="4.04922">
        <ele>500.5</ele>
        <time>2014-05-31T08:47:57Z</time>
      </trkpt>
      <trkpt lat="44.49437" lon="4.04938">
        <ele>502.2</ele>
        <time>2014-05-31T08:48:02Z</time>
      </trkpt>
      <trkpt lat="44.49441" lon="4.04953">
        <ele>503.5</ele>
        <time>2014-05-31T08:48:06Z</time>
      </trkpt>
      <trkpt lat="44.49446" lon="4.04967">
        <ele>504.2</ele>
        <time>2014-05-31T08:48:09Z</time>
      </trkpt>
      <trkpt lat="44.49453" lon="4.04982">
        <ele>505.3</ele>
        <time>2014-05-31T08:48:14Z</time>
      </trkpt>
      <trkpt lat="44.49463" lon="4.04993">
        <ele>506.3</ele>
        <time>2014-05-31T08:48:19Z</time>
      </trkpt>
      <trkpt lat="44.49479" lon="4.05">
        <ele>506.8</ele>
        <time>2014-05-31T08:48:25Z</time>
      </trkpt>
      <trkpt lat="44.49495" lon="4.05004">
        <ele>507.7</ele>
        <time>2014-05-31T08:48:31Z</time>
      </trkpt>
      <trkpt lat="44.49512" lon="4.05007">
        <ele>509.8</ele>
        <time>2014-05-31T08:48:37Z</time>
      </trkpt>
      <trkpt lat="44.49528" lon="4.05009">
        <ele>510.8</ele>
        <time>2014-05-31T08:48:42Z</time>
      </trkpt>
      <trkpt lat="44.49542" lon="4.05011">
        <ele>511.6</ele>
        <time>2014-05-31T08:48:49Z</time>
      </trkpt>
      <trkpt lat="44.49548" lon="4.0503">
        <ele>512.5</ele>
        <time>2014-05-31T08:48:54Z</time>
      </trkpt>
      <trkpt lat="44.49541" lon="4.05045">
        <ele>513</ele>
        <time>2014-05-31T08:48:59Z</time>
      </trkpt>
      <trkpt lat="44.4953" lon="4.05057">
        <ele>513</ele>
        <time>2014-05-31T08:49:04Z</time>
      </trkpt>
      <trkpt lat="44.4952" lon="4.05068">
        <ele>513</ele>
        <time>2014-05-31T08:49:09Z</time>
      </trkpt>
      <trkpt lat="44.49507" lon="4.05077">
        <ele>513.5</ele>
        <time>2014-05-31T08:49:14Z</time>
      </trkpt>
      <trkpt lat="44.49493" lon="4.05085">
        <ele>513.6</ele>
        <time>2014-05-31T08:49:19Z</time>
      </trkpt>
      <trkpt lat="44.49478" lon="4.0509">
        <ele>513.9</ele>
        <time>2014-05-31T08:49:24Z</time>
      </trkpt>
      <trkpt lat="44.49463" lon="4.05091">
        <ele>514</ele>
        <time>2014-05-31T08:49:29Z</time>
      </trkpt>
      <trkpt lat="44.49447" lon="4.05092">
        <ele>513.5</ele>
        <time>2014-05-31T08:49:34Z</time>
      </trkpt>
      <trkpt lat="44.49432" lon="4.05092">
        <ele>513.5</ele>
        <time>2014-05-31T08:49:39Z</time>
      </trkpt>
      <trkpt lat="44.49416" lon="4.0509">
        <ele>513.9</ele>
        <time>2014-05-31T08:49:44Z</time>
      </trkpt>
      <trkpt lat="44.49402" lon="4.05085">
        <ele>513.9</ele>
        <time>2014-05-31T08:49:49Z</time>
      </trkpt>
      <trkpt lat="44.49387" lon="4.05076">
        <ele>513.5</ele>
        <time>2014-05-31T08:49:54Z</time>
      </trkpt>
      <trkpt lat="44.49374" lon="4.05063">
        <ele>513.5</ele>
        <time>2014-05-31T08:49:59Z</time>
      </trkpt>
      <trkpt lat="44.49366" lon="4.05049">
        <ele>513.5</ele>
        <time>2014-05-31T08:50:03Z</time>
      </trkpt>
      <trkpt lat="44.49355" lon="4.05036">
        <ele>514</ele>
        <time>2014-05-31T08:50:08Z</time>
      </trkpt>
      <trkpt lat="44.49341" lon="4.05031">
        <ele>514</ele>
        <time>2014-05-31T08:50:13Z</time>
      </trkpt>
      <trkpt lat="44.49326" lon="4.05035">
        <ele>514</ele>
        <time>2014-05-31T08:50:18Z</time>
      </trkpt>
      <trkpt lat="44.49312" lon="4.05038">
        <ele>514</ele>
        <time>2014-05-31T08:50:23Z</time>
      </trkpt>
      <trkpt lat="44.49296" lon="4.05042">
        <ele>514.2</ele>
        <time>2014-05-31T08:50:29Z</time>
      </trkpt>
      <trkpt lat="44.49284" lon="4.05049">
        <ele>515.3</ele>
        <time>2014-05-31T08:50:36Z</time>
      </trkpt>
      <trkpt lat="44.49283" lon="4.05063">
        <ele>517.2</ele>
        <time>2014-05-31T08:50:43Z</time>
      </trkpt>
      <trkpt lat="44.49286" lon="4.05078">
        <ele>520.1</ele>
        <time>2014-05-31T08:50:50Z</time>
      </trkpt>
      <trkpt lat="44.49289" lon="4.05094">
        <ele>521.5</ele>
        <time>2014-05-31T08:50:56Z</time>
      </trkpt>
      <trkpt lat="44.49296" lon="4.05107">
        <ele>525.3</ele>
        <time>2014-05-31T08:51:03Z</time>
      </trkpt>
      <trkpt lat="44.4931" lon="4.05118">
        <ele>530</ele>
        <time>2014-05-31T08:51:07Z</time>
      </trkpt>
      <trkpt lat="44.49321" lon="4.05122">
        <ele>533.9</ele>
        <time>2014-05-31T08:51:37Z</time>
      </trkpt>
      <trkpt lat="44.49332" lon="4.05132">
        <ele>538</ele>
        <time>2014-05-31T08:52:16Z</time>
      </trkpt>
      <trkpt lat="44.49344" lon="4.05138">
        <ele>539.5</ele>
        <time>2014-05-31T08:52:24Z</time>
      </trkpt>
      <trkpt lat="44.49358" lon="4.05145">
        <ele>540.7</ele>
        <time>2014-05-31T08:52:47Z</time>
      </trkpt>
      <trkpt lat="44.49372" lon="4.05152">
        <ele>544.8</ele>
        <time>2014-05-31T08:53:23Z</time>
      </trkpt>
      <trkpt lat="44.49386" lon="4.05156">
        <ele>547.3</ele>
        <time>2014-05-31T08:53:35Z</time>
      </trkpt>
      <trkpt lat="44.49396" lon="4.05163">
        <ele>547.8</ele>
        <time>2014-05-31T08:54:05Z</time>
      </trkpt>
      <trkpt lat="44.49359" lon="4.05152">
        <ele>546</ele>
        <time>2014-05-31T08:55:15Z</time>
      </trkpt>
      <trkpt lat="44.49346" lon="4.05144">
        <ele>545.6</ele>
        <time>2014-05-31T08:55:20Z</time>
      </trkpt>
      <trkpt lat="44.49334" lon="4.05134">
        <ele>544.8</ele>
        <time>2014-05-31T08:55:26Z</time>
      </trkpt>
      <trkpt lat="44.49322" lon="4.05125">
        <ele>544.3</ele>
        <time>2014-05-31T08:55:32Z</time>
      </trkpt>
      <trkpt lat="44.4932" lon="4.05113">
        <ele>544.7</ele>
        <time>2014-05-31T08:55:36Z</time>
      </trkpt>
      <trkpt lat="44.49336" lon="4.0516">
        <ele>531.5</ele>
        <time>2014-05-31T09:12:33Z</time>
      </trkpt>
      <trkpt lat="44.49343" lon="4.0517">
        <ele>530.2</ele>
        <time>2014-05-31T09:12:40Z</time>
      </trkpt>
      <trkpt lat="44.49356" lon="4.05185">
        <ele>530.8</ele>
        <time>2014-05-31T09:12:57Z</time>
      </trkpt>
      <trkpt lat="44.49365" lon="4.05198">
        <ele>529</ele>
        <time>2014-05-31T09:13:03Z</time>
      </trkpt>
      <trkpt lat="44.49379" lon="4.05208">
        <ele>528.4</ele>
        <time>2014-05-31T09:13:08Z</time>
      </trkpt>
      <trkpt lat="44.49392" lon="4.05219">
        <ele>527.6</ele>
        <time>2014-05-31T09:13:14Z</time>
      </trkpt>
      <trkpt lat="44.49402" lon="4.0523">
        <ele>525.6</ele>
        <time>2014-05-31T09:13:21Z</time>
      </trkpt>
      <trkpt lat="44.49411" lon="4.05242">
        <ele>523.6</ele>
        <time>2014-05-31T09:13:27Z</time>
      </trkpt>
      <trkpt lat="44.49422" lon="4.0526">
        <ele>523.6</ele>
        <time>2014-05-31T09:13:31Z</time>
      </trkpt>
      <trkpt lat="44.49424" lon="4.05269">
        <ele>523</ele>
        <time>2014-05-31T09:14:05Z</time>
      </trkpt>
      <trkpt lat="44.49425" lon="4.05282">
        <ele>521.8</ele>
        <time>2014-05-31T09:14:17Z</time>
      </trkpt>
      <trkpt lat="44.49425" lon="4.05299">
        <ele>521.4</ele>
        <time>2014-05-31T09:14:26Z</time>
      </trkpt>
      <trkpt lat="44.49425" lon="4.05316">
        <ele>520.3</ele>
        <time>2014-05-31T09:14:31Z</time>
      </trkpt>
      <trkpt lat="44.49423" lon="4.05333">
        <ele>520</ele>
        <time>2014-05-31T09:14:35Z</time>
      </trkpt>
      <trkpt lat="44.49415" lon="4.05339">
        <ele>519.3</ele>
        <time>2014-05-31T09:14:48Z</time>
      </trkpt>
      <trkpt lat="44.49406" lon="4.05323">
        <ele>518.8</ele>
        <time>2014-05-31T09:14:59Z</time>
      </trkpt>
      <trkpt lat="44.49391" lon="4.05317">
        <ele>518.4</ele>
        <time>2014-05-31T09:15:06Z</time>
      </trkpt>
      <trkpt lat="44.49375" lon="4.05319">
        <ele>518</ele>
        <time>2014-05-31T09:15:14Z</time>
      </trkpt>
      <trkpt lat="44.4936" lon="4.05322">
        <ele>517.2</ele>
        <time>2014-05-31T09:15:22Z</time>
      </trkpt>
      <trkpt lat="44.49343" lon="4.05324">
        <ele>515.7</ele>
        <time>2014-05-31T09:15:30Z</time>
      </trkpt>
      <trkpt lat="44.4933" lon="4.05328">
        <ele>514.4</ele>
        <time>2014-05-31T09:15:39Z</time>
      </trkpt>
      <trkpt lat="44.49315" lon="4.05327">
        <ele>513.8</ele>
        <time>2014-05-31T09:15:48Z</time>
      </trkpt>
      <trkpt lat="44.49299" lon="4.05327">
        <ele>511.2</ele>
        <time>2014-05-31T09:16:00Z</time>
      </trkpt>
      <trkpt lat="44.49284" lon="4.05325">
        <ele>508</ele>
        <time>2014-05-31T09:16:09Z</time>
      </trkpt>
      <trkpt lat="44.4927" lon="4.05326">
        <ele>505.1</ele>
        <time>2014-05-31T09:16:40Z</time>
      </trkpt>
      <trkpt lat="44.49253" lon="4.05328">
        <ele>500.3</ele>
        <time>2014-05-31T09:16:48Z</time>
      </trkpt>
      <trkpt lat="44.49249" lon="4.05327">
        <ele>499.3</ele>
        <time>2014-05-31T09:18:16Z</time>
      </trkpt>
      <trkpt lat="44.49219" lon="4.05346">
        <ele>499.5</ele>
        <time>2014-05-31T09:18:31Z</time>
      </trkpt>
      <trkpt lat="44.49212" lon="4.05359">
        <ele>500.6</ele>
        <time>2014-05-31T09:18:40Z</time>
      </trkpt>
      <trkpt lat="44.492" lon="4.0537">
        <ele>498.2</ele>
        <time>2014-05-31T09:19:02Z</time>
      </trkpt>
      <trkpt lat="44.49186" lon="4.0538">
        <ele>496.8</ele>
        <time>2014-05-31T09:19:10Z</time>
      </trkpt>
      <trkpt lat="44.49172" lon="4.05386">
        <ele>494.7</ele>
        <time>2014-05-31T09:19:18Z</time>
      </trkpt>
      <trkpt lat="44.49157" lon="4.05392">
        <ele>493.6</ele>
        <time>2014-05-31T09:19:24Z</time>
      </trkpt>
      <trkpt lat="44.49145" lon="4.05402">
        <ele>493</ele>
        <time>2014-05-31T09:19:29Z</time>
      </trkpt>
      <trkpt lat="44.49135" lon="4.05413">
        <ele>491.8</ele>
        <time>2014-05-31T09:19:34Z</time>
      </trkpt>
      <trkpt lat="44.49124" lon="4.05425">
        <ele>490.9</ele>
        <time>2014-05-31T09:19:40Z</time>
      </trkpt>
      <trkpt lat="44.49116" lon="4.0544">
        <ele>491.2</ele>
        <time>2014-05-31T09:19:44Z</time>
      </trkpt>
      <trkpt lat="44.49111" lon="4.05457">
        <ele>492.4</ele>
        <time>2014-05-31T09:19:49Z</time>
      </trkpt>
      <trkpt lat="44.49109" lon="4.05474">
        <ele>493.3</ele>
        <time>2014-05-31T09:19:55Z</time>
      </trkpt>
      <trkpt lat="44.49103" lon="4.05487">
        <ele>493.8</ele>
        <time>2014-05-31T09:20:03Z</time>
      </trkpt>
      <trkpt lat="44.49092" lon="4.05494">
        <ele>493.6</ele>
        <time>2014-05-31T09:20:12Z</time>
      </trkpt>
      <trkpt lat="44.49077" lon="4.05501">
        <ele>493.1</ele>
        <time>2014-05-31T09:20:22Z</time>
      </trkpt>
      <trkpt lat="44.49064" lon="4.05512">
        <ele>494.4</ele>
        <time>2014-05-31T09:20:33Z</time>
      </trkpt>
      <trkpt lat="44.49054" lon="4.05516">
        <ele>495.8</ele>
        <time>2014-05-31T09:20:46Z</time>
      </trkpt>
      <trkpt lat="44.49037" lon="4.05521">
        <ele>495.2</ele>
        <time>2014-05-31T09:20:54Z</time>
      </trkpt>
      <trkpt lat="44.4902" lon="4.05525">
        <ele>492.9</ele>
        <time>2014-05-31T09:21:01Z</time>
      </trkpt>
      <trkpt lat="44.49009" lon="4.05531">
        <ele>492.4</ele>
        <time>2014-05-31T09:21:13Z</time>
      </trkpt>
      <trkpt lat="44.48997" lon="4.05538">
        <ele>494.3</ele>
        <time>2014-05-31T09:21:27Z</time>
      </trkpt>
      <trkpt lat="44.48985" lon="4.05546">
        <ele>495.5</ele>
        <time>2014-05-31T09:21:40Z</time>
      </trkpt>
      <trkpt lat="44.48977" lon="4.0556">
        <ele>497.8</ele>
        <time>2014-05-31T09:21:52Z</time>
      </trkpt>
      <trkpt lat="44.48975" lon="4.05574">
        <ele>499.3</ele>
        <time>2014-05-31T09:22:03Z</time>
      </trkpt>
      <trkpt lat="44.48978" lon="4.05586">
        <ele>499</ele>
        <time>2014-05-31T09:22:16Z</time>
      </trkpt>
      <trkpt lat="44.48986" lon="4.05605">
        <ele>498.9</ele>
        <time>2014-05-31T09:22:26Z</time>
      </trkpt>
      <trkpt lat="44.48992" lon="4.05619">
        <ele>498.7</ele>
        <time>2014-05-31T09:22:31Z</time>
      </trkpt>
      <trkpt lat="44.48999" lon="4.05633">
        <ele>498.8</ele>
        <time>2014-05-31T09:22:37Z</time>
      </trkpt>
      <trkpt lat="44.49007" lon="4.05647">
        <ele>498.5</ele>
        <time>2014-05-31T09:22:43Z</time>
      </trkpt>
      <trkpt lat="44.49015" lon="4.05663">
        <ele>498</ele>
        <time>2014-05-31T09:22:49Z</time>
      </trkpt>
      <trkpt lat="44.49021" lon="4.05675">
        <ele>498.1</ele>
        <time>2014-05-31T09:22:54Z</time>
      </trkpt>
      <trkpt lat="44.49026" lon="4.0569">
        <ele>497.5</ele>
        <time>2014-05-31T09:23:04Z</time>
      </trkpt>
      <trkpt lat="44.49034" lon="4.05704">
        <ele>498.3</ele>
        <time>2014-05-31T09:23:20Z</time>
      </trkpt>
      <trkpt lat="44.49043" lon="4.05711">
        <ele>498.5</ele>
        <time>2014-05-31T09:23:33Z</time>
      </trkpt>
      <trkpt lat="44.49056" lon="4.05722">
        <ele>498.1</ele>
        <time>2014-05-31T09:23:42Z</time>
      </trkpt>
      <trkpt lat="44.49065" lon="4.05734">
        <ele>496.6</ele>
        <time>2014-05-31T09:23:51Z</time>
      </trkpt>
      <trkpt lat="44.49076" lon="4.05745">
        <ele>496.1</ele>
        <time>2014-05-31T09:24:00Z</time>
      </trkpt>
      <trkpt lat="44.49086" lon="4.05757">
        <ele>493.8</ele>
        <time>2014-05-31T09:24:08Z</time>
      </trkpt>
      <trkpt lat="44.49092" lon="4.05773">
        <ele>492</ele>
        <time>2014-05-31T09:24:14Z</time>
      </trkpt>
      <trkpt lat="44.49097" lon="4.05786">
        <ele>491.2</ele>
        <time>2014-05-31T09:24:24Z</time>
      </trkpt>
      <trkpt lat="44.49102" lon="4.058">
        <ele>490.4</ele>
        <time>2014-05-31T09:24:37Z</time>
      </trkpt>
      <trkpt lat="44.49109" lon="4.05814">
        <ele>489.5</ele>
        <time>2014-05-31T09:24:49Z</time>
      </trkpt>
      <trkpt lat="44.49119" lon="4.05824">
        <ele>489.4</ele>
        <time>2014-05-31T09:25:00Z</time>
      </trkpt>
      <trkpt lat="44.49133" lon="4.05828">
        <ele>490.1</ele>
        <time>2014-05-31T09:25:15Z</time>
      </trkpt>
      <trkpt lat="44.49147" lon="4.05832">
        <ele>490.5</ele>
        <time>2014-05-31T09:25:30Z</time>
      </trkpt>
      <trkpt lat="44.49161" lon="4.05833">
        <ele>490.2</ele>
        <time>2014-05-31T09:25:37Z</time>
      </trkpt>
      <trkpt lat="44.49171" lon="4.05834">
        <ele>489.8</ele>
        <time>2014-05-31T09:27:03Z</time>
      </trkpt>
      <trkpt lat="44.49212" lon="4.05845">
        <ele>489.6</ele>
        <time>2014-05-31T09:27:10Z</time>
      </trkpt>
      <trkpt lat="44.49212" lon="4.05866">
        <ele>489.1</ele>
        <time>2014-05-31T09:27:17Z</time>
      </trkpt>
      <trkpt lat="44.49212" lon="4.0588">
        <ele>489.4</ele>
        <time>2014-05-31T09:27:25Z</time>
      </trkpt>
      <trkpt lat="44.4921" lon="4.05891">
        <ele>488.7</ele>
        <time>2014-05-31T09:27:43Z</time>
      </trkpt>
      <trkpt lat="44.49206" lon="4.05908">
        <ele>486.8</ele>
        <time>2014-05-31T09:28:03Z</time>
      </trkpt>
      <trkpt lat="44.49195" lon="4.05918">
        <ele>485.7</ele>
        <time>2014-05-31T09:28:15Z</time>
      </trkpt>
      <trkpt lat="44.49185" lon="4.05927">
        <ele>486</ele>
        <time>2014-05-31T09:28:29Z</time>
      </trkpt>
      <trkpt lat="44.49173" lon="4.05935">
        <ele>487.2</ele>
        <time>2014-05-31T09:28:46Z</time>
      </trkpt>
      <trkpt lat="44.49161" lon="4.05946">
        <ele>489.5</ele>
        <time>2014-05-31T09:29:01Z</time>
      </trkpt>
      <trkpt lat="44.4915" lon="4.05955">
        <ele>491.2</ele>
        <time>2014-05-31T09:29:07Z</time>
      </trkpt>
      <trkpt lat="44.49138" lon="4.05963">
        <ele>493.2</ele>
        <time>2014-05-31T09:29:34Z</time>
      </trkpt>
      <trkpt lat="44.49129" lon="4.05976">
        <ele>496.2</ele>
        <time>2014-05-31T09:29:48Z</time>
      </trkpt>
      <trkpt lat="44.49118" lon="4.05986">
        <ele>497.8</ele>
        <time>2014-05-31T09:30:01Z</time>
      </trkpt>
      <trkpt lat="44.49105" lon="4.05991">
        <ele>498.6</ele>
        <time>2014-05-31T09:30:16Z</time>
      </trkpt>
      <trkpt lat="44.49092" lon="4.05999">
        <ele>501.9</ele>
        <time>2014-05-31T09:30:34Z</time>
      </trkpt>
      <trkpt lat="44.4908" lon="4.05994">
        <ele>503.4</ele>
        <time>2014-05-31T09:30:49Z</time>
      </trkpt>
      <trkpt lat="44.49066" lon="4.05986">
        <ele>504.4</ele>
        <time>2014-05-31T09:30:58Z</time>
      </trkpt>
      <trkpt lat="44.49049" lon="4.05981">
        <ele>506.6</ele>
        <time>2014-05-31T09:31:02Z</time>
      </trkpt>
      <trkpt lat="44.49037" lon="4.05983">
        <ele>512.6</ele>
        <time>2014-05-31T09:31:35Z</time>
      </trkpt>
      <trkpt lat="44.49031" lon="4.05991">
        <ele>517.4</ele>
        <time>2014-05-31T09:32:07Z</time>
      </trkpt>
      <trkpt lat="44.49056" lon="4.06023">
        <ele>517.6</ele>
        <time>2014-05-31T09:32:56Z</time>
      </trkpt>
      <trkpt lat="44.49062" lon="4.06036">
        <ele>518.4</ele>
        <time>2014-05-31T09:33:11Z</time>
      </trkpt>
      <trkpt lat="44.49061" lon="4.06048">
        <ele>522.7</ele>
        <time>2014-05-31T09:33:37Z</time>
      </trkpt>
      <trkpt lat="44.49043" lon="4.06043">
        <ele>530.3</ele>
        <time>2014-05-31T09:34:04Z</time>
      </trkpt>
      <trkpt lat="44.4903" lon="4.06036">
        <ele>536</ele>
        <time>2014-05-31T09:34:12Z</time>
      </trkpt>
      <trkpt lat="44.49016" lon="4.06034">
        <ele>539.4</ele>
        <time>2014-05-31T09:34:38Z</time>
      </trkpt>
      <trkpt lat="44.49002" lon="4.06045">
        <ele>543.7</ele>
        <time>2014-05-31T09:35:05Z</time>
      </trkpt>
      <trkpt lat="44.48989" lon="4.06052">
        <ele>545.9</ele>
        <time>2014-05-31T09:35:11Z</time>
      </trkpt>
      <trkpt lat="44.48975" lon="4.06057">
        <ele>548.5</ele>
        <time>2014-05-31T09:35:51Z</time>
      </trkpt>
      <trkpt lat="44.48963" lon="4.06064">
        <ele>550.1</ele>
        <time>2014-05-31T09:35:58Z</time>
      </trkpt>
      <trkpt lat="44.48954" lon="4.06073">
        <ele>550.6</ele>
        <time>2014-05-31T09:36:20Z</time>
      </trkpt>
      <trkpt lat="44.48939" lon="4.06077">
        <ele>553.3</ele>
        <time>2014-05-31T09:36:54Z</time>
      </trkpt>
      <trkpt lat="44.48924" lon="4.06074">
        <ele>559.6</ele>
        <time>2014-05-31T09:37:10Z</time>
      </trkpt>
      <trkpt lat="44.4891" lon="4.06074">
        <ele>562</ele>
        <time>2014-05-31T09:37:25Z</time>
      </trkpt>
      <trkpt lat="44.48896" lon="4.06071">
        <ele>562.8</ele>
        <time>2014-05-31T09:37:44Z</time>
      </trkpt>
      <trkpt lat="44.48883" lon="4.06068">
        <ele>564.1</ele>
        <time>2014-05-31T09:37:54Z</time>
      </trkpt>
      <trkpt lat="44.48868" lon="4.06066">
        <ele>566.3</ele>
        <time>2014-05-31T09:38:21Z</time>
      </trkpt>
      <trkpt lat="44.48855" lon="4.06062">
        <ele>568.1</ele>
        <time>2014-05-31T09:38:38Z</time>
      </trkpt>
      <trkpt lat="44.48841" lon="4.06059">
        <ele>571.9</ele>
        <time>2014-05-31T09:38:55Z</time>
      </trkpt>
      <trkpt lat="44.48829" lon="4.06056">
        <ele>573.8</ele>
        <time>2014-05-31T09:39:12Z</time>
      </trkpt>
      <trkpt lat="44.48817" lon="4.06047">
        <ele>574.5</ele>
        <time>2014-05-31T09:39:27Z</time>
      </trkpt>
      <trkpt lat="44.48805" lon="4.06039">
        <ele>574.7</ele>
        <time>2014-05-31T09:39:41Z</time>
      </trkpt>
      <trkpt lat="44.48791" lon="4.06037">
        <ele>577</ele>
        <time>2014-05-31T09:39:59Z</time>
      </trkpt>
      <trkpt lat="44.48774" lon="4.06034">
        <ele>579.2</ele>
        <time>2014-05-31T09:40:09Z</time>
      </trkpt>
      <trkpt lat="44.48775" lon="4.06036">
        <ele>586</ele>
        <time>2014-05-31T09:40:38Z</time>
      </trkpt>
      <trkpt lat="44.48773" lon="4.06044">
        <ele>601.8</ele>
        <time>2014-05-31T09:42:59Z</time>
      </trkpt>
      <trkpt lat="44.48727" lon="4.06043">
        <ele>602.3</ele>
        <time>2014-05-31T09:44:05Z</time>
      </trkpt>
      <trkpt lat="44.48715" lon="4.06037">
        <ele>603.2</ele>
        <time>2014-05-31T09:44:23Z</time>
      </trkpt>
      <trkpt lat="44.48701" lon="4.06028">
        <ele>604.3</ele>
        <time>2014-05-31T09:44:36Z</time>
      </trkpt>
      <trkpt lat="44.48687" lon="4.06021">
        <ele>608.5</ele>
        <time>2014-05-31T09:44:53Z</time>
      </trkpt>
      <trkpt lat="44.4867" lon="4.06024">
        <ele>618</ele>
        <time>2014-05-31T09:45:02Z</time>
      </trkpt>
      <trkpt lat="44.4868" lon="4.05984">
        <ele>624.7</ele>
        <time>2014-05-31T09:51:17Z</time>
      </trkpt>
      <trkpt lat="44.48667" lon="4.06016">
        <ele>626.2</ele>
        <time>2014-05-31T09:52:32Z</time>
      </trkpt>
      <trkpt lat="44.48667" lon="4.06025">
        <ele>621.7</ele>
        <time>2014-05-31T09:53:25Z</time>
      </trkpt>
      <trkpt lat="44.48668" lon="4.06055">
        <ele>629.3</ele>
        <time>2014-05-31T09:53:57Z</time>
      </trkpt>
      <trkpt lat="44.4867" lon="4.06068">
        <ele>632.9</ele>
        <time>2014-05-31T09:54:21Z</time>
      </trkpt>
      <trkpt lat="44.48674" lon="4.06084">
        <ele>634.7</ele>
        <time>2014-05-31T09:54:42Z</time>
      </trkpt>
      <trkpt lat="44.4868" lon="4.06098">
        <ele>637</ele>
        <time>2014-05-31T09:55:08Z</time>
      </trkpt>
      <trkpt lat="44.48687" lon="4.06112">
        <ele>640.5</ele>
        <time>2014-05-31T09:55:21Z</time>
      </trkpt>
      <trkpt lat="44.48688" lon="4.06126">
        <ele>642.6</ele>
        <time>2014-05-31T09:55:34Z</time>
      </trkpt>
      <trkpt lat="44.48687" lon="4.06141">
        <ele>646.4</ele>
        <time>2014-05-31T09:55:43Z</time>
      </trkpt>
      <trkpt lat="44.48683" lon="4.06162">
        <ele>653.8</ele>
        <time>2014-05-31T10:04:48Z</time>
      </trkpt>
      <trkpt lat="44.48685" lon="4.06179">
        <ele>653.2</ele>
        <time>2014-05-31T10:04:59Z</time>
      </trkpt>
      <trkpt lat="44.48685" lon="4.06195">
        <ele>652.8</ele>
        <time>2014-05-31T10:05:06Z</time>
      </trkpt>
      <trkpt lat="44.48687" lon="4.0621">
        <ele>652.7</ele>
        <time>2014-05-31T10:05:20Z</time>
      </trkpt>
      <trkpt lat="44.48689" lon="4.06224">
        <ele>653.4</ele>
        <time>2014-05-31T10:05:34Z</time>
      </trkpt>
      <trkpt lat="44.48694" lon="4.06239">
        <ele>653</ele>
        <time>2014-05-31T10:05:42Z</time>
      </trkpt>
      <trkpt lat="44.48701" lon="4.06253">
        <ele>653.1</ele>
        <time>2014-05-31T10:05:47Z</time>
      </trkpt>
      <trkpt lat="44.4871" lon="4.06264">
        <ele>653.6</ele>
        <time>2014-05-31T10:05:53Z</time>
      </trkpt>
      <trkpt lat="44.48721" lon="4.06275">
        <ele>653.2</ele>
        <time>2014-05-31T10:05:59Z</time>
      </trkpt>
      <trkpt lat="44.48733" lon="4.06286">
        <ele>653.9</ele>
        <time>2014-05-31T10:06:05Z</time>
      </trkpt>
      <trkpt lat="44.48744" lon="4.06298">
        <ele>654.8</ele>
        <time>2014-05-31T10:06:12Z</time>
      </trkpt>
      <trkpt lat="44.48753" lon="4.0631">
        <ele>655.9</ele>
        <time>2014-05-31T10:06:18Z</time>
      </trkpt>
      <trkpt lat="44.48756" lon="4.06324">
        <ele>655.6</ele>
        <time>2014-05-31T10:06:24Z</time>
      </trkpt>
      <trkpt lat="44.48757" lon="4.06339">
        <ele>655.5</ele>
        <time>2014-05-31T10:06:29Z</time>
      </trkpt>
      <trkpt lat="44.48758" lon="4.06356">
        <ele>655.5</ele>
        <time>2014-05-31T10:06:35Z</time>
      </trkpt>
      <trkpt lat="44.4876" lon="4.06371">
        <ele>655.9</ele>
        <time>2014-05-31T10:06:39Z</time>
      </trkpt>
      <trkpt lat="44.48763" lon="4.06387">
        <ele>657.2</ele>
        <time>2014-05-31T10:06:45Z</time>
      </trkpt>
      <trkpt lat="44.48766" lon="4.06403">
        <ele>657.5</ele>
        <time>2014-05-31T10:06:51Z</time>
      </trkpt>
      <trkpt lat="44.48769" lon="4.06418">
        <ele>657.5</ele>
        <time>2014-05-31T10:06:57Z</time>
      </trkpt>
      <trkpt lat="44.48771" lon="4.06432">
        <ele>657.9</ele>
        <time>2014-05-31T10:07:01Z</time>
      </trkpt>
      <trkpt lat="44.48772" lon="4.06448">
        <ele>658.1</ele>
        <time>2014-05-31T10:07:06Z</time>
      </trkpt>
      <trkpt lat="44.48771" lon="4.06465">
        <ele>659</ele>
        <time>2014-05-31T10:07:11Z</time>
      </trkpt>
      <trkpt lat="44.4877" lon="4.06479">
        <ele>659.8</ele>
        <time>2014-05-31T10:07:15Z</time>
      </trkpt>
      <trkpt lat="44.48769" lon="4.06498">
        <ele>661.1</ele>
        <time>2014-05-31T10:07:20Z</time>
      </trkpt>
      <trkpt lat="44.4877" lon="4.06515">
        <ele>662.1</ele>
        <time>2014-05-31T10:07:26Z</time>
      </trkpt>
      <trkpt lat="44.48771" lon="4.06533">
        <ele>663.7</ele>
        <time>2014-05-31T10:07:31Z</time>
      </trkpt>
      <trkpt lat="44.48774" lon="4.06547">
        <ele>664.5</ele>
        <time>2014-05-31T10:07:36Z</time>
      </trkpt>
      <trkpt lat="44.48776" lon="4.06563">
        <ele>665.3</ele>
        <time>2014-05-31T10:07:41Z</time>
      </trkpt>
      <trkpt lat="44.48769" lon="4.06577">
        <ele>667.9</ele>
        <time>2014-05-31T10:07:46Z</time>
      </trkpt>
      <trkpt lat="44.4876" lon="4.06589">
        <ele>669.5</ele>
        <time>2014-05-31T10:07:52Z</time>
      </trkpt>
      <trkpt lat="44.48752" lon="4.06601">
        <ele>670.2</ele>
        <time>2014-05-31T10:07:57Z</time>
      </trkpt>
      <trkpt lat="44.4874" lon="4.06611">
        <ele>670.7</ele>
        <time>2014-05-31T10:08:04Z</time>
      </trkpt>
      <trkpt lat="44.48725" lon="4.06609">
        <ele>672.3</ele>
        <time>2014-05-31T10:08:11Z</time>
      </trkpt>
      <trkpt lat="44.48712" lon="4.06601">
        <ele>674.3</ele>
        <time>2014-05-31T10:08:18Z</time>
      </trkpt>
      <trkpt lat="44.48698" lon="4.06592">
        <ele>677.8</ele>
        <time>2014-05-31T10:08:22Z</time>
      </trkpt>
      <trkpt lat="44.48685" lon="4.06617">
        <ele>679.4</ele>
        <time>2014-05-31T10:09:10Z</time>
      </trkpt>
      <trkpt lat="44.48685" lon="4.06635">
        <ele>680</ele>
        <time>2014-05-31T10:09:14Z</time>
      </trkpt>
      <trkpt lat="44.48687" lon="4.06651">
        <ele>680</ele>
        <time>2014-05-31T10:09:17Z</time>
      </trkpt>
      <trkpt lat="44.4869" lon="4.06667">
        <ele>680.3</ele>
        <time>2014-05-31T10:09:21Z</time>
      </trkpt>
      <trkpt lat="44.48694" lon="4.06684">
        <ele>681.4</ele>
        <time>2014-05-31T10:09:25Z</time>
      </trkpt>
      <trkpt lat="44.48699" lon="4.06702">
        <ele>682.1</ele>
        <time>2014-05-31T10:09:29Z</time>
      </trkpt>
      <trkpt lat="44.48701" lon="4.06718">
        <ele>683</ele>
        <time>2014-05-31T10:09:32Z</time>
      </trkpt>
      <trkpt lat="44.48704" lon="4.06734">
        <ele>683.4</ele>
        <time>2014-05-31T10:09:35Z</time>
      </trkpt>
      <trkpt lat="44.48706" lon="4.0675">
        <ele>683.5</ele>
        <time>2014-05-31T10:09:39Z</time>
      </trkpt>
      <trkpt lat="44.48711" lon="4.06766">
        <ele>683.8</ele>
        <time>2014-05-31T10:09:43Z</time>
      </trkpt>
      <trkpt lat="44.48717" lon="4.06782">
        <ele>683.7</ele>
        <time>2014-05-31T10:09:46Z</time>
      </trkpt>
      <trkpt lat="44.48723" lon="4.06798">
        <ele>683.7</ele>
        <time>2014-05-31T10:09:50Z</time>
      </trkpt>
      <trkpt lat="44.48727" lon="4.06815">
        <ele>683.5</ele>
        <time>2014-05-31T10:09:54Z</time>
      </trkpt>
      <trkpt lat="44.48731" lon="4.06832">
        <ele>683</ele>
        <time>2014-05-31T10:09:57Z</time>
      </trkpt>
      <trkpt lat="44.48737" lon="4.06847">
        <ele>683</ele>
        <time>2014-05-31T10:09:59Z</time>
      </trkpt>
      <trkpt lat="44.48741" lon="4.06862">
        <ele>683</ele>
        <time>2014-05-31T10:10:02Z</time>
      </trkpt>
      <trkpt lat="44.48745" lon="4.06877">
        <ele>683</ele>
        <time>2014-05-31T10:10:04Z</time>
      </trkpt>
      <trkpt lat="44.48749" lon="4.06893">
        <ele>683</ele>
        <time>2014-05-31T10:10:05Z</time>
      </trkpt>
      <trkpt lat="44.48751" lon="4.06909">
        <ele>683.5</ele>
        <time>2014-05-31T10:10:07Z</time>
      </trkpt>
      <trkpt lat="44.48752" lon="4.06928">
        <ele>683.5</ele>
        <time>2014-05-31T10:10:10Z</time>
      </trkpt>
      <trkpt lat="44.48752" lon="4.06946">
        <ele>683.5</ele>
        <time>2014-05-31T10:10:13Z</time>
      </trkpt>
      <trkpt lat="44.48752" lon="4.06962">
        <ele>683.2</ele>
        <time>2014-05-31T10:10:17Z</time>
      </trkpt>
      <trkpt lat="44.48748" lon="4.06978">
        <ele>684.5</ele>
        <time>2014-05-31T10:10:21Z</time>
      </trkpt>
      <trkpt lat="44.48743" lon="4.06993">
        <ele>683.5</ele>
        <time>2014-05-31T10:10:24Z</time>
      </trkpt>
      <trkpt lat="44.48741" lon="4.07008">
        <ele>684.4</ele>
        <time>2014-05-31T10:10:29Z</time>
      </trkpt>
      <trkpt lat="44.48742" lon="4.07023">
        <ele>684.8</ele>
        <time>2014-05-31T10:10:35Z</time>
      </trkpt>
      <trkpt lat="44.4875" lon="4.07036">
        <ele>685.2</ele>
        <time>2014-05-31T10:10:42Z</time>
      </trkpt>
      <trkpt lat="44.4876" lon="4.07048">
        <ele>685</ele>
        <time>2014-05-31T10:10:47Z</time>
      </trkpt>
      <trkpt lat="44.48769" lon="4.07061">
        <ele>685.4</ele>
        <time>2014-05-31T10:10:52Z</time>
      </trkpt>
      <trkpt lat="44.48776" lon="4.07074">
        <ele>685</ele>
        <time>2014-05-31T10:10:57Z</time>
      </trkpt>
      <trkpt lat="44.48785" lon="4.07087">
        <ele>685.1</ele>
        <time>2014-05-31T10:11:02Z</time>
      </trkpt>
      <trkpt lat="44.48792" lon="4.07102">
        <ele>686</ele>
        <time>2014-05-31T10:11:07Z</time>
      </trkpt>
      <trkpt lat="44.48797" lon="4.07118">
        <ele>686</ele>
        <time>2014-05-31T10:11:11Z</time>
      </trkpt>
      <trkpt lat="44.48803" lon="4.07134">
        <ele>686.8</ele>
        <time>2014-05-31T10:11:15Z</time>
      </trkpt>
      <trkpt lat="44.4881" lon="4.07151">
        <ele>688</ele>
        <time>2014-05-31T10:11:19Z</time>
      </trkpt>
      <trkpt lat="44.4882" lon="4.07163">
        <ele>689.7</ele>
        <time>2014-05-31T10:11:23Z</time>
      </trkpt>
      <trkpt lat="44.48837" lon="4.07164">
        <ele>690.5</ele>
        <time>2014-05-31T10:11:29Z</time>
      </trkpt>
      <trkpt lat="44.4885" lon="4.07171">
        <ele>690.5</ele>
        <time>2014-05-31T10:11:34Z</time>
      </trkpt>
      <trkpt lat="44.48862" lon="4.07182">
        <ele>690.9</ele>
        <time>2014-05-31T10:11:39Z</time>
      </trkpt>
      <trkpt lat="44.48871" lon="4.07197">
        <ele>690.4</ele>
        <time>2014-05-31T10:11:42Z</time>
      </trkpt>
      <trkpt lat="44.4888" lon="4.07208">
        <ele>691.5</ele>
        <time>2014-05-31T10:12:05Z</time>
      </trkpt>
      <trkpt lat="44.48888" lon="4.07221">
        <ele>692.1</ele>
        <time>2014-05-31T10:12:10Z</time>
      </trkpt>
      <trkpt lat="44.48895" lon="4.07235">
        <ele>693.2</ele>
        <time>2014-05-31T10:12:16Z</time>
      </trkpt>
      <trkpt lat="44.48904" lon="4.07248">
        <ele>693.8</ele>
        <time>2014-05-31T10:12:22Z</time>
      </trkpt>
      <trkpt lat="44.48911" lon="4.07261">
        <ele>694.5</ele>
        <time>2014-05-31T10:12:30Z</time>
      </trkpt>
      <trkpt lat="44.48922" lon="4.07272">
        <ele>697.5</ele>
        <time>2014-05-31T10:12:38Z</time>
      </trkpt>
      <trkpt lat="44.48936" lon="4.07274">
        <ele>701.3</ele>
        <time>2014-05-31T10:12:46Z</time>
      </trkpt>
      <trkpt lat="44.4895" lon="4.07265">
        <ele>703</ele>
        <time>2014-05-31T10:12:53Z</time>
      </trkpt>
      <trkpt lat="44.4896" lon="4.07254">
        <ele>703.9</ele>
        <time>2014-05-31T10:12:59Z</time>
      </trkpt>
      <trkpt lat="44.4897" lon="4.07243">
        <ele>704.4</ele>
        <time>2014-05-31T10:13:04Z</time>
      </trkpt>
      <trkpt lat="44.48981" lon="4.07233">
        <ele>705.5</ele>
        <time>2014-05-31T10:13:11Z</time>
      </trkpt>
      <trkpt lat="44.48991" lon="4.07221">
        <ele>708.1</ele>
        <time>2014-05-31T10:13:18Z</time>
      </trkpt>
      <trkpt lat="44.49005" lon="4.07215">
        <ele>711.2</ele>
        <time>2014-05-31T10:13:26Z</time>
      </trkpt>
      <trkpt lat="44.49008" lon="4.07231">
        <ele>711.1</ele>
        <time>2014-05-31T10:13:35Z</time>
      </trkpt>
      <trkpt lat="44.49014" lon="4.07246">
        <ele>711.2</ele>
        <time>2014-05-31T10:13:45Z</time>
      </trkpt>
      <trkpt lat="44.49005" lon="4.07261">
        <ele>709.7</ele>
        <time>2014-05-31T10:13:54Z</time>
      </trkpt>
      <trkpt lat="44.48993" lon="4.07272">
        <ele>708.9</ele>
        <time>2014-05-31T10:14:02Z</time>
      </trkpt>
      <trkpt lat="44.48981" lon="4.07284">
        <ele>708.1</ele>
        <time>2014-05-31T10:14:08Z</time>
      </trkpt>
      <trkpt lat="44.48979" lon="4.07296">
        <ele>708</ele>
        <time>2014-05-31T10:14:14Z</time>
      </trkpt>
      <trkpt lat="44.48982" lon="4.07308">
        <ele>707.8</ele>
        <time>2014-05-31T10:14:20Z</time>
      </trkpt>
      <trkpt lat="44.48972" lon="4.07329">
        <ele>706.5</ele>
        <time>2014-05-31T10:14:28Z</time>
      </trkpt>
      <trkpt lat="44.48961" lon="4.07336">
        <ele>706</ele>
        <time>2014-05-31T10:14:37Z</time>
      </trkpt>
      <trkpt lat="44.48948" lon="4.07345">
        <ele>705.9</ele>
        <time>2014-05-31T10:14:45Z</time>
      </trkpt>
      <trkpt lat="44.48935" lon="4.0735">
        <ele>705.4</ele>
        <time>2014-05-31T10:14:53Z</time>
      </trkpt>
      <trkpt lat="44.48917" lon="4.07342">
        <ele>705.7</ele>
        <time>2014-05-31T10:15:01Z</time>
      </trkpt>
      <trkpt lat="44.48903" lon="4.07344">
        <ele>706.2</ele>
        <time>2014-05-31T10:15:09Z</time>
      </trkpt>
      <trkpt lat="44.48888" lon="4.07345">
        <ele>706.3</ele>
        <time>2014-05-31T10:15:15Z</time>
      </trkpt>
      <trkpt lat="44.48874" lon="4.07338">
        <ele>707.4</ele>
        <time>2014-05-31T10:15:23Z</time>
      </trkpt>
      <trkpt lat="44.48856" lon="4.0733">
        <ele>709.8</ele>
        <time>2014-05-31T10:15:31Z</time>
      </trkpt>
      <trkpt lat="44.48845" lon="4.07322">
        <ele>710</ele>
        <time>2014-05-31T10:15:36Z</time>
      </trkpt>
      <trkpt lat="44.48832" lon="4.07317">
        <ele>709.8</ele>
        <time>2014-05-31T10:15:42Z</time>
      </trkpt>
      <trkpt lat="44.48815" lon="4.07313">
        <ele>709.6</ele>
        <time>2014-05-31T10:15:49Z</time>
      </trkpt>
      <trkpt lat="44.48798" lon="4.07309">
        <ele>711</ele>
        <time>2014-05-31T10:15:57Z</time>
      </trkpt>
      <trkpt lat="44.48782" lon="4.07306">
        <ele>711.3</ele>
        <time>2014-05-31T10:16:04Z</time>
      </trkpt>
      <trkpt lat="44.48766" lon="4.07304">
        <ele>712.1</ele>
        <time>2014-05-31T10:16:12Z</time>
      </trkpt>
      <trkpt lat="44.48751" lon="4.07305">
        <ele>715.3</ele>
        <time>2014-05-31T10:16:20Z</time>
      </trkpt>
      <trkpt lat="44.48736" lon="4.0731">
        <ele>717.6</ele>
        <time>2014-05-31T10:16:26Z</time>
      </trkpt>
      <trkpt lat="44.48724" lon="4.07319">
        <ele>723.5</ele>
        <time>2014-05-31T10:16:32Z</time>
      </trkpt>
      <trkpt lat="44.48714" lon="4.07332">
        <ele>725.9</ele>
        <time>2014-05-31T10:16:38Z</time>
      </trkpt>
      <trkpt lat="44.48705" lon="4.07344">
        <ele>727.8</ele>
        <time>2014-05-31T10:16:43Z</time>
      </trkpt>
      <trkpt lat="44.48699" lon="4.07358">
        <ele>731.1</ele>
        <time>2014-05-31T10:16:48Z</time>
      </trkpt>
      <trkpt lat="44.48692" lon="4.07372">
        <ele>733.1</ele>
        <time>2014-05-31T10:16:53Z</time>
      </trkpt>
      <trkpt lat="44.48686" lon="4.07386">
        <ele>736.1</ele>
        <time>2014-05-31T10:16:57Z</time>
      </trkpt>
      <trkpt lat="44.48679" lon="4.07401">
        <ele>738.2</ele>
        <time>2014-05-31T10:17:03Z</time>
      </trkpt>
      <trkpt lat="44.48672" lon="4.07416">
        <ele>740.5</ele>
        <time>2014-05-31T10:17:09Z</time>
      </trkpt>
      <trkpt lat="44.4866" lon="4.07423">
        <ele>741.3</ele>
        <time>2014-05-31T10:17:16Z</time>
      </trkpt>
      <trkpt lat="44.48649" lon="4.0741">
        <ele>742.9</ele>
        <time>2014-05-31T10:17:23Z</time>
      </trkpt>
      <trkpt lat="44.48637" lon="4.07399">
        <ele>744</ele>
        <time>2014-05-31T10:17:29Z</time>
      </trkpt>
      <trkpt lat="44.48625" lon="4.07391">
        <ele>745.5</ele>
        <time>2014-05-31T10:17:35Z</time>
      </trkpt>
      <trkpt lat="44.48614" lon="4.0738">
        <ele>746.2</ele>
        <time>2014-05-31T10:17:42Z</time>
      </trkpt>
      <trkpt lat="44.48601" lon="4.07382">
        <ele>747.8</ele>
        <time>2014-05-31T10:17:48Z</time>
      </trkpt>
      <trkpt lat="44.48596" lon="4.07397">
        <ele>749</ele>
        <time>2014-05-31T10:17:54Z</time>
      </trkpt>
      <trkpt lat="44.48584" lon="4.07405">
        <ele>751.3</ele>
        <time>2014-05-31T10:18:00Z</time>
      </trkpt>
      <trkpt lat="44.48568" lon="4.07409">
        <ele>753.6</ele>
        <time>2014-05-31T10:18:07Z</time>
      </trkpt>
      <trkpt lat="44.48553" lon="4.07411">
        <ele>754.1</ele>
        <time>2014-05-31T10:18:15Z</time>
      </trkpt>
      <trkpt lat="44.48538" lon="4.07414">
        <ele>754.9</ele>
        <time>2014-05-31T10:18:22Z</time>
      </trkpt>
      <trkpt lat="44.48521" lon="4.07419">
        <ele>755.3</ele>
        <time>2014-05-31T10:18:28Z</time>
      </trkpt>
      <trkpt lat="44.48509" lon="4.07422">
        <ele>757.9</ele>
        <time>2014-05-31T10:18:33Z</time>
      </trkpt>
      <trkpt lat="44.48494" lon="4.07417">
        <ele>758.9</ele>
        <time>2014-05-31T10:18:37Z</time>
      </trkpt>
      <trkpt lat="44.4848" lon="4.07408">
        <ele>759.6</ele>
        <time>2014-05-31T10:18:42Z</time>
      </trkpt>
      <trkpt lat="44.48469" lon="4.07399">
        <ele>761</ele>
        <time>2014-05-31T10:18:49Z</time>
      </trkpt>
      <trkpt lat="44.48455" lon="4.0739">
        <ele>761.5</ele>
        <time>2014-05-31T10:18:56Z</time>
      </trkpt>
      <trkpt lat="44.48443" lon="4.0738">
        <ele>761.5</ele>
        <time>2014-05-31T10:19:02Z</time>
      </trkpt>
      <trkpt lat="44.4843" lon="4.0737">
        <ele>762.2</ele>
        <time>2014-05-31T10:19:08Z</time>
      </trkpt>
      <trkpt lat="44.48416" lon="4.07359">
        <ele>763.6</ele>
        <time>2014-05-31T10:19:15Z</time>
      </trkpt>
      <trkpt lat="44.48407" lon="4.07351">
        <ele>765.5</ele>
        <time>2014-05-31T10:19:19Z</time>
      </trkpt>
      <trkpt lat="44.48392" lon="4.07343">
        <ele>767.5</ele>
        <time>2014-05-31T10:19:51Z</time>
      </trkpt>
      <trkpt lat="44.48385" lon="4.0734">
        <ele>782.5</ele>
        <time>2014-05-31T10:21:34Z</time>
      </trkpt>
      <trkpt lat="44.48419" lon="4.07371">
        <ele>781.8</ele>
        <time>2014-05-31T10:59:47Z</time>
      </trkpt>
      <trkpt lat="44.48413" lon="4.07364">
        <ele>777.2</ele>
        <time>2014-05-31T11:00:09Z</time>
      </trkpt>
      <trkpt lat="44.48391" lon="4.07348">
        <ele>779</ele>
        <time>2014-05-31T11:00:31Z</time>
      </trkpt>
      <trkpt lat="44.48375" lon="4.07343">
        <ele>779.2</ele>
        <time>2014-05-31T11:00:42Z</time>
      </trkpt>
      <trkpt lat="44.4837" lon="4.0734">
        <ele>779.3</ele>
        <time>2014-05-31T11:03:27Z</time>
      </trkpt>
      <trkpt lat="44.48344" lon="4.07336">
        <ele>783.1</ele>
        <time>2014-05-31T11:04:06Z</time>
      </trkpt>
      <trkpt lat="44.48328" lon="4.07339">
        <ele>784</ele>
        <time>2014-05-31T11:04:13Z</time>
      </trkpt>
      <trkpt lat="44.48313" lon="4.07341">
        <ele>784.7</ele>
        <time>2014-05-31T11:04:19Z</time>
      </trkpt>
      <trkpt lat="44.48296" lon="4.0734">
        <ele>783.9</ele>
        <time>2014-05-31T11:04:25Z</time>
      </trkpt>
      <trkpt lat="44.48279" lon="4.07342">
        <ele>783.3</ele>
        <time>2014-05-31T11:04:30Z</time>
      </trkpt>
      <trkpt lat="44.48261" lon="4.07342">
        <ele>784.3</ele>
        <time>2014-05-31T11:04:34Z</time>
      </trkpt>
      <trkpt lat="44.48245" lon="4.07341">
        <ele>784</ele>
        <time>2014-05-31T11:04:37Z</time>
      </trkpt>
      <trkpt lat="44.48228" lon="4.07342">
        <ele>783.6</ele>
        <time>2014-05-31T11:04:40Z</time>
      </trkpt>
      <trkpt lat="44.48209" lon="4.07343">
        <ele>783</ele>
        <time>2014-05-31T11:04:44Z</time>
      </trkpt>
      <trkpt lat="44.48195" lon="4.07344">
        <ele>783</ele>
        <time>2014-05-31T11:04:46Z</time>
      </trkpt>
      <trkpt lat="44.48177" lon="4.07339">
        <ele>782.6</ele>
        <time>2014-05-31T11:04:49Z</time>
      </trkpt>
      <trkpt lat="44.48159" lon="4.07335">
        <ele>782</ele>
        <time>2014-05-31T11:04:52Z</time>
      </trkpt>
      <trkpt lat="44.48141" lon="4.07336">
        <ele>782</ele>
        <time>2014-05-31T11:04:56Z</time>
      </trkpt>
      <trkpt lat="44.48123" lon="4.07338">
        <ele>782.1</ele>
        <time>2014-05-31T11:05:00Z</time>
      </trkpt>
      <trkpt lat="44.48107" lon="4.07339">
        <ele>783.1</ele>
        <time>2014-05-31T11:05:03Z</time>
      </trkpt>
      <trkpt lat="44.48091" lon="4.0734">
        <ele>783.5</ele>
        <time>2014-05-31T11:05:07Z</time>
      </trkpt>
      <trkpt lat="44.48076" lon="4.0734">
        <ele>783.7</ele>
        <time>2014-05-31T11:05:12Z</time>
      </trkpt>
      <trkpt lat="44.4806" lon="4.07336">
        <ele>782.1</ele>
        <time>2014-05-31T11:05:17Z</time>
      </trkpt>
      <trkpt lat="44.48046" lon="4.07333">
        <ele>780.5</ele>
        <time>2014-05-31T11:05:23Z</time>
      </trkpt>
      <trkpt lat="44.4803" lon="4.07331">
        <ele>781</ele>
        <time>2014-05-31T11:05:28Z</time>
      </trkpt>
      <trkpt lat="44.48015" lon="4.07328">
        <ele>781.3</ele>
        <time>2014-05-31T11:05:33Z</time>
      </trkpt>
      <trkpt lat="44.47998" lon="4.07324">
        <ele>781.4</ele>
        <time>2014-05-31T11:05:38Z</time>
      </trkpt>
      <trkpt lat="44.47983" lon="4.0732">
        <ele>781.9</ele>
        <time>2014-05-31T11:05:43Z</time>
      </trkpt>
      <trkpt lat="44.47971" lon="4.07313">
        <ele>781.8</ele>
        <time>2014-05-31T11:05:47Z</time>
      </trkpt>
      <trkpt lat="44.47959" lon="4.07303">
        <ele>781.1</ele>
        <time>2014-05-31T11:05:50Z</time>
      </trkpt>
      <trkpt lat="44.47944" lon="4.07292">
        <ele>780.4</ele>
        <time>2014-05-31T11:05:54Z</time>
      </trkpt>
      <trkpt lat="44.47926" lon="4.07288">
        <ele>779.3</ele>
        <time>2014-05-31T11:05:57Z</time>
      </trkpt>
      <trkpt lat="44.47909" lon="4.07286">
        <ele>778.6</ele>
        <time>2014-05-31T11:06:00Z</time>
      </trkpt>
      <trkpt lat="44.47893" lon="4.07287">
        <ele>779</ele>
        <time>2014-05-31T11:06:03Z</time>
      </trkpt>
      <trkpt lat="44.47877" lon="4.07287">
        <ele>777.8</ele>
        <time>2014-05-31T11:06:06Z</time>
      </trkpt>
      <trkpt lat="44.4786" lon="4.07289">
        <ele>777.1</ele>
        <time>2014-05-31T11:06:09Z</time>
      </trkpt>
      <trkpt lat="44.47843" lon="4.0729">
        <ele>776.1</ele>
        <time>2014-05-31T11:06:13Z</time>
      </trkpt>
      <trkpt lat="44.47828" lon="4.07297">
        <ele>775.4</ele>
        <time>2014-05-31T11:06:17Z</time>
      </trkpt>
      <trkpt lat="44.47813" lon="4.07306">
        <ele>774.6</ele>
        <time>2014-05-31T11:06:20Z</time>
      </trkpt>
      <trkpt lat="44.47798" lon="4.07317">
        <ele>773.7</ele>
        <time>2014-05-31T11:06:24Z</time>
      </trkpt>
      <trkpt lat="44.47784" lon="4.07326">
        <ele>774.1</ele>
        <time>2014-05-31T11:06:28Z</time>
      </trkpt>
      <trkpt lat="44.47768" lon="4.07328">
        <ele>771.8</ele>
        <time>2014-05-31T11:06:33Z</time>
      </trkpt>
      <trkpt lat="44.47753" lon="4.07331">
        <ele>771</ele>
        <time>2014-05-31T11:06:43Z</time>
      </trkpt>
      <trkpt lat="44.47736" lon="4.07328">
        <ele>770</ele>
        <time>2014-05-31T11:06:53Z</time>
      </trkpt>
      <trkpt lat="44.47733" lon="4.07311">
        <ele>766.6</ele>
        <time>2014-05-31T11:07:00Z</time>
      </trkpt>
      <trkpt lat="44.47719" lon="4.07306">
        <ele>765.9</ele>
        <time>2014-05-31T11:07:08Z</time>
      </trkpt>
      <trkpt lat="44.47703" lon="4.07307">
        <ele>765</ele>
        <time>2014-05-31T11:07:15Z</time>
      </trkpt>
      <trkpt lat="44.47689" lon="4.07312">
        <ele>763.8</ele>
        <time>2014-05-31T11:07:21Z</time>
      </trkpt>
      <trkpt lat="44.47674" lon="4.07315">
        <ele>762.7</ele>
        <time>2014-05-31T11:07:28Z</time>
      </trkpt>
      <trkpt lat="44.47659" lon="4.0732">
        <ele>760.9</ele>
        <time>2014-05-31T11:07:36Z</time>
      </trkpt>
      <trkpt lat="44.47645" lon="4.07323">
        <ele>759.6</ele>
        <time>2014-05-31T11:07:44Z</time>
      </trkpt>
      <trkpt lat="44.47629" lon="4.07327">
        <ele>759</ele>
        <time>2014-05-31T11:07:54Z</time>
      </trkpt>
      <trkpt lat="44.47616" lon="4.07331">
        <ele>757.2</ele>
        <time>2014-05-31T11:08:04Z</time>
      </trkpt>
      <trkpt lat="44.476" lon="4.07332">
        <ele>753.2</ele>
        <time>2014-05-31T11:08:12Z</time>
      </trkpt>
      <trkpt lat="44.47585" lon="4.07335">
        <ele>750.6</ele>
        <time>2014-05-31T11:08:22Z</time>
      </trkpt>
      <trkpt lat="44.4757" lon="4.07336">
        <ele>747.8</ele>
        <time>2014-05-31T11:08:36Z</time>
      </trkpt>
      <trkpt lat="44.47559" lon="4.07338">
        <ele>745.8</ele>
        <time>2014-05-31T11:08:51Z</time>
      </trkpt>
      <trkpt lat="44.47539" lon="4.07335">
        <ele>744.3</ele>
        <time>2014-05-31T11:09:01Z</time>
      </trkpt>
      <trkpt lat="44.47526" lon="4.07335">
        <ele>743.1</ele>
        <time>2014-05-31T11:09:08Z</time>
      </trkpt>
      <trkpt lat="44.47511" lon="4.07337">
        <ele>742</ele>
        <time>2014-05-31T11:09:15Z</time>
      </trkpt>
      <trkpt lat="44.47495" lon="4.07337">
        <ele>741.9</ele>
        <time>2014-05-31T11:09:23Z</time>
      </trkpt>
      <trkpt lat="44.47479" lon="4.07339">
        <ele>740.9</ele>
        <time>2014-05-31T11:09:32Z</time>
      </trkpt>
      <trkpt lat="44.47463" lon="4.07342">
        <ele>738</ele>
        <time>2014-05-31T11:09:41Z</time>
      </trkpt>
      <trkpt lat="44.47449" lon="4.07348">
        <ele>737.2</ele>
        <time>2014-05-31T11:09:50Z</time>
      </trkpt>
      <trkpt lat="44.47435" lon="4.07351">
        <ele>733.7</ele>
        <time>2014-05-31T11:09:59Z</time>
      </trkpt>
      <trkpt lat="44.4742" lon="4.07354">
        <ele>731.5</ele>
        <time>2014-05-31T11:10:07Z</time>
      </trkpt>
      <trkpt lat="44.47405" lon="4.0736">
        <ele>729.7</ele>
        <time>2014-05-31T11:10:13Z</time>
      </trkpt>
      <trkpt lat="44.4739" lon="4.07365">
        <ele>727.7</ele>
        <time>2014-05-31T11:10:22Z</time>
      </trkpt>
      <trkpt lat="44.47377" lon="4.07371">
        <ele>726.8</ele>
        <time>2014-05-31T11:10:30Z</time>
      </trkpt>
      <trkpt lat="44.47361" lon="4.0738">
        <ele>725.3</ele>
        <time>2014-05-31T11:10:39Z</time>
      </trkpt>
      <trkpt lat="44.47349" lon="4.07388">
        <ele>722.3</ele>
        <time>2014-05-31T11:10:49Z</time>
      </trkpt>
      <trkpt lat="44.47336" lon="4.07396">
        <ele>718.7</ele>
        <time>2014-05-31T11:11:02Z</time>
      </trkpt>
      <trkpt lat="44.47324" lon="4.07402">
        <ele>713.3</ele>
        <time>2014-05-31T11:11:16Z</time>
      </trkpt>
      <trkpt lat="44.47311" lon="4.07411">
        <ele>710.2</ele>
        <time>2014-05-31T11:11:30Z</time>
      </trkpt>
      <trkpt lat="44.47299" lon="4.0742">
        <ele>708.1</ele>
        <time>2014-05-31T11:11:48Z</time>
      </trkpt>
      <trkpt lat="44.47287" lon="4.0742">
        <ele>703.3</ele>
        <time>2014-05-31T11:11:59Z</time>
      </trkpt>
      <trkpt lat="44.47272" lon="4.07432">
        <ele>700.2</ele>
        <time>2014-05-31T11:12:21Z</time>
      </trkpt>
      <trkpt lat="44.47258" lon="4.07444">
        <ele>699.5</ele>
        <time>2014-05-31T11:12:25Z</time>
      </trkpt>
      <trkpt lat="44.47247" lon="4.07453">
        <ele>698.6</ele>
        <time>2014-05-31T11:12:29Z</time>
      </trkpt>
      <trkpt lat="44.47231" lon="4.07465">
        <ele>697</ele>
        <time>2014-05-31T11:12:31Z</time>
      </trkpt>
      <trkpt lat="44.47193" lon="4.07486">
        <ele>693.1</ele>
        <time>2014-05-31T11:14:10Z</time>
      </trkpt>
      <trkpt lat="44.4718" lon="4.07492">
        <ele>692.5</ele>
        <time>2014-05-31T11:14:13Z</time>
      </trkpt>
      <trkpt lat="44.47167" lon="4.075">
        <ele>692.5</ele>
        <time>2014-05-31T11:14:15Z</time>
      </trkpt>
      <trkpt lat="44.47152" lon="4.07509">
        <ele>692</ele>
        <time>2014-05-31T11:14:17Z</time>
      </trkpt>
      <trkpt lat="44.47135" lon="4.07516">
        <ele>691.2</ele>
        <time>2014-05-31T11:14:19Z</time>
      </trkpt>
      <trkpt lat="44.47119" lon="4.07521">
        <ele>690.2</ele>
        <time>2014-05-31T11:14:21Z</time>
      </trkpt>
      <trkpt lat="44.47103" lon="4.07519">
        <ele>688.7</ele>
        <time>2014-05-31T11:14:23Z</time>
      </trkpt>
      <trkpt lat="44.47086" lon="4.07516">
        <ele>687.5</ele>
        <time>2014-05-31T11:14:25Z</time>
      </trkpt>
      <trkpt lat="44.47068" lon="4.07511">
        <ele>686.4</ele>
        <time>2014-05-31T11:14:27Z</time>
      </trkpt>
      <trkpt lat="44.47048" lon="4.07507">
        <ele>684.9</ele>
        <time>2014-05-31T11:14:30Z</time>
      </trkpt>
      <trkpt lat="44.47031" lon="4.07505">
        <ele>682.9</ele>
        <time>2014-05-31T11:14:33Z</time>
      </trkpt>
      <trkpt lat="44.47014" lon="4.07505">
        <ele>680.9</ele>
        <time>2014-05-31T11:14:37Z</time>
      </trkpt>
      <trkpt lat="44.46998" lon="4.0751">
        <ele>676.2</ele>
        <time>2014-05-31T11:14:40Z</time>
      </trkpt>
      <trkpt lat="44.4699" lon="4.0752">
        <ele>673.7</ele>
        <time>2014-05-31T11:15:21Z</time>
      </trkpt>
      <trkpt lat="44.46979" lon="4.07534">
        <ele>672.7</ele>
        <time>2014-05-31T11:15:26Z</time>
      </trkpt>
      <trkpt lat="44.46968" lon="4.07545">
        <ele>672.2</ele>
        <time>2014-05-31T11:15:29Z</time>
      </trkpt>
      <trkpt lat="44.46955" lon="4.07551">
        <ele>672</ele>
        <time>2014-05-31T11:15:31Z</time>
      </trkpt>
      <trkpt lat="44.46942" lon="4.07556">
        <ele>672</ele>
        <time>2014-05-31T11:15:33Z</time>
      </trkpt>
      <trkpt lat="44.46927" lon="4.07559">
        <ele>672.3</ele>
        <time>2014-05-31T11:15:35Z</time>
      </trkpt>
      <trkpt lat="44.4691" lon="4.07559">
        <ele>672.2</ele>
        <time>2014-05-31T11:15:37Z</time>
      </trkpt>
      <trkpt lat="44.46893" lon="4.07555">
        <ele>672</ele>
        <time>2014-05-31T11:15:39Z</time>
      </trkpt>
      <trkpt lat="44.46877" lon="4.07549">
        <ele>672</ele>
        <time>2014-05-31T11:15:41Z</time>
      </trkpt>
      <trkpt lat="44.46862" lon="4.07541">
        <ele>672.2</ele>
        <time>2014-05-31T11:15:43Z</time>
      </trkpt>
      <trkpt lat="44.46846" lon="4.07531">
        <ele>672</ele>
        <time>2014-05-31T11:15:45Z</time>
      </trkpt>
      <trkpt lat="44.46826" lon="4.07523">
        <ele>672</ele>
        <time>2014-05-31T11:15:47Z</time>
      </trkpt>
      <trkpt lat="44.46804" lon="4.07518">
        <ele>671.2</ele>
        <time>2014-05-31T11:15:49Z</time>
      </trkpt>
      <trkpt lat="44.46782" lon="4.07513">
        <ele>670.7</ele>
        <time>2014-05-31T11:15:51Z</time>
      </trkpt>
      <trkpt lat="44.4676" lon="4.07506">
        <ele>669.7</ele>
        <time>2014-05-31T11:15:53Z</time>
      </trkpt>
      <trkpt lat="44.46741" lon="4.07498">
        <ele>669</ele>
        <time>2014-05-31T11:15:55Z</time>
      </trkpt>
      <trkpt lat="44.46733" lon="4.07506">
        <ele>668.4</ele>
        <time>2014-05-31T11:16:00Z</time>
      </trkpt>
      <trkpt lat="44.46746" lon="4.07511">
        <ele>668.5</ele>
        <time>2014-05-31T11:16:05Z</time>
      </trkpt>
      <trkpt lat="44.46759" lon="4.07519">
        <ele>668.5</ele>
        <time>2014-05-31T11:16:10Z</time>
      </trkpt>
      <trkpt lat="44.46772" lon="4.07526">
        <ele>668.7</ele>
        <time>2014-05-31T11:16:13Z</time>
      </trkpt>
      <trkpt lat="44.46788" lon="4.07537">
        <ele>669</ele>
        <time>2014-05-31T11:16:16Z</time>
      </trkpt>
      <trkpt lat="44.46801" lon="4.07546">
        <ele>669</ele>
        <time>2014-05-31T11:16:19Z</time>
      </trkpt>
      <trkpt lat="44.46813" lon="4.07558">
        <ele>669</ele>
        <time>2014-05-31T11:16:21Z</time>
      </trkpt>
      <trkpt lat="44.46824" lon="4.07574">
        <ele>669</ele>
        <time>2014-05-31T11:16:23Z</time>
      </trkpt>
      <trkpt lat="44.46833" lon="4.07592">
        <ele>669</ele>
        <time>2014-05-31T11:16:25Z</time>
      </trkpt>
      <trkpt lat="44.46841" lon="4.07608">
        <ele>669</ele>
        <time>2014-05-31T11:16:27Z</time>
      </trkpt>
      <trkpt lat="44.46849" lon="4.07625">
        <ele>668.8</ele>
        <time>2014-05-31T11:16:29Z</time>
      </trkpt>
      <trkpt lat="44.46839" lon="4.07632">
        <ele>668.5</ele>
        <time>2014-05-31T11:16:33Z</time>
      </trkpt>
      <trkpt lat="44.46825" lon="4.0762">
        <ele>668</ele>
        <time>2014-05-31T11:16:36Z</time>
      </trkpt>
      <trkpt lat="44.46813" lon="4.07609">
        <ele>667.8</ele>
        <time>2014-05-31T11:16:38Z</time>
      </trkpt>
      <trkpt lat="44.46798" lon="4.07598">
        <ele>667.5</ele>
        <time>2014-05-31T11:16:40Z</time>
      </trkpt>
      <trkpt lat="44.46781" lon="4.07588">
        <ele>667.2</ele>
        <time>2014-05-31T11:16:42Z</time>
      </trkpt>
      <trkpt lat="44.46761" lon="4.07583">
        <ele>667</ele>
        <time>2014-05-31T11:16:44Z</time>
      </trkpt>
      <trkpt lat="44.46738" lon="4.07581">
        <ele>665.2</ele>
        <time>2014-05-31T11:16:46Z</time>
      </trkpt>
      <trkpt lat="44.46715" lon="4.07578">
        <ele>663.7</ele>
        <time>2014-05-31T11:16:48Z</time>
      </trkpt>
      <trkpt lat="44.46695" lon="4.0758">
        <ele>663.2</ele>
        <time>2014-05-31T11:16:50Z</time>
      </trkpt>
      <trkpt lat="44.46673" lon="4.07585">
        <ele>662.2</ele>
        <time>2014-05-31T11:16:52Z</time>
      </trkpt>
      <trkpt lat="44.46649" lon="4.07591">
        <ele>660.5</ele>
        <time>2014-05-31T11:16:54Z</time>
      </trkpt>
      <trkpt lat="44.46625" lon="4.07595">
        <ele>659.2</ele>
        <time>2014-05-31T11:16:56Z</time>
      </trkpt>
      <trkpt lat="44.466" lon="4.07598">
        <ele>658.2</ele>
        <time>2014-05-31T11:16:58Z</time>
      </trkpt>
      <trkpt lat="44.46576" lon="4.07599">
        <ele>657.5</ele>
        <time>2014-05-31T11:17:00Z</time>
      </trkpt>
      <trkpt lat="44.46553" lon="4.07594">
        <ele>656.7</ele>
        <time>2014-05-31T11:17:02Z</time>
      </trkpt>
      <trkpt lat="44.46534" lon="4.07583">
        <ele>655.7</ele>
        <time>2014-05-31T11:17:04Z</time>
      </trkpt>
      <trkpt lat="44.46518" lon="4.07566">
        <ele>655.2</ele>
        <time>2014-05-31T11:17:06Z</time>
      </trkpt>
      <trkpt lat="44.46506" lon="4.0755">
        <ele>654.7</ele>
        <time>2014-05-31T11:17:08Z</time>
      </trkpt>
      <trkpt lat="44.46489" lon="4.07544">
        <ele>654.5</ele>
        <time>2014-05-31T11:17:10Z</time>
      </trkpt>
      <trkpt lat="44.46473" lon="4.07541">
        <ele>653.7</ele>
        <time>2014-05-31T11:17:12Z</time>
      </trkpt>
      <trkpt lat="44.46455" lon="4.07534">
        <ele>653.2</ele>
        <time>2014-05-31T11:17:14Z</time>
      </trkpt>
      <trkpt lat="44.46437" lon="4.07526">
        <ele>652.7</ele>
        <time>2014-05-31T11:17:16Z</time>
      </trkpt>
      <trkpt lat="44.4642" lon="4.07516">
        <ele>652.2</ele>
        <time>2014-05-31T11:17:18Z</time>
      </trkpt>
      <trkpt lat="44.46406" lon="4.07501">
        <ele>651.7</ele>
        <time>2014-05-31T11:17:21Z</time>
      </trkpt>
      <trkpt lat="44.46399" lon="4.07512">
        <ele>651.3</ele>
        <time>2014-05-31T11:17:24Z</time>
      </trkpt>
      <trkpt lat="44.46404" lon="4.0753">
        <ele>651</ele>
        <time>2014-05-31T11:17:27Z</time>
      </trkpt>
      <trkpt lat="44.46411" lon="4.07548">
        <ele>650.5</ele>
        <time>2014-05-31T11:17:29Z</time>
      </trkpt>
      <trkpt lat="44.46429" lon="4.07566">
        <ele>646.5</ele>
        <time>2014-05-31T11:17:31Z</time>
      </trkpt>
      <trkpt lat="44.46444" lon="4.07587">
        <ele>646</ele>
        <time>2014-05-31T11:17:33Z</time>
      </trkpt>
      <trkpt lat="44.46458" lon="4.07607">
        <ele>646</ele>
        <time>2014-05-31T11:17:35Z</time>
      </trkpt>
      <trkpt lat="44.46473" lon="4.07624">
        <ele>646</ele>
        <time>2014-05-31T11:17:37Z</time>
      </trkpt>
      <trkpt lat="44.46483" lon="4.07644">
        <ele>646</ele>
        <time>2014-05-31T11:17:39Z</time>
      </trkpt>
      <trkpt lat="44.46494" lon="4.07668">
        <ele>645</ele>
        <time>2014-05-31T11:17:41Z</time>
      </trkpt>
      <trkpt lat="44.46508" lon="4.0769">
        <ele>644</ele>
        <time>2014-05-31T11:17:43Z</time>
      </trkpt>
      <trkpt lat="44.46522" lon="4.07708">
        <ele>644</ele>
        <time>2014-05-31T11:17:45Z</time>
      </trkpt>
      <trkpt lat="44.46539" lon="4.07722">
        <ele>643.7</ele>
        <time>2014-05-31T11:17:47Z</time>
      </trkpt>
      <trkpt lat="44.46556" lon="4.07731">
        <ele>643.2</ele>
        <time>2014-05-31T11:17:49Z</time>
      </trkpt>
      <trkpt lat="44.46574" lon="4.07737">
        <ele>642.7</ele>
        <time>2014-05-31T11:17:51Z</time>
      </trkpt>
      <trkpt lat="44.46591" lon="4.07739">
        <ele>642.5</ele>
        <time>2014-05-31T11:17:53Z</time>
      </trkpt>
      <trkpt lat="44.46609" lon="4.07741">
        <ele>642</ele>
        <time>2014-05-31T11:17:55Z</time>
      </trkpt>
      <trkpt lat="44.46628" lon="4.07742">
        <ele>641.6</ele>
        <time>2014-05-31T11:17:57Z</time>
      </trkpt>
      <trkpt lat="44.4664" lon="4.0775">
        <ele>639</ele>
        <time>2014-05-31T11:18:02Z</time>
      </trkpt>
      <trkpt lat="44.46618" lon="4.07753">
        <ele>633.1</ele>
        <time>2014-05-31T11:18:07Z</time>
      </trkpt>
      <trkpt lat="44.466" lon="4.07755">
        <ele>631.2</ele>
        <time>2014-05-31T11:18:09Z</time>
      </trkpt>
      <trkpt lat="44.46585" lon="4.07759">
        <ele>629.3</ele>
        <time>2014-05-31T11:18:11Z</time>
      </trkpt>
      <trkpt lat="44.46569" lon="4.07765">
        <ele>627.3</ele>
        <time>2014-05-31T11:18:13Z</time>
      </trkpt>
      <trkpt lat="44.46552" lon="4.07768">
        <ele>625.8</ele>
        <time>2014-05-31T11:18:15Z</time>
      </trkpt>
      <trkpt lat="44.46532" lon="4.07768">
        <ele>624.3</ele>
        <time>2014-05-31T11:18:17Z</time>
      </trkpt>
      <trkpt lat="44.46512" lon="4.07769">
        <ele>623.7</ele>
        <time>2014-05-31T11:18:19Z</time>
      </trkpt>
      <trkpt lat="44.46492" lon="4.07767">
        <ele>623.2</ele>
        <time>2014-05-31T11:18:21Z</time>
      </trkpt>
      <trkpt lat="44.46474" lon="4.07762">
        <ele>623</ele>
        <time>2014-05-31T11:18:23Z</time>
      </trkpt>
      <trkpt lat="44.46462" lon="4.07744">
        <ele>622.2</ele>
        <time>2014-05-31T11:18:25Z</time>
      </trkpt>
      <trkpt lat="44.46453" lon="4.07728">
        <ele>621.7</ele>
        <time>2014-05-31T11:18:27Z</time>
      </trkpt>
      <trkpt lat="44.46439" lon="4.07713">
        <ele>620.9</ele>
        <time>2014-05-31T11:18:30Z</time>
      </trkpt>
      <trkpt lat="44.46418" lon="4.0771">
        <ele>620.2</ele>
        <time>2014-05-31T11:18:32Z</time>
      </trkpt>
      <trkpt lat="44.46401" lon="4.07703">
        <ele>620</ele>
        <time>2014-05-31T11:18:34Z</time>
      </trkpt>
      <trkpt lat="44.46387" lon="4.07683">
        <ele>619.5</ele>
        <time>2014-05-31T11:18:36Z</time>
      </trkpt>
      <trkpt lat="44.46373" lon="4.07664">
        <ele>619.2</ele>
        <time>2014-05-31T11:18:38Z</time>
      </trkpt>
      <trkpt lat="44.46359" lon="4.07646">
        <ele>619</ele>
        <time>2014-05-31T11:18:40Z</time>
      </trkpt>
      <trkpt lat="44.46346" lon="4.07634">
        <ele>617.9</ele>
        <time>2014-05-31T11:18:42Z</time>
      </trkpt>
      <trkpt lat="44.46334" lon="4.07627">
        <ele>616.7</ele>
        <time>2014-05-31T11:18:45Z</time>
      </trkpt>
      <trkpt lat="44.46322" lon="4.07649">
        <ele>614.7</ele>
        <time>2014-05-31T11:18:47Z</time>
      </trkpt>
      <trkpt lat="44.46308" lon="4.07662">
        <ele>613.5</ele>
        <time>2014-05-31T11:18:49Z</time>
      </trkpt>
      <trkpt lat="44.46291" lon="4.07674">
        <ele>613</ele>
        <time>2014-05-31T11:18:51Z</time>
      </trkpt>
      <trkpt lat="44.46273" lon="4.07686">
        <ele>612.2</ele>
        <time>2014-05-31T11:18:53Z</time>
      </trkpt>
      <trkpt lat="44.46256" lon="4.07699">
        <ele>609.3</ele>
        <time>2014-05-31T11:18:55Z</time>
      </trkpt>
      <trkpt lat="44.46238" lon="4.07712">
        <ele>608</ele>
        <time>2014-05-31T11:18:57Z</time>
      </trkpt>
      <trkpt lat="44.46219" lon="4.07725">
        <ele>606.7</ele>
        <time>2014-05-31T11:18:59Z</time>
      </trkpt>
      <trkpt lat="44.46199" lon="4.07737">
        <ele>605.3</ele>
        <time>2014-05-31T11:19:01Z</time>
      </trkpt>
      <trkpt lat="44.46181" lon="4.07746">
        <ele>603.2</ele>
        <time>2014-05-31T11:19:03Z</time>
      </trkpt>
      <trkpt lat="44.46166" lon="4.07754">
        <ele>600.6</ele>
        <time>2014-05-31T11:19:05Z</time>
      </trkpt>
      <trkpt lat="44.4616" lon="4.07758">
        <ele>594.2</ele>
        <time>2014-05-31T11:19:08Z</time>
      </trkpt>
      <trkpt lat="44.46122" lon="4.07767">
        <ele>584.4</ele>
        <time>2014-05-31T11:20:03Z</time>
      </trkpt>
      <trkpt lat="44.46105" lon="4.07766">
        <ele>583.7</ele>
        <time>2014-05-31T11:20:05Z</time>
      </trkpt>
      <trkpt lat="44.46091" lon="4.07763">
        <ele>582.7</ele>
        <time>2014-05-31T11:20:07Z</time>
      </trkpt>
      <trkpt lat="44.46076" lon="4.07759">
        <ele>581.8</ele>
        <time>2014-05-31T11:20:09Z</time>
      </trkpt>
      <trkpt lat="44.4606" lon="4.07756">
        <ele>580.5</ele>
        <time>2014-05-31T11:20:11Z</time>
      </trkpt>
      <trkpt lat="44.46046" lon="4.07748">
        <ele>580</ele>
        <time>2014-05-31T11:20:13Z</time>
      </trkpt>
      <trkpt lat="44.46032" lon="4.07736">
        <ele>579.5</ele>
        <time>2014-05-31T11:20:15Z</time>
      </trkpt>
      <trkpt lat="44.46017" lon="4.07723">
        <ele>579.5</ele>
        <time>2014-05-31T11:20:17Z</time>
      </trkpt>
      <trkpt lat="44.46004" lon="4.07708">
        <ele>578.8</ele>
        <time>2014-05-31T11:20:19Z</time>
      </trkpt>
      <trkpt lat="44.45992" lon="4.07695">
        <ele>578.5</ele>
        <time>2014-05-31T11:20:21Z</time>
      </trkpt>
      <trkpt lat="44.45982" lon="4.07681">
        <ele>578.1</ele>
        <time>2014-05-31T11:20:23Z</time>
      </trkpt>
      <trkpt lat="44.45974" lon="4.07667">
        <ele>577.4</ele>
        <time>2014-05-31T11:20:27Z</time>
      </trkpt>
      <trkpt lat="44.45958" lon="4.07663">
        <ele>576.5</ele>
        <time>2014-05-31T11:20:31Z</time>
      </trkpt>
      <trkpt lat="44.45947" lon="4.07676">
        <ele>576</ele>
        <time>2014-05-31T11:20:33Z</time>
      </trkpt>
      <trkpt lat="44.45935" lon="4.07685">
        <ele>575.7</ele>
        <time>2014-05-31T11:20:36Z</time>
      </trkpt>
      <trkpt lat="44.45922" lon="4.07695">
        <ele>575.5</ele>
        <time>2014-05-31T11:20:38Z</time>
      </trkpt>
      <trkpt lat="44.4591" lon="4.07707">
        <ele>575</ele>
        <time>2014-05-31T11:20:40Z</time>
      </trkpt>
      <trkpt lat="44.45898" lon="4.0772">
        <ele>575</ele>
        <time>2014-05-31T11:20:42Z</time>
      </trkpt>
      <trkpt lat="44.45886" lon="4.07731">
        <ele>574.7</ele>
        <time>2014-05-31T11:20:46Z</time>
      </trkpt>
      <trkpt lat="44.45869" lon="4.07731">
        <ele>574.5</ele>
        <time>2014-05-31T11:20:49Z</time>
      </trkpt>
      <trkpt lat="44.45853" lon="4.07723">
        <ele>574</ele>
        <time>2014-05-31T11:20:52Z</time>
      </trkpt>
      <trkpt lat="44.45834" lon="4.07714">
        <ele>573.5</ele>
        <time>2014-05-31T11:20:55Z</time>
      </trkpt>
      <trkpt lat="44.45818" lon="4.07707">
        <ele>573.5</ele>
        <time>2014-05-31T11:20:57Z</time>
      </trkpt>
      <trkpt lat="44.45802" lon="4.077">
        <ele>572.7</ele>
        <time>2014-05-31T11:20:59Z</time>
      </trkpt>
      <trkpt lat="44.45788" lon="4.07689">
        <ele>570.7</ele>
        <time>2014-05-31T11:21:01Z</time>
      </trkpt>
      <trkpt lat="44.45777" lon="4.07678">
        <ele>570.3</ele>
        <time>2014-05-31T11:21:03Z</time>
      </trkpt>
      <trkpt lat="44.45766" lon="4.07664">
        <ele>569.5</ele>
        <time>2014-05-31T11:21:05Z</time>
      </trkpt>
      <trkpt lat="44.45758" lon="4.07645">
        <ele>569.1</ele>
        <time>2014-05-31T11:21:07Z</time>
      </trkpt>
      <trkpt lat="44.45753" lon="4.07628">
        <ele>569</ele>
        <time>2014-05-31T11:21:10Z</time>
      </trkpt>
      <trkpt lat="44.45751" lon="4.07609">
        <ele>569</ele>
        <time>2014-05-31T11:21:13Z</time>
      </trkpt>
      <trkpt lat="44.45743" lon="4.07593">
        <ele>568.6</ele>
        <time>2014-05-31T11:21:16Z</time>
      </trkpt>
      <trkpt lat="44.45731" lon="4.07581">
        <ele>568.2</ele>
        <time>2014-05-31T11:21:19Z</time>
      </trkpt>
      <trkpt lat="44.45721" lon="4.07569">
        <ele>567.7</ele>
        <time>2014-05-31T11:21:21Z</time>
      </trkpt>
      <trkpt lat="44.45713" lon="4.07555">
        <ele>567.7</ele>
        <time>2014-05-31T11:21:23Z</time>
      </trkpt>
      <trkpt lat="44.45703" lon="4.0754">
        <ele>566.6</ele>
        <time>2014-05-31T11:21:25Z</time>
      </trkpt>
      <trkpt lat="44.45691" lon="4.07526">
        <ele>563.4</ele>
        <time>2014-05-31T11:21:28Z</time>
      </trkpt>
      <trkpt lat="44.45678" lon="4.07516">
        <ele>562.6</ele>
        <time>2014-05-31T11:21:31Z</time>
      </trkpt>
      <trkpt lat="44.45665" lon="4.07505">
        <ele>562.5</ele>
        <time>2014-05-31T11:21:34Z</time>
      </trkpt>
      <trkpt lat="44.45651" lon="4.07498">
        <ele>562</ele>
        <time>2014-05-31T11:21:38Z</time>
      </trkpt>
      <trkpt lat="44.45638" lon="4.07506">
        <ele>555.6</ele>
        <time>2014-05-31T11:21:43Z</time>
      </trkpt>
      <trkpt lat="44.45628" lon="4.07521">
        <ele>552.6</ele>
        <time>2014-05-31T11:21:47Z</time>
      </trkpt>
      <trkpt lat="44.4562" lon="4.07536">
        <ele>550.4</ele>
        <time>2014-05-31T11:21:49Z</time>
      </trkpt>
      <trkpt lat="44.45614" lon="4.07551">
        <ele>548.6</ele>
        <time>2014-05-31T11:21:52Z</time>
      </trkpt>
      <trkpt lat="44.4561" lon="4.07569">
        <ele>546.4</ele>
        <time>2014-05-31T11:21:55Z</time>
      </trkpt>
      <trkpt lat="44.45604" lon="4.0759">
        <ele>545.1</ele>
        <time>2014-05-31T11:21:58Z</time>
      </trkpt>
      <trkpt lat="44.45595" lon="4.07608">
        <ele>544.1</ele>
        <time>2014-05-31T11:22:02Z</time>
      </trkpt>
      <trkpt lat="44.45596" lon="4.07621">
        <ele>544</ele>
        <time>2014-05-31T11:22:06Z</time>
      </trkpt>
      <trkpt lat="44.45591" lon="4.07635">
        <ele>543.9</ele>
        <time>2014-05-31T11:22:10Z</time>
      </trkpt>
      <trkpt lat="44.45583" lon="4.07649">
        <ele>543.5</ele>
        <time>2014-05-31T11:22:14Z</time>
      </trkpt>
      <trkpt lat="44.45576" lon="4.07664">
        <ele>543.4</ele>
        <time>2014-05-31T11:22:18Z</time>
      </trkpt>
      <trkpt lat="44.45569" lon="4.07679">
        <ele>543</ele>
        <time>2014-05-31T11:22:22Z</time>
      </trkpt>
      <trkpt lat="44.45557" lon="4.07696">
        <ele>542.8</ele>
        <time>2014-05-31T11:22:25Z</time>
      </trkpt>
      <trkpt lat="44.45545" lon="4.07711">
        <ele>542.3</ele>
        <time>2014-05-31T11:22:28Z</time>
      </trkpt>
      <trkpt lat="44.45534" lon="4.07721">
        <ele>542</ele>
        <time>2014-05-31T11:22:31Z</time>
      </trkpt>
      <trkpt lat="44.4552" lon="4.07732">
        <ele>541.3</ele>
        <time>2014-05-31T11:22:34Z</time>
      </trkpt>
      <trkpt lat="44.45505" lon="4.07739">
        <ele>540.7</ele>
        <time>2014-05-31T11:22:38Z</time>
      </trkpt>
      <trkpt lat="44.45487" lon="4.07742">
        <ele>539.9</ele>
        <time>2014-05-31T11:22:42Z</time>
      </trkpt>
      <trkpt lat="44.4547" lon="4.07736">
        <ele>538.9</ele>
        <time>2014-05-31T11:22:46Z</time>
      </trkpt>
      <trkpt lat="44.45455" lon="4.07727">
        <ele>537.6</ele>
        <time>2014-05-31T11:22:50Z</time>
      </trkpt>
      <trkpt lat="44.45443" lon="4.07712">
        <ele>537</ele>
        <time>2014-05-31T11:22:53Z</time>
      </trkpt>
      <trkpt lat="44.45434" lon="4.07696">
        <ele>536.1</ele>
        <time>2014-05-31T11:22:56Z</time>
      </trkpt>
      <trkpt lat="44.45425" lon="4.07678">
        <ele>535.5</ele>
        <time>2014-05-31T11:22:59Z</time>
      </trkpt>
      <trkpt lat="44.45419" lon="4.07659">
        <ele>531.3</ele>
        <time>2014-05-31T11:23:02Z</time>
      </trkpt>
      <trkpt lat="44.45416" lon="4.07642">
        <ele>525.2</ele>
        <time>2014-05-31T11:23:04Z</time>
      </trkpt>
      <trkpt lat="44.45413" lon="4.07627">
        <ele>519.5</ele>
        <time>2014-05-31T11:23:06Z</time>
      </trkpt>
      <trkpt lat="44.4541" lon="4.0761">
        <ele>510.3</ele>
        <time>2014-05-31T11:23:08Z</time>
      </trkpt>
      <trkpt lat="44.45408" lon="4.07595">
        <ele>503.2</ele>
        <time>2014-05-31T11:23:10Z</time>
      </trkpt>
      <trkpt lat="44.45404" lon="4.07577">
        <ele>495.5</ele>
        <time>2014-05-31T11:23:13Z</time>
      </trkpt>
      <trkpt lat="44.45397" lon="4.07563">
        <ele>493.6</ele>
        <time>2014-05-31T11:23:17Z</time>
      </trkpt>
      <trkpt lat="44.45386" lon="4.07557">
        <ele>492.6</ele>
        <time>2014-05-31T11:23:22Z</time>
      </trkpt>
      <trkpt lat="44.45369" lon="4.07562">
        <ele>491.5</ele>
        <time>2014-05-31T11:23:28Z</time>
      </trkpt>
      <trkpt lat="44.45353" lon="4.07569">
        <ele>491.5</ele>
        <time>2014-05-31T11:23:32Z</time>
      </trkpt>
      <trkpt lat="44.45339" lon="4.07574">
        <ele>491.7</ele>
        <time>2014-05-31T11:23:37Z</time>
      </trkpt>
      <trkpt lat="44.45323" lon="4.07577">
        <ele>491.4</ele>
        <time>2014-05-31T11:23:41Z</time>
      </trkpt>
      <trkpt lat="44.45308" lon="4.07573">
        <ele>491.3</ele>
        <time>2014-05-31T11:23:45Z</time>
      </trkpt>
      <trkpt lat="44.45294" lon="4.07561">
        <ele>489.3</ele>
        <time>2014-05-31T11:23:48Z</time>
      </trkpt>
      <trkpt lat="44.45279" lon="4.07551">
        <ele>488.3</ele>
        <time>2014-05-31T11:23:50Z</time>
      </trkpt>
      <trkpt lat="44.45263" lon="4.07551">
        <ele>487.5</ele>
        <time>2014-05-31T11:23:54Z</time>
      </trkpt>
      <trkpt lat="44.45249" lon="4.07563">
        <ele>487.5</ele>
        <time>2014-05-31T11:23:55Z</time>
      </trkpt>
      <trkpt lat="44.45235" lon="4.07575">
        <ele>487</ele>
        <time>2014-05-31T11:23:57Z</time>
      </trkpt>
      <trkpt lat="44.45223" lon="4.07586">
        <ele>486.5</ele>
        <time>2014-05-31T11:23:59Z</time>
      </trkpt>
      <trkpt lat="44.45209" lon="4.07597">
        <ele>486.5</ele>
        <time>2014-05-31T11:24:02Z</time>
      </trkpt>
      <trkpt lat="44.45195" lon="4.07607">
        <ele>486</ele>
        <time>2014-05-31T11:24:03Z</time>
      </trkpt>
      <trkpt lat="44.45182" lon="4.07617">
        <ele>485.5</ele>
        <time>2014-05-31T11:24:05Z</time>
      </trkpt>
      <trkpt lat="44.45169" lon="4.07626">
        <ele>485</ele>
        <time>2014-05-31T11:24:07Z</time>
      </trkpt>
      <trkpt lat="44.45157" lon="4.07635">
        <ele>485</ele>
        <time>2014-05-31T11:24:10Z</time>
      </trkpt>
      <trkpt lat="44.45143" lon="4.07644">
        <ele>484.8</ele>
        <time>2014-05-31T11:24:11Z</time>
      </trkpt>
      <trkpt lat="44.45127" lon="4.07652">
        <ele>484</ele>
        <time>2014-05-31T11:24:15Z</time>
      </trkpt>
      <trkpt lat="44.45109" lon="4.07657">
        <ele>483.3</ele>
        <time>2014-05-31T11:24:18Z</time>
      </trkpt>
      <trkpt lat="44.45096" lon="4.07649">
        <ele>479</ele>
        <time>2014-05-31T11:24:20Z</time>
      </trkpt>
      <trkpt lat="44.45087" lon="4.07636">
        <ele>474.5</ele>
        <time>2014-05-31T11:24:22Z</time>
      </trkpt>
      <trkpt lat="44.45081" lon="4.07618">
        <ele>470.5</ele>
        <time>2014-05-31T11:24:24Z</time>
      </trkpt>
      <trkpt lat="44.45076" lon="4.07599">
        <ele>467.5</ele>
        <time>2014-05-31T11:24:27Z</time>
      </trkpt>
      <trkpt lat="44.45071" lon="4.0758">
        <ele>465</ele>
        <time>2014-05-31T11:24:29Z</time>
      </trkpt>
      <trkpt lat="44.45068" lon="4.07564">
        <ele>463.3</ele>
        <time>2014-05-31T11:24:31Z</time>
      </trkpt>
      <trkpt lat="44.45062" lon="4.07562">
        <ele>461.5</ele>
        <time>2014-05-31T11:24:35Z</time>
      </trkpt>
      <trkpt lat="44.45065" lon="4.07583">
        <ele>460.5</ele>
        <time>2014-05-31T11:24:40Z</time>
      </trkpt>
      <trkpt lat="44.45068" lon="4.07598">
        <ele>460</ele>
        <time>2014-05-31T11:24:43Z</time>
      </trkpt>
      <trkpt lat="44.45071" lon="4.07614">
        <ele>459.3</ele>
        <time>2014-05-31T11:24:46Z</time>
      </trkpt>
      <trkpt lat="44.45078" lon="4.07629">
        <ele>459.5</ele>
        <time>2014-05-31T11:24:49Z</time>
      </trkpt>
      <trkpt lat="44.45069" lon="4.07633">
        <ele>456.8</ele>
        <time>2014-05-31T11:24:54Z</time>
      </trkpt>
      <trkpt lat="44.45059" lon="4.07616">
        <ele>455.3</ele>
        <time>2014-05-31T11:24:57Z</time>
      </trkpt>
      <trkpt lat="44.4505" lon="4.07597">
        <ele>453.5</ele>
        <time>2014-05-31T11:25:00Z</time>
      </trkpt>
      <trkpt lat="44.45041" lon="4.07578">
        <ele>451.5</ele>
        <time>2014-05-31T11:25:01Z</time>
      </trkpt>
      <trkpt lat="44.45032" lon="4.07556">
        <ele>450</ele>
        <time>2014-05-31T11:25:04Z</time>
      </trkpt>
      <trkpt lat="44.45023" lon="4.07533">
        <ele>449</ele>
        <time>2014-05-31T11:25:06Z</time>
      </trkpt>
      <trkpt lat="44.45012" lon="4.0751">
        <ele>447.5</ele>
        <time>2014-05-31T11:25:07Z</time>
      </trkpt>
      <trkpt lat="44.45001" lon="4.07488">
        <ele>446.5</ele>
        <time>2014-05-31T11:25:08Z</time>
      </trkpt>
      <trkpt lat="44.44989" lon="4.07467">
        <ele>445.5</ele>
        <time>2014-05-31T11:25:12Z</time>
      </trkpt>
      <trkpt lat="44.44978" lon="4.07448">
        <ele>444</ele>
        <time>2014-05-31T11:25:13Z</time>
      </trkpt>
      <trkpt lat="44.44967" lon="4.07431">
        <ele>442</ele>
        <time>2014-05-31T11:25:15Z</time>
      </trkpt>
      <trkpt lat="44.44961" lon="4.07413">
        <ele>441</ele>
        <time>2014-05-31T11:25:18Z</time>
      </trkpt>
      <trkpt lat="44.44958" lon="4.07394">
        <ele>439.5</ele>
        <time>2014-05-31T11:25:20Z</time>
      </trkpt>
      <trkpt lat="44.44955" lon="4.07378">
        <ele>439</ele>
        <time>2014-05-31T11:25:21Z</time>
      </trkpt>
      <trkpt lat="44.44947" lon="4.07365">
        <ele>439</ele>
        <time>2014-05-31T11:25:24Z</time>
      </trkpt>
      <trkpt lat="44.44933" lon="4.07365">
        <ele>438.5</ele>
        <time>2014-05-31T11:25:26Z</time>
      </trkpt>
      <trkpt lat="44.44924" lon="4.07382">
        <ele>438</ele>
        <time>2014-05-31T11:25:28Z</time>
      </trkpt>
      <trkpt lat="44.44912" lon="4.07398">
        <ele>437.5</ele>
        <time>2014-05-31T11:25:30Z</time>
      </trkpt>
      <trkpt lat="44.44903" lon="4.07415">
        <ele>437.5</ele>
        <time>2014-05-31T11:25:32Z</time>
      </trkpt>
      <trkpt lat="44.44892" lon="4.07431">
        <ele>437</ele>
        <time>2014-05-31T11:25:34Z</time>
      </trkpt>
      <trkpt lat="44.4488" lon="4.07445">
        <ele>436.5</ele>
        <time>2014-05-31T11:25:37Z</time>
      </trkpt>
      <trkpt lat="44.44866" lon="4.07462">
        <ele>436.5</ele>
        <time>2014-05-31T11:25:39Z</time>
      </trkpt>
      <trkpt lat="44.44852" lon="4.07483">
        <ele>436.5</ele>
        <time>2014-05-31T11:25:40Z</time>
      </trkpt>
      <trkpt lat="44.44839" lon="4.07506">
        <ele>433.5</ele>
        <time>2014-05-31T11:25:43Z</time>
      </trkpt>
      <trkpt lat="44.44831" lon="4.07532">
        <ele>432</ele>
        <time>2014-05-31T11:25:45Z</time>
      </trkpt>
      <trkpt lat="44.44823" lon="4.07557">
        <ele>430</ele>
        <time>2014-05-31T11:25:46Z</time>
      </trkpt>
      <trkpt lat="44.44816" lon="4.0758">
        <ele>428</ele>
        <time>2014-05-31T11:25:49Z</time>
      </trkpt>
      <trkpt lat="44.44806" lon="4.07605">
        <ele>425.5</ele>
        <time>2014-05-31T11:25:50Z</time>
      </trkpt>
      <trkpt lat="44.44801" lon="4.07619">
        <ele>425.5</ele>
        <time>2014-05-31T11:25:51Z</time>
      </trkpt>
      <trkpt lat="44.44796" lon="4.07633">
        <ele>424.5</ele>
        <time>2014-05-31T11:25:52Z</time>
      </trkpt>
      <trkpt lat="44.44784" lon="4.07659">
        <ele>423.5</ele>
        <time>2014-05-31T11:25:53Z</time>
      </trkpt>
      <trkpt lat="44.44772" lon="4.07683">
        <ele>423</ele>
        <time>2014-05-31T11:25:57Z</time>
      </trkpt>
      <trkpt lat="44.44762" lon="4.07703">
        <ele>422.5</ele>
        <time>2014-05-31T11:25:58Z</time>
      </trkpt>
      <trkpt lat="44.44748" lon="4.07708">
        <ele>421</ele>
        <time>2014-05-31T11:26:01Z</time>
      </trkpt>
      <trkpt lat="44.44734" lon="4.07693">
        <ele>418.5</ele>
        <time>2014-05-31T11:26:04Z</time>
      </trkpt>
      <trkpt lat="44.44722" lon="4.07678">
        <ele>418</ele>
        <time>2014-05-31T11:26:05Z</time>
      </trkpt>
      <trkpt lat="44.44708" lon="4.07665">
        <ele>417.5</ele>
        <time>2014-05-31T11:26:06Z</time>
      </trkpt>
      <trkpt lat="44.44691" lon="4.07653">
        <ele>416.5</ele>
        <time>2014-05-31T11:26:10Z</time>
      </trkpt>
      <trkpt lat="44.44673" lon="4.07641">
        <ele>415.5</ele>
        <time>2014-05-31T11:26:11Z</time>
      </trkpt>
      <trkpt lat="44.44656" lon="4.0763">
        <ele>414.8</ele>
        <time>2014-05-31T11:26:14Z</time>
      </trkpt>
      <trkpt lat="44.44649" lon="4.07618">
        <ele>409</ele>
        <time>2014-05-31T11:26:17Z</time>
      </trkpt>
      <trkpt lat="44.44648" lon="4.0761">
        <ele>401.8</ele>
        <time>2014-05-31T11:26:46Z</time>
      </trkpt>
      <trkpt lat="44.44633" lon="4.07591">
        <ele>398</ele>
        <time>2014-05-31T11:26:55Z</time>
      </trkpt>
      <trkpt lat="44.44621" lon="4.07586">
        <ele>394.5</ele>
        <time>2014-05-31T11:27:10Z</time>
      </trkpt>
      <trkpt lat="44.44615" lon="4.07589">
        <ele>388.2</ele>
        <time>2014-05-31T11:27:26Z</time>
      </trkpt>
      <trkpt lat="44.44617" lon="4.07556">
        <ele>374</ele>
        <time>2014-05-31T11:28:57Z</time>
      </trkpt>
      <trkpt lat="44.44612" lon="4.07538">
        <ele>373.5</ele>
        <time>2014-05-31T11:29:00Z</time>
      </trkpt>
      <trkpt lat="44.44608" lon="4.07521">
        <ele>373</ele>
        <time>2014-05-31T11:29:02Z</time>
      </trkpt>
      <trkpt lat="44.44608" lon="4.07503">
        <ele>373</ele>
        <time>2014-05-31T11:29:03Z</time>
      </trkpt>
      <trkpt lat="44.44612" lon="4.07488">
        <ele>373.5</ele>
        <time>2014-05-31T11:29:06Z</time>
      </trkpt>
      <trkpt lat="44.44616" lon="4.07473">
        <ele>374</ele>
        <time>2014-05-31T11:29:08Z</time>
      </trkpt>
      <trkpt lat="44.44619" lon="4.07456">
        <ele>374</ele>
        <time>2014-05-31T11:29:10Z</time>
      </trkpt>
      <trkpt lat="44.44621" lon="4.07437">
        <ele>374</ele>
        <time>2014-05-31T11:29:14Z</time>
      </trkpt>
      <trkpt lat="44.44616" lon="4.07431">
        <ele>373.1</ele>
        <time>2014-05-31T11:29:16Z</time>
      </trkpt>
      <trkpt lat="44.44613" lon="4.07455">
        <ele>372</ele>
        <time>2014-05-31T11:30:05Z</time>
      </trkpt>
      <trkpt lat="44.44608" lon="4.07474">
        <ele>371.8</ele>
        <time>2014-05-31T11:30:07Z</time>
      </trkpt>
      <trkpt lat="44.446" lon="4.07492">
        <ele>371</ele>
        <time>2014-05-31T11:30:11Z</time>
      </trkpt>
      <trkpt lat="44.44595" lon="4.07509">
        <ele>371</ele>
        <time>2014-05-31T11:30:13Z</time>
      </trkpt>
      <trkpt lat="44.44594" lon="4.0753">
        <ele>371</ele>
        <time>2014-05-31T11:30:14Z</time>
      </trkpt>
      <trkpt lat="44.44594" lon="4.0755">
        <ele>371</ele>
        <time>2014-05-31T11:30:17Z</time>
      </trkpt>
      <trkpt lat="44.4459" lon="4.07568">
        <ele>370.5</ele>
        <time>2014-05-31T11:30:19Z</time>
      </trkpt>
      <trkpt lat="44.4458" lon="4.07585">
        <ele>369.5</ele>
        <time>2014-05-31T11:30:20Z</time>
      </trkpt>
      <trkpt lat="44.44573" lon="4.07607">
        <ele>369</ele>
        <time>2014-05-31T11:30:23Z</time>
      </trkpt>
      <trkpt lat="44.44569" lon="4.0763">
        <ele>368.5</ele>
        <time>2014-05-31T11:30:25Z</time>
      </trkpt>
      <trkpt lat="44.44574" lon="4.07661">
        <ele>368.5</ele>
        <time>2014-05-31T11:30:29Z</time>
      </trkpt>
      <trkpt lat="44.44585" lon="4.07675">
        <ele>368</ele>
        <time>2014-05-31T11:30:32Z</time>
      </trkpt>
      <trkpt lat="44.4458" lon="4.07691">
        <ele>366.9</ele>
        <time>2014-05-31T11:30:37Z</time>
      </trkpt>
      <trkpt lat="44.44565" lon="4.07689">
        <ele>363.5</ele>
        <time>2014-05-31T11:30:40Z</time>
      </trkpt>
      <trkpt lat="44.44549" lon="4.07653">
        <ele>365.3</ele>
        <time>2014-05-31T11:31:31Z</time>
      </trkpt>
      <trkpt lat="44.44551" lon="4.07635">
        <ele>365</ele>
        <time>2014-05-31T11:31:34Z</time>
      </trkpt>
      <trkpt lat="44.44555" lon="4.07614">
        <ele>363.5</ele>
        <time>2014-05-31T11:31:36Z</time>
      </trkpt>
      <trkpt lat="44.44556" lon="4.07595">
        <ele>362.5</ele>
        <time>2014-05-31T11:31:39Z</time>
      </trkpt>
      <trkpt lat="44.44557" lon="4.07575">
        <ele>361.5</ele>
        <time>2014-05-31T11:31:41Z</time>
      </trkpt>
      <trkpt lat="44.44558" lon="4.07553">
        <ele>360.5</ele>
        <time>2014-05-31T11:31:42Z</time>
      </trkpt>
      <trkpt lat="44.44558" lon="4.07529">
        <ele>360.5</ele>
        <time>2014-05-31T11:31:44Z</time>
      </trkpt>
      <trkpt lat="44.44557" lon="4.07504">
        <ele>360</ele>
        <time>2014-05-31T11:31:47Z</time>
      </trkpt>
      <trkpt lat="44.44559" lon="4.07479">
        <ele>359</ele>
        <time>2014-05-31T11:31:48Z</time>
      </trkpt>
      <trkpt lat="44.44562" lon="4.07454">
        <ele>358.5</ele>
        <time>2014-05-31T11:31:50Z</time>
      </trkpt>
      <trkpt lat="44.44559" lon="4.07428">
        <ele>357</ele>
        <time>2014-05-31T11:31:53Z</time>
      </trkpt>
      <trkpt lat="44.44553" lon="4.07403">
        <ele>355.5</ele>
        <time>2014-05-31T11:31:54Z</time>
      </trkpt>
      <trkpt lat="44.44545" lon="4.07377">
        <ele>353.5</ele>
        <time>2014-05-31T11:31:56Z</time>
      </trkpt>
      <trkpt lat="44.4454" lon="4.07364">
        <ele>352.5</ele>
        <time>2014-05-31T11:31:58Z</time>
      </trkpt>
      <trkpt lat="44.44531" lon="4.07337">
        <ele>351.5</ele>
        <time>2014-05-31T11:32:00Z</time>
      </trkpt>
      <trkpt lat="44.44522" lon="4.07314">
        <ele>349.5</ele>
        <time>2014-05-31T11:32:01Z</time>
      </trkpt>
      <trkpt lat="44.44512" lon="4.07292">
        <ele>347.5</ele>
        <time>2014-05-31T11:32:03Z</time>
      </trkpt>
      <trkpt lat="44.445" lon="4.07274">
        <ele>345</ele>
        <time>2014-05-31T11:32:06Z</time>
      </trkpt>
      <trkpt lat="44.44489" lon="4.07259">
        <ele>344</ele>
        <time>2014-05-31T11:32:07Z</time>
      </trkpt>
      <trkpt lat="44.44481" lon="4.07244">
        <ele>342</ele>
        <time>2014-05-31T11:32:09Z</time>
      </trkpt>
      <trkpt lat="44.44477" lon="4.07227">
        <ele>340</ele>
        <time>2014-05-31T11:32:12Z</time>
      </trkpt>
      <trkpt lat="44.44481" lon="4.07208">
        <ele>337.5</ele>
        <time>2014-05-31T11:32:14Z</time>
      </trkpt>
      <trkpt lat="44.4449" lon="4.07195">
        <ele>336.5</ele>
        <time>2014-05-31T11:32:17Z</time>
      </trkpt>
      <trkpt lat="44.44501" lon="4.07183">
        <ele>334.5</ele>
        <time>2014-05-31T11:32:19Z</time>
      </trkpt>
      <trkpt lat="44.4451" lon="4.0717">
        <ele>333.5</ele>
        <time>2014-05-31T11:32:20Z</time>
      </trkpt>
      <trkpt lat="44.4452" lon="4.07157">
        <ele>333</ele>
        <time>2014-05-31T11:32:22Z</time>
      </trkpt>
      <trkpt lat="44.44531" lon="4.07144">
        <ele>332</ele>
        <time>2014-05-31T11:32:25Z</time>
      </trkpt>
      <trkpt lat="44.44543" lon="4.07131">
        <ele>330.5</ele>
        <time>2014-05-31T11:32:26Z</time>
      </trkpt>
      <trkpt lat="44.44555" lon="4.07118">
        <ele>329.5</ele>
        <time>2014-05-31T11:32:28Z</time>
      </trkpt>
      <trkpt lat="44.44568" lon="4.07104">
        <ele>328</ele>
        <time>2014-05-31T11:32:31Z</time>
      </trkpt>
      <trkpt lat="44.44579" lon="4.07091">
        <ele>326.8</ele>
        <time>2014-05-31T11:32:32Z</time>
      </trkpt>
      <trkpt lat="44.4459" lon="4.07072">
        <ele>326</ele>
        <time>2014-05-31T11:32:34Z</time>
      </trkpt>
      <trkpt lat="44.44599" lon="4.07049">
        <ele>326</ele>
        <time>2014-05-31T11:32:36Z</time>
      </trkpt>
      <trkpt lat="44.44604" lon="4.07026">
        <ele>326</ele>
        <time>2014-05-31T11:32:38Z</time>
      </trkpt>
      <trkpt lat="44.44609" lon="4.07001">
        <ele>325.7</ele>
        <time>2014-05-31T11:32:40Z</time>
      </trkpt>
      <trkpt lat="44.44609" lon="4.06974">
        <ele>324.8</ele>
        <time>2014-05-31T11:32:42Z</time>
      </trkpt>
      <trkpt lat="44.44608" lon="4.06955">
        <ele>324</ele>
        <time>2014-05-31T11:32:44Z</time>
      </trkpt>
      <trkpt lat="44.44607" lon="4.06941">
        <ele>324</ele>
        <time>2014-05-31T11:32:45Z</time>
      </trkpt>
      <trkpt lat="44.44604" lon="4.06902">
        <ele>323.2</ele>
        <time>2014-05-31T11:32:47Z</time>
      </trkpt>
      <trkpt lat="44.44606" lon="4.06874">
        <ele>322.7</ele>
        <time>2014-05-31T11:32:49Z</time>
      </trkpt>
      <trkpt lat="44.44613" lon="4.0685">
        <ele>322.2</ele>
        <time>2014-05-31T11:32:51Z</time>
      </trkpt>
      <trkpt lat="44.44622" lon="4.06825">
        <ele>322</ele>
        <time>2014-05-31T11:32:53Z</time>
      </trkpt>
      <trkpt lat="44.4462" lon="4.068">
        <ele>321.7</ele>
        <time>2014-05-31T11:32:55Z</time>
      </trkpt>
      <trkpt lat="44.44608" lon="4.06781">
        <ele>320.8</ele>
        <time>2014-05-31T11:32:57Z</time>
      </trkpt>
      <trkpt lat="44.44594" lon="4.06765">
        <ele>319.2</ele>
        <time>2014-05-31T11:32:59Z</time>
      </trkpt>
      <trkpt lat="44.44579" lon="4.06748">
        <ele>317.7</ele>
        <time>2014-05-31T11:33:01Z</time>
      </trkpt>
      <trkpt lat="44.44566" lon="4.06728">
        <ele>316.3</ele>
        <time>2014-05-31T11:33:03Z</time>
      </trkpt>
      <trkpt lat="44.44555" lon="4.06708">
        <ele>315.2</ele>
        <time>2014-05-31T11:33:05Z</time>
      </trkpt>
      <trkpt lat="44.44544" lon="4.06687">
        <ele>314.2</ele>
        <time>2014-05-31T11:33:07Z</time>
      </trkpt>
      <trkpt lat="44.44536" lon="4.06666">
        <ele>313.2</ele>
        <time>2014-05-31T11:33:09Z</time>
      </trkpt>
      <trkpt lat="44.44533" lon="4.06643">
        <ele>312.7</ele>
        <time>2014-05-31T11:33:11Z</time>
      </trkpt>
      <trkpt lat="44.44535" lon="4.06622">
        <ele>312.2</ele>
        <time>2014-05-31T11:33:13Z</time>
      </trkpt>
      <trkpt lat="44.44542" lon="4.066">
        <ele>311.3</ele>
        <time>2014-05-31T11:33:15Z</time>
      </trkpt>
      <trkpt lat="44.44548" lon="4.0658">
        <ele>310.3</ele>
        <time>2014-05-31T11:33:17Z</time>
      </trkpt>
      <trkpt lat="44.44542" lon="4.06568">
        <ele>308.7</ele>
        <time>2014-05-31T11:33:20Z</time>
      </trkpt>
      <trkpt lat="44.44536" lon="4.06585">
        <ele>308.7</ele>
        <time>2014-05-31T11:33:23Z</time>
      </trkpt>
      <trkpt lat="44.44532" lon="4.06602">
        <ele>308.5</ele>
        <time>2014-05-31T11:33:25Z</time>
      </trkpt>
      <trkpt lat="44.44526" lon="4.06619">
        <ele>308.5</ele>
        <time>2014-05-31T11:33:27Z</time>
      </trkpt>
      <trkpt lat="44.44521" lon="4.06637">
        <ele>308.3</ele>
        <time>2014-05-31T11:33:29Z</time>
      </trkpt>
      <trkpt lat="44.44523" lon="4.06659">
        <ele>308</ele>
        <time>2014-05-31T11:33:31Z</time>
      </trkpt>
      <trkpt lat="44.44531" lon="4.06679">
        <ele>307.7</ele>
        <time>2014-05-31T11:33:33Z</time>
      </trkpt>
      <trkpt lat="44.44531" lon="4.06695">
        <ele>307.6</ele>
        <time>2014-05-31T11:33:36Z</time>
      </trkpt>
      <trkpt lat="44.44517" lon="4.06686">
        <ele>307.1</ele>
        <time>2014-05-31T11:33:40Z</time>
      </trkpt>
      <trkpt lat="44.44508" lon="4.06668">
        <ele>306.1</ele>
        <time>2014-05-31T11:33:43Z</time>
      </trkpt>
      <trkpt lat="44.44502" lon="4.06649">
        <ele>305.3</ele>
        <time>2014-05-31T11:33:46Z</time>
      </trkpt>
      <trkpt lat="44.445" lon="4.06632">
        <ele>304.5</ele>
        <time>2014-05-31T11:33:49Z</time>
      </trkpt>
      <trkpt lat="44.44505" lon="4.06616">
        <ele>303.7</ele>
        <time>2014-05-31T11:33:51Z</time>
      </trkpt>
      <trkpt lat="44.44512" lon="4.06601">
        <ele>302.7</ele>
        <time>2014-05-31T11:33:53Z</time>
      </trkpt>
      <trkpt lat="44.44517" lon="4.06584">
        <ele>302</ele>
        <time>2014-05-31T11:33:55Z</time>
      </trkpt>
      <trkpt lat="44.44508" lon="4.0657">
        <ele>299.9</ele>
        <time>2014-05-31T11:33:58Z</time>
      </trkpt>
      <trkpt lat="44.44498" lon="4.06585">
        <ele>299.5</ele>
        <time>2014-05-31T11:34:01Z</time>
      </trkpt>
      <trkpt lat="44.44492" lon="4.066">
        <ele>299.5</ele>
        <time>2014-05-31T11:34:03Z</time>
      </trkpt>
      <trkpt lat="44.44484" lon="4.06617">
        <ele>299.2</ele>
        <time>2014-05-31T11:34:05Z</time>
      </trkpt>
      <trkpt lat="44.44484" lon="4.06647">
        <ele>298.3</ele>
        <time>2014-05-31T11:34:08Z</time>
      </trkpt>
      <trkpt lat="44.44491" lon="4.06666">
        <ele>298</ele>
        <time>2014-05-31T11:34:10Z</time>
      </trkpt>
      <trkpt lat="44.44481" lon="4.06679">
        <ele>297.1</ele>
        <time>2014-05-31T11:34:13Z</time>
      </trkpt>
      <trkpt lat="44.44469" lon="4.06666">
        <ele>295.7</ele>
        <time>2014-05-31T11:34:16Z</time>
      </trkpt>
      <trkpt lat="44.44463" lon="4.06651">
        <ele>294.7</ele>
        <time>2014-05-31T11:34:18Z</time>
      </trkpt>
      <trkpt lat="44.44461" lon="4.06633">
        <ele>293.7</ele>
        <time>2014-05-31T11:34:20Z</time>
      </trkpt>
      <trkpt lat="44.44465" lon="4.06617">
        <ele>292.7</ele>
        <time>2014-05-31T11:34:22Z</time>
      </trkpt>
      <trkpt lat="44.4446" lon="4.06601">
        <ele>290.2</ele>
        <time>2014-05-31T11:34:24Z</time>
      </trkpt>
      <trkpt lat="44.44445" lon="4.06609">
        <ele>289</ele>
        <time>2014-05-31T11:34:27Z</time>
      </trkpt>
      <trkpt lat="44.44443" lon="4.06624">
        <ele>288.5</ele>
        <time>2014-05-31T11:34:29Z</time>
      </trkpt>
      <trkpt lat="44.44445" lon="4.06642">
        <ele>288.2</ele>
        <time>2014-05-31T11:34:31Z</time>
      </trkpt>
      <trkpt lat="44.44449" lon="4.06661">
        <ele>288</ele>
        <time>2014-05-31T11:34:33Z</time>
      </trkpt>
      <trkpt lat="44.44457" lon="4.0668">
        <ele>287.2</ele>
        <time>2014-05-31T11:34:35Z</time>
      </trkpt>
      <trkpt lat="44.44467" lon="4.06697">
        <ele>286.2</ele>
        <time>2014-05-31T11:34:37Z</time>
      </trkpt>
      <trkpt lat="44.44476" lon="4.06715">
        <ele>284.5</ele>
        <time>2014-05-31T11:34:39Z</time>
      </trkpt>
      <trkpt lat="44.44488" lon="4.06741">
        <ele>282.5</ele>
        <time>2014-05-31T11:34:41Z</time>
      </trkpt>
      <trkpt lat="44.44493" lon="4.06764">
        <ele>282.5</ele>
        <time>2014-05-31T11:34:44Z</time>
      </trkpt>
      <trkpt lat="44.44493" lon="4.06786">
        <ele>283</ele>
        <time>2014-05-31T11:34:45Z</time>
      </trkpt>
      <trkpt lat="44.44493" lon="4.06807">
        <ele>283</ele>
        <time>2014-05-31T11:34:47Z</time>
      </trkpt>
      <trkpt lat="44.44492" lon="4.06832">
        <ele>283</ele>
        <time>2014-05-31T11:34:50Z</time>
      </trkpt>
      <trkpt lat="44.44486" lon="4.06858">
        <ele>283</ele>
        <time>2014-05-31T11:34:51Z</time>
      </trkpt>
      <trkpt lat="44.44476" lon="4.06879">
        <ele>283</ele>
        <time>2014-05-31T11:34:53Z</time>
      </trkpt>
      <trkpt lat="44.44467" lon="4.06901">
        <ele>282.5</ele>
        <time>2014-05-31T11:34:55Z</time>
      </trkpt>
      <trkpt lat="44.44464" lon="4.06925">
        <ele>283</ele>
        <time>2014-05-31T11:34:57Z</time>
      </trkpt>
      <trkpt lat="44.44463" lon="4.06953">
        <ele>282</ele>
        <time>2014-05-31T11:34:59Z</time>
      </trkpt>
      <trkpt lat="44.44462" lon="4.0698">
        <ele>282</ele>
        <time>2014-05-31T11:35:01Z</time>
      </trkpt>
      <trkpt lat="44.44462" lon="4.07004">
        <ele>281</ele>
        <time>2014-05-31T11:35:04Z</time>
      </trkpt>
      <trkpt lat="44.44459" lon="4.07026">
        <ele>280</ele>
        <time>2014-05-31T11:35:05Z</time>
      </trkpt>
      <trkpt lat="44.4445" lon="4.07039">
        <ele>278.5</ele>
        <time>2014-05-31T11:35:07Z</time>
      </trkpt>
      <trkpt lat="44.44442" lon="4.07054">
        <ele>277.5</ele>
        <time>2014-05-31T11:35:10Z</time>
      </trkpt>
      <trkpt lat="44.44435" lon="4.0707">
        <ele>277.5</ele>
        <time>2014-05-31T11:35:12Z</time>
      </trkpt>
      <trkpt lat="44.44427" lon="4.07082">
        <ele>277</ele>
        <time>2014-05-31T11:35:14Z</time>
      </trkpt>
      <trkpt lat="44.4441" lon="4.07086">
        <ele>277</ele>
        <time>2014-05-31T11:35:17Z</time>
      </trkpt>
      <trkpt lat="44.44392" lon="4.07082">
        <ele>276.5</ele>
        <time>2014-05-31T11:35:20Z</time>
      </trkpt>
      <trkpt lat="44.44376" lon="4.07074">
        <ele>276</ele>
        <time>2014-05-31T11:35:23Z</time>
      </trkpt>
      <trkpt lat="44.44363" lon="4.07067">
        <ele>275.3</ele>
        <time>2014-05-31T11:35:25Z</time>
      </trkpt>
      <trkpt lat="44.44347" lon="4.07065">
        <ele>269.6</ele>
        <time>2014-05-31T11:35:28Z</time>
      </trkpt>
      <trkpt lat="44.44334" lon="4.07072">
        <ele>260.9</ele>
        <time>2014-05-31T11:36:05Z</time>
      </trkpt>
      <trkpt lat="44.44321" lon="4.07078">
        <ele>259.5</ele>
        <time>2014-05-31T11:36:11Z</time>
      </trkpt>
      <trkpt lat="44.4431" lon="4.07091">
        <ele>258.7</ele>
        <time>2014-05-31T11:36:15Z</time>
      </trkpt>
      <trkpt lat="44.44298" lon="4.07102">
        <ele>257.2</ele>
        <time>2014-05-31T11:36:19Z</time>
      </trkpt>
      <trkpt lat="44.44283" lon="4.07111">
        <ele>257</ele>
        <time>2014-05-31T11:36:23Z</time>
      </trkpt>
      <trkpt lat="44.44265" lon="4.07116">
        <ele>257</ele>
        <time>2014-05-31T11:36:28Z</time>
      </trkpt>
      <trkpt lat="44.44248" lon="4.07115">
        <ele>256.8</ele>
        <time>2014-05-31T11:36:31Z</time>
      </trkpt>
      <trkpt lat="44.44232" lon="4.07112">
        <ele>256.7</ele>
        <time>2014-05-31T11:36:34Z</time>
      </trkpt>
      <trkpt lat="44.44215" lon="4.07109">
        <ele>256.5</ele>
        <time>2014-05-31T11:36:38Z</time>
      </trkpt>
      <trkpt lat="44.442" lon="4.07106">
        <ele>256</ele>
        <time>2014-05-31T11:36:41Z</time>
      </trkpt>
      <trkpt lat="44.44186" lon="4.07108">
        <ele>254.8</ele>
        <time>2014-05-31T11:36:44Z</time>
      </trkpt>
      <trkpt lat="44.44173" lon="4.07115">
        <ele>253</ele>
        <time>2014-05-31T11:36:47Z</time>
      </trkpt>
      <trkpt lat="44.44159" lon="4.07123">
        <ele>252</ele>
        <time>2014-05-31T11:36:49Z</time>
      </trkpt>
      <trkpt lat="44.44146" lon="4.0713">
        <ele>251.5</ele>
        <time>2014-05-31T11:36:53Z</time>
      </trkpt>
      <trkpt lat="44.4413" lon="4.07136">
        <ele>251</ele>
        <time>2014-05-31T11:36:56Z</time>
      </trkpt>
      <trkpt lat="44.44114" lon="4.07143">
        <ele>250.8</ele>
        <time>2014-05-31T11:37:00Z</time>
      </trkpt>
      <trkpt lat="44.441" lon="4.07149">
        <ele>250</ele>
        <time>2014-05-31T11:37:02Z</time>
      </trkpt>
      <trkpt lat="44.44087" lon="4.07159">
        <ele>249.5</ele>
        <time>2014-05-31T11:37:06Z</time>
      </trkpt>
      <trkpt lat="44.44084" lon="4.07178">
        <ele>249.5</ele>
        <time>2014-05-31T11:37:09Z</time>
      </trkpt>
      <trkpt lat="44.44094" lon="4.07192">
        <ele>250</ele>
        <time>2014-05-31T11:37:12Z</time>
      </trkpt>
      <trkpt lat="44.4411" lon="4.07197">
        <ele>250.5</ele>
        <time>2014-05-31T11:37:15Z</time>
      </trkpt>
      <trkpt lat="44.44125" lon="4.07194">
        <ele>249.7</ele>
        <time>2014-05-31T11:37:18Z</time>
      </trkpt>
      <trkpt lat="44.44141" lon="4.072">
        <ele>250</ele>
        <time>2014-05-31T11:37:22Z</time>
      </trkpt>
      <trkpt lat="44.44158" lon="4.07207">
        <ele>249.8</ele>
        <time>2014-05-31T11:37:25Z</time>
      </trkpt>
      <trkpt lat="44.44172" lon="4.07219">
        <ele>249.5</ele>
        <time>2014-05-31T11:37:27Z</time>
      </trkpt>
      <trkpt lat="44.44183" lon="4.07232">
        <ele>249.5</ele>
        <time>2014-05-31T11:37:30Z</time>
      </trkpt>
      <trkpt lat="44.44194" lon="4.07245">
        <ele>249</ele>
        <time>2014-05-31T11:37:32Z</time>
      </trkpt>
      <trkpt lat="44.44203" lon="4.07259">
        <ele>249</ele>
        <time>2014-05-31T11:37:33Z</time>
      </trkpt>
      <trkpt lat="44.44214" lon="4.07269">
        <ele>249</ele>
        <time>2014-05-31T11:37:36Z</time>
      </trkpt>
      <trkpt lat="44.4423" lon="4.07279">
        <ele>248.5</ele>
        <time>2014-05-31T11:37:39Z</time>
      </trkpt>
      <trkpt lat="44.44248" lon="4.07286">
        <ele>248.5</ele>
        <time>2014-05-31T11:37:42Z</time>
      </trkpt>
      <trkpt lat="44.44264" lon="4.07296">
        <ele>248.5</ele>
        <time>2014-05-31T11:37:45Z</time>
      </trkpt>
      <trkpt lat="44.44278" lon="4.07306">
        <ele>248.5</ele>
        <time>2014-05-31T11:37:47Z</time>
      </trkpt>
      <trkpt lat="44.4429" lon="4.07315">
        <ele>248</ele>
        <time>2014-05-31T11:37:50Z</time>
      </trkpt>
      <trkpt lat="44.44302" lon="4.07327">
        <ele>247.5</ele>
        <time>2014-05-31T11:37:51Z</time>
      </trkpt>
      <trkpt lat="44.44315" lon="4.07334">
        <ele>247.5</ele>
        <time>2014-05-31T11:37:53Z</time>
      </trkpt>
      <trkpt lat="44.44327" lon="4.07347">
        <ele>247.5</ele>
        <time>2014-05-31T11:37:56Z</time>
      </trkpt>
      <trkpt lat="44.44336" lon="4.07363">
        <ele>247</ele>
        <time>2014-05-31T11:37:57Z</time>
      </trkpt>
      <trkpt lat="44.44345" lon="4.07382">
        <ele>246.5</ele>
        <time>2014-05-31T11:37:59Z</time>
      </trkpt>
      <trkpt lat="44.44354" lon="4.07401">
        <ele>246.5</ele>
        <time>2014-05-31T11:38:02Z</time>
      </trkpt>
      <trkpt lat="44.44364" lon="4.07422">
        <ele>246.5</ele>
        <time>2014-05-31T11:38:04Z</time>
      </trkpt>
      <trkpt lat="44.44368" lon="4.07444">
        <ele>246.5</ele>
        <time>2014-05-31T11:38:05Z</time>
      </trkpt>
      <trkpt lat="44.44364" lon="4.07465">
        <ele>246</ele>
        <time>2014-05-31T11:38:08Z</time>
      </trkpt>
      <trkpt lat="44.44359" lon="4.07492">
        <ele>246.5</ele>
        <time>2014-05-31T11:38:10Z</time>
      </trkpt>
      <trkpt lat="44.44353" lon="4.07517">
        <ele>247.5</ele>
        <time>2014-05-31T11:38:11Z</time>
      </trkpt>
      <trkpt lat="44.44348" lon="4.07541">
        <ele>247.5</ele>
        <time>2014-05-31T11:38:14Z</time>
      </trkpt>
      <trkpt lat="44.44347" lon="4.07567">
        <ele>247.5</ele>
        <time>2014-05-31T11:38:16Z</time>
      </trkpt>
      <trkpt lat="44.44346" lon="4.07592">
        <ele>247</ele>
        <time>2014-05-31T11:38:17Z</time>
      </trkpt>
      <trkpt lat="44.44345" lon="4.07616">
        <ele>247.5</ele>
        <time>2014-05-31T11:38:20Z</time>
      </trkpt>
      <trkpt lat="44.44345" lon="4.07641">
        <ele>247.5</ele>
        <time>2014-05-31T11:38:22Z</time>
      </trkpt>
      <trkpt lat="44.44341" lon="4.07664">
        <ele>247</ele>
        <time>2014-05-31T11:38:23Z</time>
      </trkpt>
      <trkpt lat="44.44333" lon="4.07686">
        <ele>246.5</ele>
        <time>2014-05-31T11:38:25Z</time>
      </trkpt>
      <trkpt lat="44.44328" lon="4.07708">
        <ele>246</ele>
        <time>2014-05-31T11:38:28Z</time>
      </trkpt>
      <trkpt lat="44.44323" lon="4.0773">
        <ele>246</ele>
        <time>2014-05-31T11:38:29Z</time>
      </trkpt>
      <trkpt lat="44.44319" lon="4.07754">
        <ele>246</ele>
        <time>2014-05-31T11:38:31Z</time>
      </trkpt>
      <trkpt lat="44.44313" lon="4.07777">
        <ele>246</ele>
        <time>2014-05-31T11:38:34Z</time>
      </trkpt>
      <trkpt lat="44.44304" lon="4.07799">
        <ele>245</ele>
        <time>2014-05-31T11:38:36Z</time>
      </trkpt>
      <trkpt lat="44.44293" lon="4.07822">
        <ele>244</ele>
        <time>2014-05-31T11:38:37Z</time>
      </trkpt>
      <trkpt lat="44.44286" lon="4.07845">
        <ele>243</ele>
        <time>2014-05-31T11:38:39Z</time>
      </trkpt>
      <trkpt lat="44.44277" lon="4.07867">
        <ele>242</ele>
        <time>2014-05-31T11:38:42Z</time>
      </trkpt>
      <trkpt lat="44.44267" lon="4.07889">
        <ele>240.5</ele>
        <time>2014-05-31T11:38:43Z</time>
      </trkpt>
      <trkpt lat="44.44256" lon="4.07909">
        <ele>239.5</ele>
        <time>2014-05-31T11:38:46Z</time>
      </trkpt>
      <trkpt lat="44.44245" lon="4.07927">
        <ele>238.5</ele>
        <time>2014-05-31T11:38:48Z</time>
      </trkpt>
      <trkpt lat="44.44234" lon="4.07947">
        <ele>237</ele>
        <time>2014-05-31T11:38:49Z</time>
      </trkpt>
      <trkpt lat="44.4423" lon="4.07984">
        <ele>234</ele>
        <time>2014-05-31T11:38:52Z</time>
      </trkpt>
      <trkpt lat="44.4423" lon="4.08009">
        <ele>233.5</ele>
        <time>2014-05-31T11:38:55Z</time>
      </trkpt>
      <trkpt lat="44.44233" lon="4.08031">
        <ele>233</ele>
        <time>2014-05-31T11:38:56Z</time>
      </trkpt>
      <trkpt lat="44.44232" lon="4.08051">
        <ele>232.5</ele>
        <time>2014-05-31T11:38:59Z</time>
      </trkpt>
      <trkpt lat="44.44226" lon="4.0807">
        <ele>232.5</ele>
        <time>2014-05-31T11:39:01Z</time>
      </trkpt>
      <trkpt lat="44.44222" lon="4.08088">
        <ele>232</ele>
        <time>2014-05-31T11:39:02Z</time>
      </trkpt>
      <trkpt lat="44.44216" lon="4.08103">
        <ele>232</ele>
        <time>2014-05-31T11:39:05Z</time>
      </trkpt>
      <trkpt lat="44.44205" lon="4.08114">
        <ele>232.5</ele>
        <time>2014-05-31T11:39:07Z</time>
      </trkpt>
      <trkpt lat="44.44192" lon="4.08123">
        <ele>231.5</ele>
        <time>2014-05-31T11:39:08Z</time>
      </trkpt>
      <trkpt lat="44.44177" lon="4.08129">
        <ele>231</ele>
        <time>2014-05-31T11:39:11Z</time>
      </trkpt>
      <trkpt lat="44.44161" lon="4.08136">
        <ele>231.5</ele>
        <time>2014-05-31T11:39:13Z</time>
      </trkpt>
      <trkpt lat="44.44144" lon="4.08141">
        <ele>231.5</ele>
        <time>2014-05-31T11:39:16Z</time>
      </trkpt>
      <trkpt lat="44.44127" lon="4.08146">
        <ele>231</ele>
        <time>2014-05-31T11:39:19Z</time>
      </trkpt>
      <trkpt lat="44.44111" lon="4.08152">
        <ele>230.5</ele>
        <time>2014-05-31T11:39:22Z</time>
      </trkpt>
      <trkpt lat="44.44096" lon="4.08162">
        <ele>230.5</ele>
        <time>2014-05-31T11:39:25Z</time>
      </trkpt>
      <trkpt lat="44.44083" lon="4.08173">
        <ele>230</ele>
        <time>2014-05-31T11:39:27Z</time>
      </trkpt>
      <trkpt lat="44.4407" lon="4.08185">
        <ele>230</ele>
        <time>2014-05-31T11:39:31Z</time>
      </trkpt>
      <trkpt lat="44.44056" lon="4.08192">
        <ele>230</ele>
        <time>2014-05-31T11:39:34Z</time>
      </trkpt>
      <trkpt lat="44.44042" lon="4.08192">
        <ele>230</ele>
        <time>2014-05-31T11:39:37Z</time>
      </trkpt>
      <trkpt lat="44.44028" lon="4.08183">
        <ele>230</ele>
        <time>2014-05-31T11:39:40Z</time>
      </trkpt>
      <trkpt lat="44.44015" lon="4.0817">
        <ele>229.5</ele>
        <time>2014-05-31T11:39:43Z</time>
      </trkpt>
      <trkpt lat="44.44003" lon="4.08156">
        <ele>229.5</ele>
        <time>2014-05-31T11:39:46Z</time>
      </trkpt>
      <trkpt lat="44.43993" lon="4.08138">
        <ele>229</ele>
        <time>2014-05-31T11:39:49Z</time>
      </trkpt>
      <trkpt lat="44.43989" lon="4.0812">
        <ele>229</ele>
        <time>2014-05-31T11:39:52Z</time>
      </trkpt>
      <trkpt lat="44.43982" lon="4.08089">
        <ele>229.5</ele>
        <time>2014-05-31T11:39:56Z</time>
      </trkpt>
      <trkpt lat="44.43975" lon="4.08073">
        <ele>229.5</ele>
        <time>2014-05-31T11:39:58Z</time>
      </trkpt>
      <trkpt lat="44.43963" lon="4.08062">
        <ele>229</ele>
        <time>2014-05-31T11:40:00Z</time>
      </trkpt>
      <trkpt lat="44.43949" lon="4.08054">
        <ele>228.5</ele>
        <time>2014-05-31T11:40:04Z</time>
      </trkpt>
      <trkpt lat="44.43935" lon="4.08047">
        <ele>228</ele>
        <time>2014-05-31T11:40:06Z</time>
      </trkpt>
      <trkpt lat="44.4392" lon="4.0804">
        <ele>227.8</ele>
        <time>2014-05-31T11:40:10Z</time>
      </trkpt>
      <trkpt lat="44.43904" lon="4.08033">
        <ele>227</ele>
        <time>2014-05-31T11:40:12Z</time>
      </trkpt>
      <trkpt lat="44.43888" lon="4.08026">
        <ele>227</ele>
        <time>2014-05-31T11:40:16Z</time>
      </trkpt>
      <trkpt lat="44.43873" lon="4.08019">
        <ele>227</ele>
        <time>2014-05-31T11:40:18Z</time>
      </trkpt>
      <trkpt lat="44.43858" lon="4.08013">
        <ele>226.9</ele>
        <time>2014-05-31T11:40:23Z</time>
      </trkpt>
      <trkpt lat="44.43854" lon="4.08013">
        <ele>225.6</ele>
        <time>2014-05-31T11:40:28Z</time>
      </trkpt>
      <trkpt lat="44.43878" lon="4.08028">
        <ele>215.1</ele>
        <time>2014-05-31T11:40:51Z</time>
      </trkpt>
      <trkpt lat="44.43833" lon="4.07999">
        <ele>217.5</ele>
        <time>2014-05-31T12:00:11Z</time>
      </trkpt>
      <trkpt lat="44.43816" lon="4.07997">
        <ele>216.2</ele>
        <time>2014-05-31T12:00:15Z</time>
      </trkpt>
      <trkpt lat="44.438" lon="4.07999">
        <ele>215.8</ele>
        <time>2014-05-31T12:00:19Z</time>
      </trkpt>
      <trkpt lat="44.43784" lon="4.08003">
        <ele>215.3</ele>
        <time>2014-05-31T12:00:23Z</time>
      </trkpt>
      <trkpt lat="44.43769" lon="4.08011">
        <ele>215</ele>
        <time>2014-05-31T12:00:27Z</time>
      </trkpt>
      <trkpt lat="44.43754" lon="4.08017">
        <ele>214.8</ele>
        <time>2014-05-31T12:00:29Z</time>
      </trkpt>
      <trkpt lat="44.43738" lon="4.08019">
        <ele>214.5</ele>
        <time>2014-05-31T12:00:33Z</time>
      </trkpt>
      <trkpt lat="44.43723" lon="4.08013">
        <ele>214</ele>
        <time>2014-05-31T12:00:35Z</time>
      </trkpt>
      <trkpt lat="44.43706" lon="4.08008">
        <ele>213.5</ele>
        <time>2014-05-31T12:00:39Z</time>
      </trkpt>
      <trkpt lat="44.43688" lon="4.0801">
        <ele>212.8</ele>
        <time>2014-05-31T12:00:44Z</time>
      </trkpt>
      <trkpt lat="44.4367" lon="4.08014">
        <ele>213</ele>
        <time>2014-05-31T12:00:47Z</time>
      </trkpt>
      <trkpt lat="44.43652" lon="4.0802">
        <ele>212.2</ele>
        <time>2014-05-31T12:00:51Z</time>
      </trkpt>
      <trkpt lat="44.43636" lon="4.08029">
        <ele>212</ele>
        <time>2014-05-31T12:00:55Z</time>
      </trkpt>
      <trkpt lat="44.4362" lon="4.08035">
        <ele>211.8</ele>
        <time>2014-05-31T12:00:59Z</time>
      </trkpt>
      <trkpt lat="44.43605" lon="4.08041">
        <ele>211</ele>
        <time>2014-05-31T12:01:02Z</time>
      </trkpt>
      <trkpt lat="44.43588" lon="4.0805">
        <ele>210.3</ele>
        <time>2014-05-31T12:01:06Z</time>
      </trkpt>
      <trkpt lat="44.43575" lon="4.08062">
        <ele>209.5</ele>
        <time>2014-05-31T12:01:10Z</time>
      </trkpt>
      <trkpt lat="44.43563" lon="4.08077">
        <ele>208.5</ele>
        <time>2014-05-31T12:01:13Z</time>
      </trkpt>
      <trkpt lat="44.43549" lon="4.08093">
        <ele>207.5</ele>
        <time>2014-05-31T12:01:16Z</time>
      </trkpt>
      <trkpt lat="44.43539" lon="4.08106">
        <ele>206.5</ele>
        <time>2014-05-31T12:01:18Z</time>
      </trkpt>
      <trkpt lat="44.43535" lon="4.08121">
        <ele>206.5</ele>
        <time>2014-05-31T12:01:19Z</time>
      </trkpt>
      <trkpt lat="44.43531" lon="4.08136">
        <ele>206</ele>
        <time>2014-05-31T12:01:23Z</time>
      </trkpt>
      <trkpt lat="44.43528" lon="4.08153">
        <ele>206</ele>
        <time>2014-05-31T12:01:24Z</time>
      </trkpt>
      <trkpt lat="44.43527" lon="4.08171">
        <ele>206</ele>
        <time>2014-05-31T12:01:26Z</time>
      </trkpt>
      <trkpt lat="44.43526" lon="4.0819">
        <ele>205.5</ele>
        <time>2014-05-31T12:01:29Z</time>
      </trkpt>
      <trkpt lat="44.43527" lon="4.08209">
        <ele>205</ele>
        <time>2014-05-31T12:01:30Z</time>
      </trkpt>
      <trkpt lat="44.43527" lon="4.08228">
        <ele>203.5</ele>
        <time>2014-05-31T12:01:32Z</time>
      </trkpt>
      <trkpt lat="44.43527" lon="4.08244">
        <ele>203.5</ele>
        <time>2014-05-31T12:01:35Z</time>
      </trkpt>
      <trkpt lat="44.43526" lon="4.08262">
        <ele>203</ele>
        <time>2014-05-31T12:01:37Z</time>
      </trkpt>
      <trkpt lat="44.43525" lon="4.08279">
        <ele>203</ele>
        <time>2014-05-31T12:01:38Z</time>
      </trkpt>
      <trkpt lat="44.43523" lon="4.08296">
        <ele>202</ele>
        <time>2014-05-31T12:01:39Z</time>
      </trkpt>
      <trkpt lat="44.43523" lon="4.08314">
        <ele>201.5</ele>
        <time>2014-05-31T12:01:43Z</time>
      </trkpt>
      <trkpt lat="44.43523" lon="4.08334">
        <ele>201.5</ele>
        <time>2014-05-31T12:01:44Z</time>
      </trkpt>
      <trkpt lat="44.43523" lon="4.08353">
        <ele>201</ele>
        <time>2014-05-31T12:01:45Z</time>
      </trkpt>
      <trkpt lat="44.43524" lon="4.08372">
        <ele>201</ele>
        <time>2014-05-31T12:01:49Z</time>
      </trkpt>
      <trkpt lat="44.43525" lon="4.0839">
        <ele>201</ele>
        <time>2014-05-31T12:01:50Z</time>
      </trkpt>
      <trkpt lat="44.43524" lon="4.08407">
        <ele>201</ele>
        <time>2014-05-31T12:01:52Z</time>
      </trkpt>
      <trkpt lat="44.43522" lon="4.08426">
        <ele>201</ele>
        <time>2014-05-31T12:01:55Z</time>
      </trkpt>
      <trkpt lat="44.4352" lon="4.08446">
        <ele>201</ele>
        <time>2014-05-31T12:01:56Z</time>
      </trkpt>
      <trkpt lat="44.43518" lon="4.08464">
        <ele>201.5</ele>
        <time>2014-05-31T12:01:58Z</time>
      </trkpt>
      <trkpt lat="44.4352" lon="4.08481">
        <ele>201.5</ele>
        <time>2014-05-31T12:02:00Z</time>
      </trkpt>
      <trkpt lat="44.43522" lon="4.08499">
        <ele>200</ele>
        <time>2014-05-31T12:02:03Z</time>
      </trkpt>
      <trkpt lat="44.4353" lon="4.08535">
        <ele>199</ele>
        <time>2014-05-31T12:02:07Z</time>
      </trkpt>
      <trkpt lat="44.43528" lon="4.08552">
        <ele>198</ele>
        <time>2014-05-31T12:02:09Z</time>
      </trkpt>
      <trkpt lat="44.43502" lon="4.08576">
        <ele>198.3</ele>
        <time>2014-05-31T12:02:13Z</time>
      </trkpt>
      <trkpt lat="44.43488" lon="4.08591">
        <ele>198</ele>
        <time>2014-05-31T12:02:16Z</time>
      </trkpt>
      <trkpt lat="44.43476" lon="4.08606">
        <ele>198</ele>
        <time>2014-05-31T12:02:18Z</time>
      </trkpt>
      <trkpt lat="44.43465" lon="4.0862">
        <ele>197.5</ele>
        <time>2014-05-31T12:02:21Z</time>
      </trkpt>
      <trkpt lat="44.43453" lon="4.08641">
        <ele>197</ele>
        <time>2014-05-31T12:02:23Z</time>
      </trkpt>
      <trkpt lat="44.43443" lon="4.08654">
        <ele>197</ele>
        <time>2014-05-31T12:02:26Z</time>
      </trkpt>
      <trkpt lat="44.4343" lon="4.08666">
        <ele>196.5</ele>
        <time>2014-05-31T12:02:28Z</time>
      </trkpt>
      <trkpt lat="44.43398" lon="4.08674">
        <ele>195.8</ele>
        <time>2014-05-31T12:02:32Z</time>
      </trkpt>
      <trkpt lat="44.4338" lon="4.08679">
        <ele>195.5</ele>
        <time>2014-05-31T12:02:35Z</time>
      </trkpt>
      <trkpt lat="44.43363" lon="4.08684">
        <ele>195.5</ele>
        <time>2014-05-31T12:02:37Z</time>
      </trkpt>
      <trkpt lat="44.43344" lon="4.08688">
        <ele>195.5</ele>
        <time>2014-05-31T12:02:40Z</time>
      </trkpt>
      <trkpt lat="44.43328" lon="4.08681">
        <ele>196</ele>
        <time>2014-05-31T12:02:43Z</time>
      </trkpt>
      <trkpt lat="44.43314" lon="4.08666">
        <ele>196</ele>
        <time>2014-05-31T12:02:46Z</time>
      </trkpt>
      <trkpt lat="44.433" lon="4.08657">
        <ele>195.8</ele>
        <time>2014-05-31T12:02:47Z</time>
      </trkpt>
      <trkpt lat="44.43282" lon="4.08651">
        <ele>195.5</ele>
        <time>2014-05-31T12:02:51Z</time>
      </trkpt>
      <trkpt lat="44.43268" lon="4.08647">
        <ele>195</ele>
        <time>2014-05-31T12:02:53Z</time>
      </trkpt>
      <trkpt lat="44.43254" lon="4.08645">
        <ele>194.5</ele>
        <time>2014-05-31T12:02:54Z</time>
      </trkpt>
      <trkpt lat="44.43239" lon="4.0864">
        <ele>194</ele>
        <time>2014-05-31T12:02:56Z</time>
      </trkpt>
      <trkpt lat="44.43225" lon="4.08636">
        <ele>194</ele>
        <time>2014-05-31T12:02:59Z</time>
      </trkpt>
      <trkpt lat="44.4321" lon="4.0863">
        <ele>193.5</ele>
        <time>2014-05-31T12:03:00Z</time>
      </trkpt>
      <trkpt lat="44.43197" lon="4.08627">
        <ele>194</ele>
        <time>2014-05-31T12:03:02Z</time>
      </trkpt>
      <trkpt lat="44.43183" lon="4.0862">
        <ele>193.5</ele>
        <time>2014-05-31T12:03:05Z</time>
      </trkpt>
      <trkpt lat="44.43168" lon="4.0861">
        <ele>193</ele>
        <time>2014-05-31T12:03:06Z</time>
      </trkpt>
      <trkpt lat="44.43154" lon="4.086">
        <ele>192.5</ele>
        <time>2014-05-31T12:03:07Z</time>
      </trkpt>
      <trkpt lat="44.4314" lon="4.08593">
        <ele>192</ele>
        <time>2014-05-31T12:03:11Z</time>
      </trkpt>
      <trkpt lat="44.43126" lon="4.08586">
        <ele>192</ele>
        <time>2014-05-31T12:03:12Z</time>
      </trkpt>
      <trkpt lat="44.43112" lon="4.0858">
        <ele>191.5</ele>
        <time>2014-05-31T12:03:14Z</time>
      </trkpt>
      <trkpt lat="44.43096" lon="4.08575">
        <ele>191.5</ele>
        <time>2014-05-31T12:03:17Z</time>
      </trkpt>
      <trkpt lat="44.43075" lon="4.08568">
        <ele>191.5</ele>
        <time>2014-05-31T12:03:20Z</time>
      </trkpt>
      <trkpt lat="44.43057" lon="4.08567">
        <ele>191.5</ele>
        <time>2014-05-31T12:03:23Z</time>
      </trkpt>
      <trkpt lat="44.43037" lon="4.08565">
        <ele>191.3</ele>
        <time>2014-05-31T12:03:26Z</time>
      </trkpt>
      <trkpt lat="44.43018" lon="4.08564">
        <ele>191</ele>
        <time>2014-05-31T12:03:29Z</time>
      </trkpt>
      <trkpt lat="44.42998" lon="4.08561">
        <ele>190.8</ele>
        <time>2014-05-31T12:03:32Z</time>
      </trkpt>
      <trkpt lat="44.42989" lon="4.08563">
        <ele>191.3</ele>
        <time>2014-05-31T12:03:34Z</time>
      </trkpt>
      <trkpt lat="44.4297" lon="4.08553">
        <ele>191</ele>
        <time>2014-05-31T12:03:38Z</time>
      </trkpt>
      <trkpt lat="44.4292" lon="4.08515">
        <ele>191</ele>
        <time>2014-05-31T12:03:42Z</time>
      </trkpt>
      <trkpt lat="44.42908" lon="4.08506">
        <ele>191.5</ele>
        <time>2014-05-31T12:03:43Z</time>
      </trkpt>
      <trkpt lat="44.42863" lon="4.08469">
        <ele>191.5</ele>
        <time>2014-05-31T12:03:45Z</time>
      </trkpt>
      <trkpt lat="44.42839" lon="4.08454">
        <ele>191.5</ele>
        <time>2014-05-31T12:03:47Z</time>
      </trkpt>
      <trkpt lat="44.42819" lon="4.08451">
        <ele>189</ele>
        <time>2014-05-31T12:03:50Z</time>
      </trkpt>
      <trkpt lat="44.42802" lon="4.08456">
        <ele>186</ele>
        <time>2014-05-31T12:03:51Z</time>
      </trkpt>
      <trkpt lat="44.42786" lon="4.08462">
        <ele>185.5</ele>
        <time>2014-05-31T12:03:53Z</time>
      </trkpt>
      <trkpt lat="44.42776" lon="4.08473">
        <ele>184.5</ele>
        <time>2014-05-31T12:03:55Z</time>
      </trkpt>
      <trkpt lat="44.42774" lon="4.08484">
        <ele>185</ele>
        <time>2014-05-31T12:03:57Z</time>
      </trkpt>
      <trkpt lat="44.42774" lon="4.08505">
        <ele>186</ele>
        <time>2014-05-31T12:03:58Z</time>
      </trkpt>
      <trkpt lat="44.42764" lon="4.08515">
        <ele>186</ele>
        <time>2014-05-31T12:03:59Z</time>
      </trkpt>
      <trkpt lat="44.42797" lon="4.08561">
        <ele>186.5</ele>
        <time>2014-05-31T12:04:02Z</time>
      </trkpt>
      <trkpt lat="44.42806" lon="4.08598">
        <ele>187.5</ele>
        <time>2014-05-31T12:04:03Z</time>
      </trkpt>
      <trkpt lat="44.42801" lon="4.08621">
        <ele>187.5</ele>
        <time>2014-05-31T12:04:05Z</time>
      </trkpt>
      <trkpt lat="44.42794" lon="4.0864">
        <ele>188</ele>
        <time>2014-05-31T12:04:08Z</time>
      </trkpt>
      <trkpt lat="44.42786" lon="4.08657">
        <ele>188</ele>
        <time>2014-05-31T12:04:10Z</time>
      </trkpt>
      <trkpt lat="44.42773" lon="4.08693">
        <ele>188.5</ele>
        <time>2014-05-31T12:04:14Z</time>
      </trkpt>
      <trkpt lat="44.42769" lon="4.08715">
        <ele>189.5</ele>
        <time>2014-05-31T12:04:16Z</time>
      </trkpt>
      <trkpt lat="44.42766" lon="4.08736">
        <ele>190</ele>
        <time>2014-05-31T12:04:17Z</time>
      </trkpt>
      <trkpt lat="44.42764" lon="4.08757">
        <ele>190</ele>
        <time>2014-05-31T12:04:19Z</time>
      </trkpt>
      <trkpt lat="44.42762" lon="4.08778">
        <ele>190</ele>
        <time>2014-05-31T12:04:21Z</time>
      </trkpt>
      <trkpt lat="44.42758" lon="4.088">
        <ele>190.5</ele>
        <time>2014-05-31T12:04:23Z</time>
      </trkpt>
      <trkpt lat="44.42752" lon="4.0882">
        <ele>190</ele>
        <time>2014-05-31T12:04:25Z</time>
      </trkpt>
      <trkpt lat="44.42747" lon="4.08841">
        <ele>190</ele>
        <time>2014-05-31T12:04:28Z</time>
      </trkpt>
      <trkpt lat="44.42743" lon="4.08862">
        <ele>190</ele>
        <time>2014-05-31T12:04:29Z</time>
      </trkpt>
      <trkpt lat="44.42735" lon="4.0888">
        <ele>190.5</ele>
        <time>2014-05-31T12:04:31Z</time>
      </trkpt>
      <trkpt lat="44.42726" lon="4.08898">
        <ele>190.5</ele>
        <time>2014-05-31T12:04:33Z</time>
      </trkpt>
      <trkpt lat="44.4272" lon="4.0892">
        <ele>190.5</ele>
        <time>2014-05-31T12:04:36Z</time>
      </trkpt>
      <trkpt lat="44.42711" lon="4.08962">
        <ele>190</ele>
        <time>2014-05-31T12:04:40Z</time>
      </trkpt>
      <trkpt lat="44.42706" lon="4.08982">
        <ele>190</ele>
        <time>2014-05-31T12:04:42Z</time>
      </trkpt>
      <trkpt lat="44.42699" lon="4.09028">
        <ele>188</ele>
        <time>2014-05-31T12:04:46Z</time>
      </trkpt>
      <trkpt lat="44.427" lon="4.09052">
        <ele>186.5</ele>
        <time>2014-05-31T12:04:48Z</time>
      </trkpt>
      <trkpt lat="44.42701" lon="4.0907">
        <ele>186</ele>
        <time>2014-05-31T12:04:49Z</time>
      </trkpt>
      <trkpt lat="44.427" lon="4.09086">
        <ele>186</ele>
        <time>2014-05-31T12:04:52Z</time>
      </trkpt>
      <trkpt lat="44.427" lon="4.09109">
        <ele>184.3</ele>
        <time>2014-05-31T12:04:55Z</time>
      </trkpt>
      <trkpt lat="44.42699" lon="4.09125">
        <ele>184.5</ele>
        <time>2014-05-31T12:04:58Z</time>
      </trkpt>
      <trkpt lat="44.42699" lon="4.0914">
        <ele>184</ele>
        <time>2014-05-31T12:05:01Z</time>
      </trkpt>
      <trkpt lat="44.427" lon="4.09158">
        <ele>184.3</ele>
        <time>2014-05-31T12:05:09Z</time>
      </trkpt>
      <trkpt lat="44.42695" lon="4.09157">
        <ele>184.6</ele>
        <time>2014-05-31T12:05:23Z</time>
      </trkpt>
      <trkpt lat="44.42686" lon="4.09143">
        <ele>183.5</ele>
        <time>2014-05-31T12:05:29Z</time>
      </trkpt>
      <trkpt lat="44.42677" lon="4.09183">
        <ele>183</ele>
        <time>2014-05-31T12:06:04Z</time>
      </trkpt>
      <trkpt lat="44.42677" lon="4.092">
        <ele>183</ele>
        <time>2014-05-31T12:06:08Z</time>
      </trkpt>
      <trkpt lat="44.42671" lon="4.09213">
        <ele>183.4</ele>
        <time>2014-05-31T12:06:14Z</time>
      </trkpt>
      <trkpt lat="44.42661" lon="4.0922">
        <ele>184.4</ele>
        <time>2014-05-31T12:06:18Z</time>
      </trkpt>
      <trkpt lat="44.42645" lon="4.09215">
        <ele>173.6</ele>
        <time>2014-05-31T12:06:50Z</time>
      </trkpt>
      <trkpt lat="44.42632" lon="4.09247">
        <ele>170.6</ele>
        <time>2014-05-31T12:08:39Z</time>
      </trkpt>
      <trkpt lat="44.42628" lon="4.09261">
        <ele>168.5</ele>
        <time>2014-05-31T12:09:04Z</time>
      </trkpt>
      <trkpt lat="44.42627" lon="4.09269">
        <ele>168.2</ele>
        <time>2014-05-31T12:10:25Z</time>
      </trkpt>
      <trkpt lat="44.42622" lon="4.09302">
        <ele>170.4</ele>
        <time>2014-05-31T12:11:01Z</time>
      </trkpt>
      <trkpt lat="44.42617" lon="4.09317">
        <ele>171.5</ele>
        <time>2014-05-31T12:11:10Z</time>
      </trkpt>
      <trkpt lat="44.42612" lon="4.0933">
        <ele>172.2</ele>
        <time>2014-05-31T12:11:31Z</time>
      </trkpt>
      <trkpt lat="44.42611" lon="4.09346">
        <ele>172.4</ele>
        <time>2014-05-31T12:11:50Z</time>
      </trkpt>
      <trkpt lat="44.42609" lon="4.0936">
        <ele>172.6</ele>
        <time>2014-05-31T12:12:15Z</time>
      </trkpt>
      <trkpt lat="44.42606" lon="4.09374">
        <ele>172.4</ele>
        <time>2014-05-31T12:12:28Z</time>
      </trkpt>
      <trkpt lat="44.42602" lon="4.09389">
        <ele>172.8</ele>
        <time>2014-05-31T12:12:42Z</time>
      </trkpt>
      <trkpt lat="44.42598" lon="4.09403">
        <ele>173.1</ele>
        <time>2014-05-31T12:12:52Z</time>
      </trkpt>
      <trkpt lat="44.42596" lon="4.09417">
        <ele>171.6</ele>
        <time>2014-05-31T12:13:11Z</time>
      </trkpt>
      <trkpt lat="44.42594" lon="4.09434">
        <ele>171.3</ele>
        <time>2014-05-31T12:13:36Z</time>
      </trkpt>
      <trkpt lat="44.42587" lon="4.09447">
        <ele>172.5</ele>
        <time>2014-05-31T12:13:44Z</time>
      </trkpt>
      <trkpt lat="44.42583" lon="4.09461">
        <ele>172.7</ele>
        <time>2014-05-31T12:14:06Z</time>
      </trkpt>
      <trkpt lat="44.42572" lon="4.09474">
        <ele>172.1</ele>
        <time>2014-05-31T12:14:16Z</time>
      </trkpt>
      <trkpt lat="44.42568" lon="4.0949">
        <ele>170.2</ele>
        <time>2014-05-31T12:14:22Z</time>
      </trkpt>
      <trkpt lat="44.42562" lon="4.09494">
        <ele>171.3</ele>
        <time>2014-05-31T12:15:06Z</time>
      </trkpt>
      <trkpt lat="44.42573" lon="4.09449">
        <ele>171.9</ele>
        <time>2014-05-31T12:18:54Z</time>
      </trkpt>
      <trkpt lat="44.42578" lon="4.09436">
        <ele>172.3</ele>
        <time>2014-05-31T12:19:01Z</time>
      </trkpt>
      <trkpt lat="44.42584" lon="4.09422">
        <ele>171.4</ele>
        <time>2014-05-31T12:19:15Z</time>
      </trkpt>
      <trkpt lat="44.42594" lon="4.09411">
        <ele>171</ele>
        <time>2014-05-31T12:20:01Z</time>
      </trkpt>
      <trkpt lat="44.42602" lon="4.09407">
        <ele>165.6</ele>
        <time>2014-05-31T12:20:26Z</time>
      </trkpt>
      <trkpt lat="44.42612" lon="4.09372">
        <ele>174.5</ele>
        <time>2014-05-31T12:20:48Z</time>
      </trkpt>
      <trkpt lat="44.42617" lon="4.09358">
        <ele>177.5</ele>
        <time>2014-05-31T12:21:11Z</time>
      </trkpt>
      <trkpt lat="44.42624" lon="4.09345">
        <ele>177.6</ele>
        <time>2014-05-31T12:21:26Z</time>
      </trkpt>
      <trkpt lat="44.42628" lon="4.09329">
        <ele>177.5</ele>
        <time>2014-05-31T12:21:40Z</time>
      </trkpt>
      <trkpt lat="44.42632" lon="4.09314">
        <ele>177.6</ele>
        <time>2014-05-31T12:21:55Z</time>
      </trkpt>
      <trkpt lat="44.42636" lon="4.09301">
        <ele>176.5</ele>
        <time>2014-05-31T12:22:04Z</time>
      </trkpt>
      <trkpt lat="44.42639" lon="4.09288">
        <ele>176.3</ele>
        <time>2014-05-31T12:22:26Z</time>
      </trkpt>
      <trkpt lat="44.42642" lon="4.09272">
        <ele>177</ele>
        <time>2014-05-31T12:22:39Z</time>
      </trkpt>
      <trkpt lat="44.42645" lon="4.09256">
        <ele>177.6</ele>
        <time>2014-05-31T12:22:51Z</time>
      </trkpt>
      <trkpt lat="44.42647" lon="4.09243">
        <ele>177.7</ele>
        <time>2014-05-31T12:22:57Z</time>
      </trkpt>
      <trkpt lat="44.4265" lon="4.0923">
        <ele>177.7</ele>
        <time>2014-05-31T12:23:32Z</time>
      </trkpt>
      <trkpt lat="44.4266" lon="4.09224">
        <ele>176</ele>
        <time>2014-05-31T12:23:42Z</time>
      </trkpt>
      <trkpt lat="44.4267" lon="4.0922">
        <ele>177.5</ele>
        <time>2014-05-31T12:24:28Z</time>
      </trkpt>
      <trkpt lat="44.42673" lon="4.09204">
        <ele>179.1</ele>
        <time>2014-05-31T12:24:41Z</time>
      </trkpt>
      <trkpt lat="44.42674" lon="4.09189">
        <ele>180</ele>
        <time>2014-05-31T12:24:52Z</time>
      </trkpt>
      <trkpt lat="44.42675" lon="4.09173">
        <ele>180.4</ele>
        <time>2014-05-31T12:25:01Z</time>
      </trkpt>
      <trkpt lat="44.4268" lon="4.09159">
        <ele>179.9</ele>
        <time>2014-05-31T12:25:08Z</time>
      </trkpt>
      <trkpt lat="44.42687" lon="4.09154">
        <ele>180</ele>
        <time>2014-05-31T12:25:26Z</time>
      </trkpt>
      <trkpt lat="44.42694" lon="4.09169">
        <ele>183.3</ele>
        <time>2014-05-31T12:25:42Z</time>
      </trkpt>
      <trkpt lat="44.42699" lon="4.09184">
        <ele>186.4</ele>
        <time>2014-05-31T12:26:00Z</time>
      </trkpt>
      <trkpt lat="44.42703" lon="4.09201">
        <ele>187.4</ele>
        <time>2014-05-31T12:26:19Z</time>
      </trkpt>
      <trkpt lat="44.42707" lon="4.09215">
        <ele>188.5</ele>
        <time>2014-05-31T12:26:23Z</time>
      </trkpt>
      <trkpt lat="44.4271" lon="4.09234">
        <ele>188.5</ele>
        <time>2014-05-31T12:26:46Z</time>
      </trkpt>
      <trkpt lat="44.42711" lon="4.0925">
        <ele>188.3</ele>
        <time>2014-05-31T12:26:53Z</time>
      </trkpt>
      <trkpt lat="44.42713" lon="4.09266">
        <ele>187.7</ele>
        <time>2014-05-31T12:26:59Z</time>
      </trkpt>
      <trkpt lat="44.42715" lon="4.09282">
        <ele>188.2</ele>
        <time>2014-05-31T12:27:05Z</time>
      </trkpt>
      <trkpt lat="44.42715" lon="4.09298">
        <ele>189.9</ele>
        <time>2014-05-31T12:27:11Z</time>
      </trkpt>
      <trkpt lat="44.42716" lon="4.09313">
        <ele>189.6</ele>
        <time>2014-05-31T12:27:16Z</time>
      </trkpt>
      <trkpt lat="44.42717" lon="4.09329">
        <ele>189.4</ele>
        <time>2014-05-31T12:27:22Z</time>
      </trkpt>
      <trkpt lat="44.42714" lon="4.09344">
        <ele>190.1</ele>
        <time>2014-05-31T12:27:27Z</time>
      </trkpt>
      <trkpt lat="44.42711" lon="4.0936">
        <ele>192.7</ele>
        <time>2014-05-31T12:27:32Z</time>
      </trkpt>
      <trkpt lat="44.42708" lon="4.09375">
        <ele>194.9</ele>
        <time>2014-05-31T12:27:38Z</time>
      </trkpt>
      <trkpt lat="44.42705" lon="4.09391">
        <ele>196.4</ele>
        <time>2014-05-31T12:27:44Z</time>
      </trkpt>
      <trkpt lat="44.42705" lon="4.09408">
        <ele>196.6</ele>
        <time>2014-05-31T12:27:50Z</time>
      </trkpt>
      <trkpt lat="44.42705" lon="4.09423">
        <ele>196.5</ele>
        <time>2014-05-31T12:27:54Z</time>
      </trkpt>
      <trkpt lat="44.42702" lon="4.09439">
        <ele>198.8</ele>
        <time>2014-05-31T12:28:00Z</time>
      </trkpt>
      <trkpt lat="44.427" lon="4.09455">
        <ele>202</ele>
        <time>2014-05-31T12:28:04Z</time>
      </trkpt>
      <trkpt lat="44.42699" lon="4.09471">
        <ele>204.5</ele>
        <time>2014-05-31T12:28:08Z</time>
      </trkpt>
      <trkpt lat="44.42701" lon="4.09487">
        <ele>205.4</ele>
        <time>2014-05-31T12:28:13Z</time>
      </trkpt>
      <trkpt lat="44.42712" lon="4.09504">
        <ele>205.1</ele>
        <time>2014-05-31T12:28:19Z</time>
      </trkpt>
      <trkpt lat="44.42725" lon="4.09511">
        <ele>205.7</ele>
        <time>2014-05-31T12:28:26Z</time>
      </trkpt>
      <trkpt lat="44.42739" lon="4.09517">
        <ele>206.8</ele>
        <time>2014-05-31T12:28:34Z</time>
      </trkpt>
      <trkpt lat="44.42751" lon="4.09528">
        <ele>205.6</ele>
        <time>2014-05-31T12:28:40Z</time>
      </trkpt>
      <trkpt lat="44.42754" lon="4.09544">
        <ele>206.3</ele>
        <time>2014-05-31T12:28:46Z</time>
      </trkpt>
      <trkpt lat="44.42753" lon="4.09559">
        <ele>207.4</ele>
        <time>2014-05-31T12:28:51Z</time>
      </trkpt>
      <trkpt lat="44.4275" lon="4.09577">
        <ele>208.3</ele>
        <time>2014-05-31T12:28:56Z</time>
      </trkpt>
      <trkpt lat="44.42746" lon="4.09594">
        <ele>209.6</ele>
        <time>2014-05-31T12:29:00Z</time>
      </trkpt>
      <trkpt lat="44.4274" lon="4.09609">
        <ele>210.7</ele>
        <time>2014-05-31T12:29:05Z</time>
      </trkpt>
      <trkpt lat="44.4273" lon="4.09623">
        <ele>212.8</ele>
        <time>2014-05-31T12:29:09Z</time>
      </trkpt>
      <trkpt lat="44.42719" lon="4.09635">
        <ele>215.1</ele>
        <time>2014-05-31T12:29:13Z</time>
      </trkpt>
      <trkpt lat="44.42704" lon="4.09643">
        <ele>216</ele>
        <time>2014-05-31T12:29:18Z</time>
      </trkpt>
      <trkpt lat="44.42693" lon="4.09653">
        <ele>218</ele>
        <time>2014-05-31T12:29:39Z</time>
      </trkpt>
      <trkpt lat="44.42681" lon="4.09662">
        <ele>218.3</ele>
        <time>2014-05-31T12:29:43Z</time>
      </trkpt>
      <trkpt lat="44.42668" lon="4.09671">
        <ele>219.2</ele>
        <time>2014-05-31T12:29:47Z</time>
      </trkpt>
      <trkpt lat="44.42656" lon="4.0968">
        <ele>219.8</ele>
        <time>2014-05-31T12:29:51Z</time>
      </trkpt>
      <trkpt lat="44.42644" lon="4.09691">
        <ele>220.3</ele>
        <time>2014-05-31T12:29:55Z</time>
      </trkpt>
      <trkpt lat="44.42632" lon="4.09702">
        <ele>220.8</ele>
        <time>2014-05-31T12:29:59Z</time>
      </trkpt>
      <trkpt lat="44.42621" lon="4.09711">
        <ele>221</ele>
        <time>2014-05-31T12:30:03Z</time>
      </trkpt>
      <trkpt lat="44.42612" lon="4.09724">
        <ele>220.3</ele>
        <time>2014-05-31T12:30:07Z</time>
      </trkpt>
      <trkpt lat="44.42604" lon="4.09738">
        <ele>221.3</ele>
        <time>2014-05-31T12:30:11Z</time>
      </trkpt>
      <trkpt lat="44.42602" lon="4.09753">
        <ele>221.7</ele>
        <time>2014-05-31T12:30:15Z</time>
      </trkpt>
      <trkpt lat="44.42608" lon="4.09769">
        <ele>221.9</ele>
        <time>2014-05-31T12:30:20Z</time>
      </trkpt>
      <trkpt lat="44.42621" lon="4.09778">
        <ele>222</ele>
        <time>2014-05-31T12:30:25Z</time>
      </trkpt>
      <trkpt lat="44.42637" lon="4.09782">
        <ele>222.5</ele>
        <time>2014-05-31T12:30:29Z</time>
      </trkpt>
      <trkpt lat="44.42652" lon="4.09787">
        <ele>222.8</ele>
        <time>2014-05-31T12:30:34Z</time>
      </trkpt>
      <trkpt lat="44.42668" lon="4.09794">
        <ele>223.8</ele>
        <time>2014-05-31T12:30:38Z</time>
      </trkpt>
      <trkpt lat="44.42681" lon="4.09803">
        <ele>224.7</ele>
        <time>2014-05-31T12:30:42Z</time>
      </trkpt>
      <trkpt lat="44.42693" lon="4.09812">
        <ele>225.3</ele>
        <time>2014-05-31T12:30:46Z</time>
      </trkpt>
      <trkpt lat="44.42705" lon="4.09823">
        <ele>225.2</ele>
        <time>2014-05-31T12:30:50Z</time>
      </trkpt>
      <trkpt lat="44.42717" lon="4.09832">
        <ele>225.5</ele>
        <time>2014-05-31T12:30:54Z</time>
      </trkpt>
      <trkpt lat="44.42727" lon="4.09843">
        <ele>226</ele>
        <time>2014-05-31T12:30:58Z</time>
      </trkpt>
      <trkpt lat="44.42737" lon="4.09855">
        <ele>226</ele>
        <time>2014-05-31T12:31:02Z</time>
      </trkpt>
      <trkpt lat="44.42747" lon="4.09866">
        <ele>226.3</ele>
        <time>2014-05-31T12:31:06Z</time>
      </trkpt>
      <trkpt lat="44.42755" lon="4.09879">
        <ele>226.3</ele>
        <time>2014-05-31T12:31:09Z</time>
      </trkpt>
      <trkpt lat="44.42762" lon="4.09892">
        <ele>226.8</ele>
        <time>2014-05-31T12:31:14Z</time>
      </trkpt>
      <trkpt lat="44.42765" lon="4.09909">
        <ele>228.5</ele>
        <time>2014-05-31T12:31:18Z</time>
      </trkpt>
      <trkpt lat="44.42767" lon="4.09924">
        <ele>229.8</ele>
        <time>2014-05-31T12:31:22Z</time>
      </trkpt>
      <trkpt lat="44.42767" lon="4.09941">
        <ele>230.2</ele>
        <time>2014-05-31T12:31:26Z</time>
      </trkpt>
      <trkpt lat="44.42763" lon="4.0996">
        <ele>231.3</ele>
        <time>2014-05-31T12:31:30Z</time>
      </trkpt>
      <trkpt lat="44.42756" lon="4.09977">
        <ele>233</ele>
        <time>2014-05-31T12:31:34Z</time>
      </trkpt>
      <trkpt lat="44.42744" lon="4.09987">
        <ele>234.5</ele>
        <time>2014-05-31T12:31:39Z</time>
      </trkpt>
      <trkpt lat="44.42729" lon="4.09993">
        <ele>235.6</ele>
        <time>2014-05-31T12:31:44Z</time>
      </trkpt>
      <trkpt lat="44.42713" lon="4.09997">
        <ele>236.5</ele>
        <time>2014-05-31T12:31:50Z</time>
      </trkpt>
      <trkpt lat="44.42699" lon="4.1">
        <ele>236.7</ele>
        <time>2014-05-31T12:31:54Z</time>
      </trkpt>
      <trkpt lat="44.42684" lon="4.10004">
        <ele>236.3</ele>
        <time>2014-05-31T12:31:59Z</time>
      </trkpt>
      <trkpt lat="44.42671" lon="4.10012">
        <ele>237</ele>
        <time>2014-05-31T12:32:03Z</time>
      </trkpt>
      <trkpt lat="44.42659" lon="4.10023">
        <ele>237.5</ele>
        <time>2014-05-31T12:32:07Z</time>
      </trkpt>
      <trkpt lat="44.42649" lon="4.10035">
        <ele>237</ele>
        <time>2014-05-31T12:32:11Z</time>
      </trkpt>
      <trkpt lat="44.42637" lon="4.10048">
        <ele>236.8</ele>
        <time>2014-05-31T12:32:15Z</time>
      </trkpt>
      <trkpt lat="44.42625" lon="4.1006">
        <ele>237.5</ele>
        <time>2014-05-31T12:32:18Z</time>
      </trkpt>
      <trkpt lat="44.42613" lon="4.1007">
        <ele>238</ele>
        <time>2014-05-31T12:32:23Z</time>
      </trkpt>
      <trkpt lat="44.42601" lon="4.1008">
        <ele>238.7</ele>
        <time>2014-05-31T12:32:27Z</time>
      </trkpt>
      <trkpt lat="44.42589" lon="4.10089">
        <ele>239.3</ele>
        <time>2014-05-31T12:32:31Z</time>
      </trkpt>
      <trkpt lat="44.42576" lon="4.10097">
        <ele>240</ele>
        <time>2014-05-31T12:32:35Z</time>
      </trkpt>
      <trkpt lat="44.42562" lon="4.10103">
        <ele>240.9</ele>
        <time>2014-05-31T12:32:40Z</time>
      </trkpt>
      <trkpt lat="44.42546" lon="4.10109">
        <ele>241.5</ele>
        <time>2014-05-31T12:32:44Z</time>
      </trkpt>
      <trkpt lat="44.4253" lon="4.10118">
        <ele>241.5</ele>
        <time>2014-05-31T12:32:48Z</time>
      </trkpt>
      <trkpt lat="44.42515" lon="4.10126">
        <ele>241.7</ele>
        <time>2014-05-31T12:32:52Z</time>
      </trkpt>
      <trkpt lat="44.425" lon="4.10133">
        <ele>242.5</ele>
        <time>2014-05-31T12:32:56Z</time>
      </trkpt>
      <trkpt lat="44.42487" lon="4.10142">
        <ele>243</ele>
        <time>2014-05-31T12:32:58Z</time>
      </trkpt>
      <trkpt lat="44.42472" lon="4.10151">
        <ele>243</ele>
        <time>2014-05-31T12:33:01Z</time>
      </trkpt>
      <trkpt lat="44.42454" lon="4.10159">
        <ele>242.5</ele>
        <time>2014-05-31T12:33:05Z</time>
      </trkpt>
      <trkpt lat="44.42435" lon="4.10165">
        <ele>242</ele>
        <time>2014-05-31T12:33:07Z</time>
      </trkpt>
      <trkpt lat="44.42416" lon="4.10168">
        <ele>241.8</ele>
        <time>2014-05-31T12:33:10Z</time>
      </trkpt>
      <trkpt lat="44.42396" lon="4.1017">
        <ele>241.3</ele>
        <time>2014-05-31T12:33:14Z</time>
      </trkpt>
      <trkpt lat="44.42378" lon="4.10172">
        <ele>241</ele>
        <time>2014-05-31T12:33:16Z</time>
      </trkpt>
      <trkpt lat="44.42361" lon="4.10173">
        <ele>240.5</ele>
        <time>2014-05-31T12:33:20Z</time>
      </trkpt>
      <trkpt lat="44.42342" lon="4.10178">
        <ele>240.5</ele>
        <time>2014-05-31T12:33:22Z</time>
      </trkpt>
      <trkpt lat="44.42325" lon="4.10184">
        <ele>240</ele>
        <time>2014-05-31T12:33:26Z</time>
      </trkpt>
      <trkpt lat="44.42311" lon="4.1019">
        <ele>239.5</ele>
        <time>2014-05-31T12:33:28Z</time>
      </trkpt>
      <trkpt lat="44.42296" lon="4.10196">
        <ele>239</ele>
        <time>2014-05-31T12:33:29Z</time>
      </trkpt>
      <trkpt lat="44.42281" lon="4.10203">
        <ele>239</ele>
        <time>2014-05-31T12:33:30Z</time>
      </trkpt>
      <trkpt lat="44.42266" lon="4.1021">
        <ele>238.5</ele>
        <time>2014-05-31T12:33:33Z</time>
      </trkpt>
      <trkpt lat="44.42253" lon="4.10221">
        <ele>238</ele>
        <time>2014-05-31T12:33:35Z</time>
      </trkpt>
      <trkpt lat="44.4224" lon="4.10231">
        <ele>237.5</ele>
        <time>2014-05-31T12:33:38Z</time>
      </trkpt>
      <trkpt lat="44.4223" lon="4.10242">
        <ele>237</ele>
        <time>2014-05-31T12:33:39Z</time>
      </trkpt>
      <trkpt lat="44.4222" lon="4.10253">
        <ele>236.5</ele>
        <time>2014-05-31T12:33:41Z</time>
      </trkpt>
      <trkpt lat="44.42209" lon="4.10264">
        <ele>236</ele>
        <time>2014-05-31T12:33:42Z</time>
      </trkpt>
      <trkpt lat="44.42196" lon="4.10274">
        <ele>236</ele>
        <time>2014-05-31T12:33:45Z</time>
      </trkpt>
      <trkpt lat="44.42183" lon="4.10285">
        <ele>235.5</ele>
        <time>2014-05-31T12:33:47Z</time>
      </trkpt>
      <trkpt lat="44.42168" lon="4.10294">
        <ele>235</ele>
        <time>2014-05-31T12:33:49Z</time>
      </trkpt>
      <trkpt lat="44.42153" lon="4.103">
        <ele>235</ele>
        <time>2014-05-31T12:33:52Z</time>
      </trkpt>
      <trkpt lat="44.42136" lon="4.10308">
        <ele>234.5</ele>
        <time>2014-05-31T12:33:53Z</time>
      </trkpt>
      <trkpt lat="44.42119" lon="4.10316">
        <ele>234.5</ele>
        <time>2014-05-31T12:33:54Z</time>
      </trkpt>
      <trkpt lat="44.42101" lon="4.10324">
        <ele>233.5</ele>
        <time>2014-05-31T12:33:58Z</time>
      </trkpt>
      <trkpt lat="44.42082" lon="4.10334">
        <ele>233</ele>
        <time>2014-05-31T12:34:00Z</time>
      </trkpt>
      <trkpt lat="44.42063" lon="4.10343">
        <ele>232.5</ele>
        <time>2014-05-31T12:34:01Z</time>
      </trkpt>
      <trkpt lat="44.42044" lon="4.10353">
        <ele>231.5</ele>
        <time>2014-05-31T12:34:02Z</time>
      </trkpt>
      <trkpt lat="44.42025" lon="4.10363">
        <ele>231</ele>
        <time>2014-05-31T12:34:05Z</time>
      </trkpt>
      <trkpt lat="44.42006" lon="4.1037">
        <ele>230.5</ele>
        <time>2014-05-31T12:34:07Z</time>
      </trkpt>
      <trkpt lat="44.41986" lon="4.10374">
        <ele>230</ele>
        <time>2014-05-31T12:34:10Z</time>
      </trkpt>
      <trkpt lat="44.41966" lon="4.10376">
        <ele>228.5</ele>
        <time>2014-05-31T12:34:12Z</time>
      </trkpt>
      <trkpt lat="44.4193" lon="4.10376">
        <ele>226.5</ele>
        <time>2014-05-31T12:34:14Z</time>
      </trkpt>
      <trkpt lat="44.41913" lon="4.10383">
        <ele>224.3</ele>
        <time>2014-05-31T12:34:18Z</time>
      </trkpt>
      <trkpt lat="44.41906" lon="4.10391">
        <ele>218.1</ele>
        <time>2014-05-31T12:34:57Z</time>
      </trkpt>
      <trkpt lat="44.41891" lon="4.10404">
        <ele>215.8</ele>
        <time>2014-05-31T12:35:26Z</time>
      </trkpt>
      <trkpt lat="44.41881" lon="4.10419">
        <ele>215</ele>
        <time>2014-05-31T12:35:29Z</time>
      </trkpt>
      <trkpt lat="44.41877" lon="4.10439">
        <ele>214.5</ele>
        <time>2014-05-31T12:35:31Z</time>
      </trkpt>
      <trkpt lat="44.41881" lon="4.1046">
        <ele>214</ele>
        <time>2014-05-31T12:35:34Z</time>
      </trkpt>
      <trkpt lat="44.41893" lon="4.10477">
        <ele>213.5</ele>
        <time>2014-05-31T12:35:35Z</time>
      </trkpt>
      <trkpt lat="44.41907" lon="4.10487">
        <ele>213</ele>
        <time>2014-05-31T12:35:36Z</time>
      </trkpt>
      <trkpt lat="44.41923" lon="4.10493">
        <ele>212.5</ele>
        <time>2014-05-31T12:35:40Z</time>
      </trkpt>
      <trkpt lat="44.41938" lon="4.10496">
        <ele>212</ele>
        <time>2014-05-31T12:35:41Z</time>
      </trkpt>
      <trkpt lat="44.41956" lon="4.10493">
        <ele>212</ele>
        <time>2014-05-31T12:35:43Z</time>
      </trkpt>
      <trkpt lat="44.41971" lon="4.10488">
        <ele>212</ele>
        <time>2014-05-31T12:35:45Z</time>
      </trkpt>
      <trkpt lat="44.41986" lon="4.10483">
        <ele>211.5</ele>
        <time>2014-05-31T12:35:48Z</time>
      </trkpt>
      <trkpt lat="44.42017" lon="4.10466">
        <ele>211.5</ele>
        <time>2014-05-31T12:35:52Z</time>
      </trkpt>
      <trkpt lat="44.42033" lon="4.10458">
        <ele>211.5</ele>
        <time>2014-05-31T12:35:53Z</time>
      </trkpt>
      <trkpt lat="44.42042" lon="4.10454">
        <ele>211.5</ele>
        <time>2014-05-31T12:35:54Z</time>
      </trkpt>
      <trkpt lat="44.42067" lon="4.1045">
        <ele>211.5</ele>
        <time>2014-05-31T12:35:56Z</time>
      </trkpt>
      <trkpt lat="44.42085" lon="4.1045">
        <ele>211.1</ele>
        <time>2014-05-31T12:36:01Z</time>
      </trkpt>
      <trkpt lat="44.42086" lon="4.10465">
        <ele>207.2</ele>
        <time>2014-05-31T12:36:13Z</time>
      </trkpt>
      <trkpt lat="44.42069" lon="4.10475">
        <ele>205.2</ele>
        <time>2014-05-31T12:36:25Z</time>
      </trkpt>
      <trkpt lat="44.4205" lon="4.10486">
        <ele>204.3</ele>
        <time>2014-05-31T12:36:28Z</time>
      </trkpt>
      <trkpt lat="44.42037" lon="4.10498">
        <ele>204</ele>
        <time>2014-05-31T12:36:32Z</time>
      </trkpt>
      <trkpt lat="44.42014" lon="4.10523">
        <ele>203</ele>
        <time>2014-05-31T12:36:36Z</time>
      </trkpt>
      <trkpt lat="44.42006" lon="4.10535">
        <ele>201.8</ele>
        <time>2014-05-31T12:36:39Z</time>
      </trkpt>
      <trkpt lat="44.42022" lon="4.10543">
        <ele>202</ele>
        <time>2014-05-31T12:36:41Z</time>
      </trkpt>
      <trkpt lat="44.4204" lon="4.10534">
        <ele>201</ele>
        <time>2014-05-31T12:36:43Z</time>
      </trkpt>
      <trkpt lat="44.42048" lon="4.10541">
        <ele>199.5</ele>
        <time>2014-05-31T12:36:46Z</time>
      </trkpt>
      <trkpt lat="44.42049" lon="4.10557">
        <ele>197.5</ele>
        <time>2014-05-31T12:36:50Z</time>
      </trkpt>
      <trkpt lat="44.42045" lon="4.10573">
        <ele>195</ele>
        <time>2014-05-31T12:36:51Z</time>
      </trkpt>
      <trkpt lat="44.42045" lon="4.1059">
        <ele>193</ele>
        <time>2014-05-31T12:36:53Z</time>
      </trkpt>
      <trkpt lat="44.42047" lon="4.10606">
        <ele>192</ele>
        <time>2014-05-31T12:36:55Z</time>
      </trkpt>
      <trkpt lat="44.42049" lon="4.10622">
        <ele>190.8</ele>
        <time>2014-05-31T12:36:58Z</time>
      </trkpt>
      <trkpt lat="44.42053" lon="4.10638">
        <ele>189.7</ele>
        <time>2014-05-31T12:37:01Z</time>
      </trkpt>
      <trkpt lat="44.42057" lon="4.10655">
        <ele>187.9</ele>
        <time>2014-05-31T12:37:06Z</time>
      </trkpt>
      <trkpt lat="44.4206" lon="4.1067">
        <ele>186</ele>
        <time>2014-05-31T12:37:10Z</time>
      </trkpt>
      <trkpt lat="44.42061" lon="4.10686">
        <ele>176.6</ele>
        <time>2014-05-31T12:37:25Z</time>
      </trkpt>
      <trkpt lat="44.42087" lon="4.10683">
        <ele>171.7</ele>
        <time>2014-05-31T12:37:39Z</time>
      </trkpt>
      <trkpt lat="44.42104" lon="4.10687">
        <ele>171.5</ele>
        <time>2014-05-31T12:37:43Z</time>
      </trkpt>
      <trkpt lat="44.42121" lon="4.1069">
        <ele>171.2</ele>
        <time>2014-05-31T12:37:47Z</time>
      </trkpt>
      <trkpt lat="44.42138" lon="4.10693">
        <ele>170.5</ele>
        <time>2014-05-31T12:37:51Z</time>
      </trkpt>
      <trkpt lat="44.42154" lon="4.107">
        <ele>170</ele>
        <time>2014-05-31T12:37:56Z</time>
      </trkpt>
      <trkpt lat="44.42167" lon="4.10708">
        <ele>169.2</ele>
        <time>2014-05-31T12:38:03Z</time>
      </trkpt>
      <trkpt lat="44.4218" lon="4.10716">
        <ele>167.9</ele>
        <time>2014-05-31T12:38:08Z</time>
      </trkpt>
      <trkpt lat="44.42194" lon="4.10721">
        <ele>166.8</ele>
        <time>2014-05-31T12:38:34Z</time>
      </trkpt>
      <trkpt lat="44.42212" lon="4.10724">
        <ele>168.1</ele>
        <time>2014-05-31T12:38:40Z</time>
      </trkpt>
      <trkpt lat="44.42228" lon="4.10726">
        <ele>169.2</ele>
        <time>2014-05-31T12:38:45Z</time>
      </trkpt>
      <trkpt lat="44.42241" lon="4.10736">
        <ele>167</ele>
        <time>2014-05-31T12:38:49Z</time>
      </trkpt>
      <trkpt lat="44.42253" lon="4.10749">
        <ele>165.3</ele>
        <time>2014-05-31T12:38:52Z</time>
      </trkpt>
      <trkpt lat="44.4226" lon="4.10768">
        <ele>164.5</ele>
        <time>2014-05-31T12:38:53Z</time>
      </trkpt>
      <trkpt lat="44.42264" lon="4.10785">
        <ele>163.8</ele>
        <time>2014-05-31T12:38:59Z</time>
      </trkpt>
      <trkpt lat="44.42272" lon="4.10792">
        <ele>160.6</ele>
        <time>2014-05-31T12:39:05Z</time>
      </trkpt>
      <trkpt lat="44.42276" lon="4.10814">
        <ele>157.4</ele>
        <time>2014-05-31T12:39:12Z</time>
      </trkpt>
      <trkpt lat="44.42286" lon="4.10825">
        <ele>155.6</ele>
        <time>2014-05-31T12:39:17Z</time>
      </trkpt>
      <trkpt lat="44.42295" lon="4.10836">
        <ele>154.5</ele>
        <time>2014-05-31T12:39:21Z</time>
      </trkpt>
      <trkpt lat="44.42304" lon="4.10849">
        <ele>154.2</ele>
        <time>2014-05-31T12:39:26Z</time>
      </trkpt>
      <trkpt lat="44.42312" lon="4.10862">
        <ele>153</ele>
        <time>2014-05-31T12:39:31Z</time>
      </trkpt>
      <trkpt lat="44.42321" lon="4.10875">
        <ele>151.6</ele>
        <time>2014-05-31T12:39:36Z</time>
      </trkpt>
      <trkpt lat="44.4233" lon="4.10889">
        <ele>149.9</ele>
        <time>2014-05-31T12:39:45Z</time>
      </trkpt>
      <trkpt lat="44.42337" lon="4.10902">
        <ele>148</ele>
        <time>2014-05-31T12:39:54Z</time>
      </trkpt>
      <trkpt lat="44.42345" lon="4.10919">
        <ele>147</ele>
        <time>2014-05-31T12:39:57Z</time>
      </trkpt>
      <trkpt lat="44.42351" lon="4.10932">
        <ele>147.2</ele>
        <time>2014-05-31T12:40:02Z</time>
      </trkpt>
      <trkpt lat="44.42356" lon="4.10947">
        <ele>147.4</ele>
        <time>2014-05-31T12:40:08Z</time>
      </trkpt>
      <trkpt lat="44.42363" lon="4.1096">
        <ele>148</ele>
        <time>2014-05-31T12:40:13Z</time>
      </trkpt>
      <trkpt lat="44.42363" lon="4.10976">
        <ele>149.1</ele>
        <time>2014-05-31T12:40:17Z</time>
      </trkpt>
      <trkpt lat="44.42362" lon="4.10982">
        <ele>150.3</ele>
        <time>2014-05-31T12:41:07Z</time>
      </trkpt>
      <trkpt lat="44.42393" lon="4.10968">
        <ele>150.1</ele>
        <time>2014-05-31T12:41:19Z</time>
      </trkpt>
      <trkpt lat="44.42408" lon="4.10966">
        <ele>153.4</ele>
        <time>2014-05-31T12:41:26Z</time>
      </trkpt>
      <trkpt lat="44.42412" lon="4.10973">
        <ele>155</ele>
        <time>2014-05-31T12:41:33Z</time>
      </trkpt>
      <trkpt lat="44.42396" lon="4.10979">
        <ele>155.4</ele>
        <time>2014-05-31T12:41:39Z</time>
      </trkpt>
      <trkpt lat="44.42382" lon="4.1099">
        <ele>155</ele>
        <time>2014-05-31T12:41:44Z</time>
      </trkpt>
      <trkpt lat="44.42371" lon="4.11004">
        <ele>155</ele>
        <time>2014-05-31T12:41:48Z</time>
      </trkpt>
      <trkpt lat="44.42359" lon="4.11016">
        <ele>154.5</ele>
        <time>2014-05-31T12:41:51Z</time>
      </trkpt>
      <trkpt lat="44.42348" lon="4.11026">
        <ele>155</ele>
        <time>2014-05-31T12:41:55Z</time>
      </trkpt>
      <trkpt lat="44.42334" lon="4.11035">
        <ele>155.2</ele>
        <time>2014-05-31T12:41:58Z</time>
      </trkpt>
      <trkpt lat="44.42315" lon="4.11042">
        <ele>155.5</ele>
        <time>2014-05-31T12:42:04Z</time>
      </trkpt>
      <trkpt lat="44.42307" lon="4.11045">
        <ele>155.6</ele>
        <time>2014-05-31T12:42:12Z</time>
      </trkpt>
      <trkpt lat="44.42289" lon="4.11049">
        <ele>155.7</ele>
        <time>2014-05-31T12:42:16Z</time>
      </trkpt>
      <trkpt lat="44.42274" lon="4.11047">
        <ele>155.5</ele>
        <time>2014-05-31T12:42:20Z</time>
      </trkpt>
      <trkpt lat="44.42258" lon="4.11042">
        <ele>155</ele>
        <time>2014-05-31T12:42:23Z</time>
      </trkpt>
      <trkpt lat="44.42243" lon="4.11037">
        <ele>155</ele>
        <time>2014-05-31T12:42:27Z</time>
      </trkpt>
      <trkpt lat="44.42228" lon="4.11033">
        <ele>155</ele>
        <time>2014-05-31T12:42:29Z</time>
      </trkpt>
      <trkpt lat="44.42213" lon="4.11031">
        <ele>155.5</ele>
        <time>2014-05-31T12:42:33Z</time>
      </trkpt>
      <trkpt lat="44.42198" lon="4.1103">
        <ele>155.5</ele>
        <time>2014-05-31T12:42:35Z</time>
      </trkpt>
      <trkpt lat="44.42182" lon="4.11027">
        <ele>155.5</ele>
        <time>2014-05-31T12:42:38Z</time>
      </trkpt>
      <trkpt lat="44.42167" lon="4.11026">
        <ele>155.5</ele>
        <time>2014-05-31T12:42:41Z</time>
      </trkpt>
      <trkpt lat="44.42151" lon="4.11027">
        <ele>155.3</ele>
        <time>2014-05-31T12:42:44Z</time>
      </trkpt>
      <trkpt lat="44.42134" lon="4.11026">
        <ele>154.3</ele>
        <time>2014-05-31T12:42:47Z</time>
      </trkpt>
      <trkpt lat="44.42116" lon="4.11026">
        <ele>153.8</ele>
        <time>2014-05-31T12:42:51Z</time>
      </trkpt>
      <trkpt lat="44.42097" lon="4.11025">
        <ele>153</ele>
        <time>2014-05-31T12:42:53Z</time>
      </trkpt>
      <trkpt lat="44.4208" lon="4.11014">
        <ele>153</ele>
        <time>2014-05-31T12:42:56Z</time>
      </trkpt>
      <trkpt lat="44.42064" lon="4.11007">
        <ele>153</ele>
        <time>2014-05-31T12:43:00Z</time>
      </trkpt>
      <trkpt lat="44.42047" lon="4.11005">
        <ele>153</ele>
        <time>2014-05-31T12:43:03Z</time>
      </trkpt>
      <trkpt lat="44.42032" lon="4.11009">
        <ele>153.5</ele>
        <time>2014-05-31T12:43:07Z</time>
      </trkpt>
      <trkpt lat="44.42021" lon="4.11013">
        <ele>156.5</ele>
        <time>2014-05-31T12:43:11Z</time>
      </trkpt>
      <trkpt lat="44.4199" lon="4.1103">
        <ele>158.3</ele>
        <time>2014-05-31T12:46:05Z</time>
      </trkpt>
      <trkpt lat="44.41976" lon="4.11039">
        <ele>157.2</ele>
        <time>2014-05-31T12:46:09Z</time>
      </trkpt>
      <trkpt lat="44.41959" lon="4.11046">
        <ele>155.3</ele>
        <time>2014-05-31T12:46:13Z</time>
      </trkpt>
      <trkpt lat="44.41942" lon="4.11047">
        <ele>154.2</ele>
        <time>2014-05-31T12:46:17Z</time>
      </trkpt>
      <trkpt lat="44.41927" lon="4.11046">
        <ele>153.8</ele>
        <time>2014-05-31T12:46:21Z</time>
      </trkpt>
      <trkpt lat="44.4191" lon="4.11046">
        <ele>154</ele>
        <time>2014-05-31T12:46:25Z</time>
      </trkpt>
      <trkpt lat="44.41893" lon="4.11046">
        <ele>154</ele>
        <time>2014-05-31T12:46:29Z</time>
      </trkpt>
      <trkpt lat="44.41876" lon="4.11048">
        <ele>154.3</ele>
        <time>2014-05-31T12:46:32Z</time>
      </trkpt>
      <trkpt lat="44.41858" lon="4.11052">
        <ele>154.7</ele>
        <time>2014-05-31T12:46:37Z</time>
      </trkpt>
      <trkpt lat="44.41842" lon="4.11057">
        <ele>154.7</ele>
        <time>2014-05-31T12:46:41Z</time>
      </trkpt>
      <trkpt lat="44.41826" lon="4.1106">
        <ele>155</ele>
        <time>2014-05-31T12:46:44Z</time>
      </trkpt>
      <trkpt lat="44.4181" lon="4.11064">
        <ele>154.5</ele>
        <time>2014-05-31T12:46:49Z</time>
      </trkpt>
      <trkpt lat="44.41793" lon="4.11066">
        <ele>154</ele>
        <time>2014-05-31T12:46:53Z</time>
      </trkpt>
      <trkpt lat="44.41776" lon="4.11066">
        <ele>154</ele>
        <time>2014-05-31T12:46:57Z</time>
      </trkpt>
      <trkpt lat="44.4176" lon="4.11066">
        <ele>154.3</ele>
        <time>2014-05-31T12:47:01Z</time>
      </trkpt>
      <trkpt lat="44.41743" lon="4.11067">
        <ele>154.8</ele>
        <time>2014-05-31T12:47:05Z</time>
      </trkpt>
      <trkpt lat="44.41726" lon="4.11066">
        <ele>154.3</ele>
        <time>2014-05-31T12:47:09Z</time>
      </trkpt>
      <trkpt lat="44.4171" lon="4.11064">
        <ele>154.2</ele>
        <time>2014-05-31T12:47:13Z</time>
      </trkpt>
      <trkpt lat="44.41699" lon="4.11072">
        <ele>154</ele>
        <time>2014-05-31T12:47:16Z</time>
      </trkpt>
      <trkpt lat="44.41693" lon="4.11086">
        <ele>154.8</ele>
        <time>2014-05-31T12:47:20Z</time>
      </trkpt>
      <trkpt lat="44.41692" lon="4.11103">
        <ele>155.3</ele>
        <time>2014-05-31T12:47:22Z</time>
      </trkpt>
      <trkpt lat="44.41692" lon="4.11121">
        <ele>155.5</ele>
        <time>2014-05-31T12:47:25Z</time>
      </trkpt>
      <trkpt lat="44.41692" lon="4.1114">
        <ele>155.5</ele>
        <time>2014-05-31T12:47:28Z</time>
      </trkpt>
      <trkpt lat="44.41692" lon="4.11158">
        <ele>156</ele>
        <time>2014-05-31T12:47:31Z</time>
      </trkpt>
      <trkpt lat="44.41692" lon="4.11176">
        <ele>156.3</ele>
        <time>2014-05-31T12:47:34Z</time>
      </trkpt>
      <trkpt lat="44.41692" lon="4.11193">
        <ele>156.8</ele>
        <time>2014-05-31T12:47:38Z</time>
      </trkpt>
      <trkpt lat="44.41683" lon="4.11207">
        <ele>157.2</ele>
        <time>2014-05-31T12:47:41Z</time>
      </trkpt>
      <trkpt lat="44.41667" lon="4.11211">
        <ele>157.5</ele>
        <time>2014-05-31T12:47:45Z</time>
      </trkpt>
      <trkpt lat="44.41651" lon="4.11211">
        <ele>158.5</ele>
        <time>2014-05-31T12:47:49Z</time>
      </trkpt>
      <trkpt lat="44.41635" lon="4.11207">
        <ele>159.3</ele>
        <time>2014-05-31T12:47:53Z</time>
      </trkpt>
      <trkpt lat="44.4162" lon="4.112">
        <ele>159</ele>
        <time>2014-05-31T12:47:57Z</time>
      </trkpt>
      <trkpt lat="44.41605" lon="4.1119">
        <ele>159.2</ele>
        <time>2014-05-31T12:48:01Z</time>
      </trkpt>
      <trkpt lat="44.4159" lon="4.1118">
        <ele>159.5</ele>
        <time>2014-05-31T12:48:05Z</time>
      </trkpt>
      <trkpt lat="44.41578" lon="4.11169">
        <ele>159.5</ele>
        <time>2014-05-31T12:48:07Z</time>
      </trkpt>
      <trkpt lat="44.41567" lon="4.11156">
        <ele>160</ele>
        <time>2014-05-31T12:48:11Z</time>
      </trkpt>
      <trkpt lat="44.41555" lon="4.11143">
        <ele>160.5</ele>
        <time>2014-05-31T12:48:13Z</time>
      </trkpt>
      <trkpt lat="44.41543" lon="4.11131">
        <ele>160.5</ele>
        <time>2014-05-31T12:48:17Z</time>
      </trkpt>
      <trkpt lat="44.41531" lon="4.11121">
        <ele>161</ele>
        <time>2014-05-31T12:48:19Z</time>
      </trkpt>
      <trkpt lat="44.41519" lon="4.11111">
        <ele>161.5</ele>
        <time>2014-05-31T12:48:22Z</time>
      </trkpt>
      <trkpt lat="44.41508" lon="4.111">
        <ele>162</ele>
        <time>2014-05-31T12:48:26Z</time>
      </trkpt>
      <trkpt lat="44.41497" lon="4.11087">
        <ele>162</ele>
        <time>2014-05-31T12:48:28Z</time>
      </trkpt>
      <trkpt lat="44.41486" lon="4.11074">
        <ele>161.8</ele>
        <time>2014-05-31T12:48:31Z</time>
      </trkpt>
      <trkpt lat="44.41478" lon="4.11058">
        <ele>162.7</ele>
        <time>2014-05-31T12:48:38Z</time>
      </trkpt>
      <trkpt lat="44.41479" lon="4.1105">
        <ele>165</ele>
        <time>2014-05-31T12:48:55Z</time>
      </trkpt>
      <trkpt lat="44.41463" lon="4.11037">
        <ele>166.3</ele>
        <time>2014-05-31T12:49:09Z</time>
      </trkpt>
      <trkpt lat="44.41454" lon="4.11024">
        <ele>166.5</ele>
        <time>2014-05-31T12:49:13Z</time>
      </trkpt>
      <trkpt lat="44.41445" lon="4.1101">
        <ele>167</ele>
        <time>2014-05-31T12:49:17Z</time>
      </trkpt>
      <trkpt lat="44.41436" lon="4.10998">
        <ele>166.5</ele>
        <time>2014-05-31T12:49:19Z</time>
      </trkpt>
      <trkpt lat="44.41428" lon="4.10985">
        <ele>167</ele>
        <time>2014-05-31T12:49:23Z</time>
      </trkpt>
      <trkpt lat="44.4142" lon="4.1097">
        <ele>166.8</ele>
        <time>2014-05-31T12:49:25Z</time>
      </trkpt>
      <trkpt lat="44.41412" lon="4.10956">
        <ele>166.8</ele>
        <time>2014-05-31T12:49:29Z</time>
      </trkpt>
      <trkpt lat="44.41404" lon="4.10943">
        <ele>167</ele>
        <time>2014-05-31T12:49:32Z</time>
      </trkpt>
      <trkpt lat="44.41394" lon="4.1093">
        <ele>166.7</ele>
        <time>2014-05-31T12:49:35Z</time>
      </trkpt>
      <trkpt lat="44.41383" lon="4.10915">
        <ele>167.5</ele>
        <time>2014-05-31T12:49:39Z</time>
      </trkpt>
      <trkpt lat="44.41373" lon="4.10901">
        <ele>167.5</ele>
        <time>2014-05-31T12:49:42Z</time>
      </trkpt>
      <trkpt lat="44.41365" lon="4.10889">
        <ele>167.8</ele>
        <time>2014-05-31T12:49:45Z</time>
      </trkpt>
      <trkpt lat="44.41355" lon="4.10876">
        <ele>167.8</ele>
        <time>2014-05-31T12:49:49Z</time>
      </trkpt>
      <trkpt lat="44.41344" lon="4.10863">
        <ele>168</ele>
        <time>2014-05-31T12:49:53Z</time>
      </trkpt>
      <trkpt lat="44.41336" lon="4.10849">
        <ele>167.7</ele>
        <time>2014-05-31T12:49:57Z</time>
      </trkpt>
      <trkpt lat="44.41328" lon="4.10832">
        <ele>168</ele>
        <time>2014-05-31T12:50:01Z</time>
      </trkpt>
      <trkpt lat="44.4132" lon="4.10814">
        <ele>168</ele>
        <time>2014-05-31T12:50:03Z</time>
      </trkpt>
      <trkpt lat="44.41312" lon="4.10795">
        <ele>168</ele>
        <time>2014-05-31T12:50:06Z</time>
      </trkpt>
      <trkpt lat="44.41303" lon="4.10776">
        <ele>167.8</ele>
        <time>2014-05-31T12:50:10Z</time>
      </trkpt>
      <trkpt lat="44.41293" lon="4.10758">
        <ele>167.8</ele>
        <time>2014-05-31T12:50:13Z</time>
      </trkpt>
      <trkpt lat="44.41284" lon="4.10742">
        <ele>167.5</ele>
        <time>2014-05-31T12:50:15Z</time>
      </trkpt>
      <trkpt lat="44.41272" lon="4.10728">
        <ele>167.8</ele>
        <time>2014-05-31T12:50:19Z</time>
      </trkpt>
      <trkpt lat="44.41261" lon="4.10714">
        <ele>168</ele>
        <time>2014-05-31T12:50:21Z</time>
      </trkpt>
      <trkpt lat="44.41252" lon="4.10699">
        <ele>168</ele>
        <time>2014-05-31T12:50:25Z</time>
      </trkpt>
      <trkpt lat="44.41242" lon="4.10684">
        <ele>168</ele>
        <time>2014-05-31T12:50:27Z</time>
      </trkpt>
      <trkpt lat="44.41232" lon="4.10672">
        <ele>167.5</ele>
        <time>2014-05-31T12:50:30Z</time>
      </trkpt>
      <trkpt lat="44.41223" lon="4.10659">
        <ele>167.5</ele>
        <time>2014-05-31T12:50:33Z</time>
      </trkpt>
      <trkpt lat="44.41213" lon="4.10645">
        <ele>167.8</ele>
        <time>2014-05-31T12:50:37Z</time>
      </trkpt>
      <trkpt lat="44.41203" lon="4.10631">
        <ele>167.8</ele>
        <time>2014-05-31T12:50:40Z</time>
      </trkpt>
      <trkpt lat="44.41194" lon="4.10617">
        <ele>167.5</ele>
        <time>2014-05-31T12:50:43Z</time>
      </trkpt>
      <trkpt lat="44.41185" lon="4.10601">
        <ele>167.8</ele>
        <time>2014-05-31T12:50:46Z</time>
      </trkpt>
      <trkpt lat="44.41176" lon="4.10586">
        <ele>167.3</ele>
        <time>2014-05-31T12:50:50Z</time>
      </trkpt>
      <trkpt lat="44.41168" lon="4.10571">
        <ele>166.8</ele>
        <time>2014-05-31T12:50:52Z</time>
      </trkpt>
      <trkpt lat="44.41162" lon="4.10556">
        <ele>166.5</ele>
        <time>2014-05-31T12:50:55Z</time>
      </trkpt>
      <trkpt lat="44.41158" lon="4.10541">
        <ele>166.8</ele>
        <time>2014-05-31T12:50:58Z</time>
      </trkpt>
      <trkpt lat="44.41155" lon="4.10527">
        <ele>168</ele>
        <time>2014-05-31T12:51:02Z</time>
      </trkpt>
      <trkpt lat="44.4115" lon="4.10512">
        <ele>168</ele>
        <time>2014-05-31T12:51:04Z</time>
      </trkpt>
      <trkpt lat="44.41147" lon="4.10496">
        <ele>168</ele>
        <time>2014-05-31T12:51:07Z</time>
      </trkpt>
      <trkpt lat="44.41144" lon="4.10479">
        <ele>168.3</ele>
        <time>2014-05-31T12:51:11Z</time>
      </trkpt>
      <trkpt lat="44.41142" lon="4.10462">
        <ele>168.8</ele>
        <time>2014-05-31T12:51:13Z</time>
      </trkpt>
      <trkpt lat="44.41139" lon="4.10445">
        <ele>168.8</ele>
        <time>2014-05-31T12:51:16Z</time>
      </trkpt>
      <trkpt lat="44.41135" lon="4.10428">
        <ele>169</ele>
        <time>2014-05-31T12:51:19Z</time>
      </trkpt>
      <trkpt lat="44.41132" lon="4.10411">
        <ele>169.3</ele>
        <time>2014-05-31T12:51:23Z</time>
      </trkpt>
      <trkpt lat="44.41131" lon="4.10396">
        <ele>170.8</ele>
        <time>2014-05-31T12:51:25Z</time>
      </trkpt>
      <trkpt lat="44.41129" lon="4.10379">
        <ele>171.3</ele>
        <time>2014-05-31T12:51:29Z</time>
      </trkpt>
      <trkpt lat="44.41129" lon="4.10359">
        <ele>171.5</ele>
        <time>2014-05-31T12:51:32Z</time>
      </trkpt>
      <trkpt lat="44.4113" lon="4.10347">
        <ele>171.8</ele>
        <time>2014-05-31T12:51:36Z</time>
      </trkpt>
      <trkpt lat="44.41132" lon="4.10331">
        <ele>171.8</ele>
        <time>2014-05-31T12:51:39Z</time>
      </trkpt>
      <trkpt lat="44.41135" lon="4.10317">
        <ele>171.8</ele>
        <time>2014-05-31T12:51:42Z</time>
      </trkpt>
      <trkpt lat="44.41139" lon="4.10302">
        <ele>172.3</ele>
        <time>2014-05-31T12:51:44Z</time>
      </trkpt>
      <trkpt lat="44.41143" lon="4.10287">
        <ele>173</ele>
        <time>2014-05-31T12:51:48Z</time>
      </trkpt>
      <trkpt lat="44.41148" lon="4.10271">
        <ele>173.5</ele>
        <time>2014-05-31T12:51:49Z</time>
      </trkpt>
      <trkpt lat="44.41156" lon="4.10255">
        <ele>174</ele>
        <time>2014-05-31T12:51:53Z</time>
      </trkpt>
      <trkpt lat="44.41162" lon="4.10239">
        <ele>174</ele>
        <time>2014-05-31T12:51:55Z</time>
      </trkpt>
      <trkpt lat="44.41168" lon="4.10221">
        <ele>174.5</ele>
        <time>2014-05-31T12:51:57Z</time>
      </trkpt>
      <trkpt lat="44.41175" lon="4.10203">
        <ele>174.5</ele>
        <time>2014-05-31T12:52:01Z</time>
      </trkpt>
      <trkpt lat="44.41181" lon="4.10187">
        <ele>175</ele>
        <time>2014-05-31T12:52:03Z</time>
      </trkpt>
      <trkpt lat="44.4119" lon="4.10169">
        <ele>175</ele>
        <time>2014-05-31T12:52:07Z</time>
      </trkpt>
      <trkpt lat="44.41198" lon="4.10153">
        <ele>175.5</ele>
        <time>2014-05-31T12:52:09Z</time>
      </trkpt>
      <trkpt lat="44.41205" lon="4.1014">
        <ele>175.5</ele>
        <time>2014-05-31T12:52:10Z</time>
      </trkpt>
      <trkpt lat="44.41214" lon="4.10124">
        <ele>176</ele>
        <time>2014-05-31T12:52:14Z</time>
      </trkpt>
      <trkpt lat="44.41224" lon="4.10107">
        <ele>176.5</ele>
        <time>2014-05-31T12:52:16Z</time>
      </trkpt>
      <trkpt lat="44.41233" lon="4.10091">
        <ele>177</ele>
        <time>2014-05-31T12:52:20Z</time>
      </trkpt>
      <trkpt lat="44.41242" lon="4.10077">
        <ele>177.3</ele>
        <time>2014-05-31T12:52:22Z</time>
      </trkpt>
      <trkpt lat="44.41251" lon="4.10064">
        <ele>178</ele>
        <time>2014-05-31T12:52:25Z</time>
      </trkpt>
      <trkpt lat="44.4126" lon="4.1005">
        <ele>178.3</ele>
        <time>2014-05-31T12:52:28Z</time>
      </trkpt>
      <trkpt lat="44.41268" lon="4.10036">
        <ele>178.5</ele>
        <time>2014-05-31T12:52:32Z</time>
      </trkpt>
      <trkpt lat="44.41276" lon="4.10022">
        <ele>179</ele>
        <time>2014-05-31T12:52:34Z</time>
      </trkpt>
      <trkpt lat="44.41284" lon="4.10008">
        <ele>179</ele>
        <time>2014-05-31T12:52:38Z</time>
      </trkpt>
      <trkpt lat="44.41292" lon="4.09995">
        <ele>179.5</ele>
        <time>2014-05-31T12:52:40Z</time>
      </trkpt>
      <trkpt lat="44.413" lon="4.09981">
        <ele>179.5</ele>
        <time>2014-05-31T12:52:44Z</time>
      </trkpt>
      <trkpt lat="44.41307" lon="4.09966">
        <ele>179.3</ele>
        <time>2014-05-31T12:52:47Z</time>
      </trkpt>
      <trkpt lat="44.41313" lon="4.09953">
        <ele>179</ele>
        <time>2014-05-31T12:52:51Z</time>
      </trkpt>
      <trkpt lat="44.41318" lon="4.09938">
        <ele>179.5</ele>
        <time>2014-05-31T12:52:53Z</time>
      </trkpt>
      <trkpt lat="44.41323" lon="4.09924">
        <ele>179.8</ele>
        <time>2014-05-31T12:52:56Z</time>
      </trkpt>
      <trkpt lat="44.41327" lon="4.09909">
        <ele>180.3</ele>
        <time>2014-05-31T12:53:00Z</time>
      </trkpt>
      <trkpt lat="44.41331" lon="4.09893">
        <ele>181.3</ele>
        <time>2014-05-31T12:53:03Z</time>
      </trkpt>
      <trkpt lat="44.41336" lon="4.09877">
        <ele>182</ele>
        <time>2014-05-31T12:53:06Z</time>
      </trkpt>
      <trkpt lat="44.41341" lon="4.09863">
        <ele>182</ele>
        <time>2014-05-31T12:53:09Z</time>
      </trkpt>
      <trkpt lat="44.41347" lon="4.09848">
        <ele>182.5</ele>
        <time>2014-05-31T12:53:12Z</time>
      </trkpt>
      <trkpt lat="44.41352" lon="4.09834">
        <ele>183.3</ele>
        <time>2014-05-31T12:53:16Z</time>
      </trkpt>
      <trkpt lat="44.41356" lon="4.09818">
        <ele>184</ele>
        <time>2014-05-31T12:53:19Z</time>
      </trkpt>
      <trkpt lat="44.41358" lon="4.09802">
        <ele>184.8</ele>
        <time>2014-05-31T12:53:21Z</time>
      </trkpt>
      <trkpt lat="44.41357" lon="4.09786">
        <ele>185.5</ele>
        <time>2014-05-31T12:53:24Z</time>
      </trkpt>
      <trkpt lat="44.41355" lon="4.09771">
        <ele>184.8</ele>
        <time>2014-05-31T12:53:28Z</time>
      </trkpt>
      <trkpt lat="44.41351" lon="4.09755">
        <ele>184.2</ele>
        <time>2014-05-31T12:53:32Z</time>
      </trkpt>
      <trkpt lat="44.41348" lon="4.0974">
        <ele>184</ele>
        <time>2014-05-31T12:53:36Z</time>
      </trkpt>
      <trkpt lat="44.41346" lon="4.09724">
        <ele>184</ele>
        <time>2014-05-31T12:53:41Z</time>
      </trkpt>
      <trkpt lat="44.41344" lon="4.09708">
        <ele>183.9</ele>
        <time>2014-05-31T12:53:45Z</time>
      </trkpt>
      <trkpt lat="44.41342" lon="4.09691">
        <ele>183.9</ele>
        <time>2014-05-31T12:53:50Z</time>
      </trkpt>
      <trkpt lat="44.4134" lon="4.09674">
        <ele>184.3</ele>
        <time>2014-05-31T12:53:55Z</time>
      </trkpt>
      <trkpt lat="44.41337" lon="4.09658">
        <ele>184.8</ele>
        <time>2014-05-31T12:54:01Z</time>
      </trkpt>
      <trkpt lat="44.41332" lon="4.09643">
        <ele>185.7</ele>
        <time>2014-05-31T12:54:06Z</time>
      </trkpt>
      <trkpt lat="44.41322" lon="4.0963">
        <ele>188</ele>
        <time>2014-05-31T12:54:13Z</time>
      </trkpt>
      <trkpt lat="44.41309" lon="4.09623">
        <ele>191.5</ele>
        <time>2014-05-31T12:54:21Z</time>
      </trkpt>
      <trkpt lat="44.41295" lon="4.09617">
        <ele>190.4</ele>
        <time>2014-05-31T12:54:29Z</time>
      </trkpt>
      <trkpt lat="44.41282" lon="4.09618">
        <ele>191.8</ele>
        <time>2014-05-31T12:54:38Z</time>
      </trkpt>
      <trkpt lat="44.41287" lon="4.09631">
        <ele>192</ele>
        <time>2014-05-31T12:54:45Z</time>
      </trkpt>
      <trkpt lat="44.41301" lon="4.0964">
        <ele>192.5</ele>
        <time>2014-05-31T12:54:51Z</time>
      </trkpt>
      <trkpt lat="44.41312" lon="4.09652">
        <ele>192.5</ele>
        <time>2014-05-31T12:54:55Z</time>
      </trkpt>
      <trkpt lat="44.41316" lon="4.09667">
        <ele>191.5</ele>
        <time>2014-05-31T12:54:59Z</time>
      </trkpt>
      <trkpt lat="44.41317" lon="4.09683">
        <ele>191.8</ele>
        <time>2014-05-31T12:55:03Z</time>
      </trkpt>
      <trkpt lat="44.41317" lon="4.097">
        <ele>193</ele>
        <time>2014-05-31T12:55:07Z</time>
      </trkpt>
      <trkpt lat="44.41316" lon="4.09717">
        <ele>193</ele>
        <time>2014-05-31T12:55:10Z</time>
      </trkpt>
      <trkpt lat="44.41315" lon="4.09732">
        <ele>193</ele>
        <time>2014-05-31T12:55:13Z</time>
      </trkpt>
      <trkpt lat="44.41313" lon="4.09747">
        <ele>193</ele>
        <time>2014-05-31T12:55:17Z</time>
      </trkpt>
      <trkpt lat="44.4131" lon="4.09762">
        <ele>192.5</ele>
        <time>2014-05-31T12:55:20Z</time>
      </trkpt>
      <trkpt lat="44.41307" lon="4.09778">
        <ele>192.2</ele>
        <time>2014-05-31T12:55:25Z</time>
      </trkpt>
      <trkpt lat="44.41302" lon="4.09795">
        <ele>192.8</ele>
        <time>2014-05-31T12:55:29Z</time>
      </trkpt>
      <trkpt lat="44.41296" lon="4.09811">
        <ele>192.8</ele>
        <time>2014-05-31T12:55:33Z</time>
      </trkpt>
      <trkpt lat="44.4129" lon="4.09826">
        <ele>193.3</ele>
        <time>2014-05-31T12:55:37Z</time>
      </trkpt>
      <trkpt lat="44.41287" lon="4.09841">
        <ele>194.5</ele>
        <time>2014-05-31T12:55:39Z</time>
      </trkpt>
      <trkpt lat="44.41282" lon="4.09855">
        <ele>194.3</ele>
        <time>2014-05-31T12:55:42Z</time>
      </trkpt>
      <trkpt lat="44.41278" lon="4.09869">
        <ele>194</ele>
        <time>2014-05-31T12:55:45Z</time>
      </trkpt>
      <trkpt lat="44.41274" lon="4.09885">
        <ele>195</ele>
        <time>2014-05-31T12:55:49Z</time>
      </trkpt>
      <trkpt lat="44.41267" lon="4.09902">
        <ele>195</ele>
        <time>2014-05-31T12:55:53Z</time>
      </trkpt>
      <trkpt lat="44.41259" lon="4.09919">
        <ele>195</ele>
        <time>2014-05-31T12:55:57Z</time>
      </trkpt>
      <trkpt lat="44.41249" lon="4.09933">
        <ele>195</ele>
        <time>2014-05-31T12:56:01Z</time>
      </trkpt>
      <trkpt lat="44.41239" lon="4.09946">
        <ele>194.8</ele>
        <time>2014-05-31T12:56:04Z</time>
      </trkpt>
      <trkpt lat="44.41229" lon="4.09959">
        <ele>194.5</ele>
        <time>2014-05-31T12:56:08Z</time>
      </trkpt>
      <trkpt lat="44.41217" lon="4.09973">
        <ele>194.5</ele>
        <time>2014-05-31T12:56:12Z</time>
      </trkpt>
      <trkpt lat="44.41206" lon="4.09987">
        <ele>194.5</ele>
        <time>2014-05-31T12:56:16Z</time>
      </trkpt>
      <trkpt lat="44.41194" lon="4.1">
        <ele>194.8</ele>
        <time>2014-05-31T12:56:20Z</time>
      </trkpt>
      <trkpt lat="44.41183" lon="4.10012">
        <ele>194.8</ele>
        <time>2014-05-31T12:56:24Z</time>
      </trkpt>
      <trkpt lat="44.41172" lon="4.10027">
        <ele>195.3</ele>
        <time>2014-05-31T12:56:27Z</time>
      </trkpt>
      <trkpt lat="44.41162" lon="4.10039">
        <ele>196</ele>
        <time>2014-05-31T12:56:31Z</time>
      </trkpt>
      <trkpt lat="44.4115" lon="4.10051">
        <ele>196</ele>
        <time>2014-05-31T12:56:35Z</time>
      </trkpt>
      <trkpt lat="44.4114" lon="4.10065">
        <ele>196.3</ele>
        <time>2014-05-31T12:56:38Z</time>
      </trkpt>
      <trkpt lat="44.41131" lon="4.10078">
        <ele>199</ele>
        <time>2014-05-31T12:56:42Z</time>
      </trkpt>
      <trkpt lat="44.41123" lon="4.1009">
        <ele>200.5</ele>
        <time>2014-05-31T12:56:46Z</time>
      </trkpt>
      <trkpt lat="44.41118" lon="4.10106">
        <ele>203</ele>
        <time>2014-05-31T12:56:49Z</time>
      </trkpt>
      <trkpt lat="44.41108" lon="4.1012">
        <ele>205</ele>
        <time>2014-05-31T12:56:52Z</time>
      </trkpt>
      <trkpt lat="44.411" lon="4.10132">
        <ele>206</ele>
        <time>2014-05-31T12:56:55Z</time>
      </trkpt>
      <trkpt lat="44.41089" lon="4.10144">
        <ele>206.5</ele>
        <time>2014-05-31T12:56:58Z</time>
      </trkpt>
      <trkpt lat="44.41078" lon="4.10157">
        <ele>207</ele>
        <time>2014-05-31T12:57:01Z</time>
      </trkpt>
      <trkpt lat="44.41067" lon="4.10171">
        <ele>207.3</ele>
        <time>2014-05-31T12:57:04Z</time>
      </trkpt>
      <trkpt lat="44.41056" lon="4.10185">
        <ele>208</ele>
        <time>2014-05-31T12:57:07Z</time>
      </trkpt>
      <trkpt lat="44.41051" lon="4.10202">
        <ele>209</ele>
        <time>2014-05-31T12:57:11Z</time>
      </trkpt>
      <trkpt lat="44.41047" lon="4.1022">
        <ele>209.5</ele>
        <time>2014-05-31T12:57:13Z</time>
      </trkpt>
      <trkpt lat="44.41043" lon="4.10237">
        <ele>209.5</ele>
        <time>2014-05-31T12:57:17Z</time>
      </trkpt>
      <trkpt lat="44.4104" lon="4.10253">
        <ele>209.8</ele>
        <time>2014-05-31T12:57:19Z</time>
      </trkpt>
      <trkpt lat="44.41037" lon="4.10271">
        <ele>210</ele>
        <time>2014-05-31T12:57:23Z</time>
      </trkpt>
      <trkpt lat="44.41034" lon="4.10287">
        <ele>210.5</ele>
        <time>2014-05-31T12:57:25Z</time>
      </trkpt>
      <trkpt lat="44.41031" lon="4.10305">
        <ele>210.5</ele>
        <time>2014-05-31T12:57:28Z</time>
      </trkpt>
      <trkpt lat="44.41028" lon="4.10325">
        <ele>210.8</ele>
        <time>2014-05-31T12:57:31Z</time>
      </trkpt>
      <trkpt lat="44.41024" lon="4.10343">
        <ele>211</ele>
        <time>2014-05-31T12:57:34Z</time>
      </trkpt>
      <trkpt lat="44.41021" lon="4.10361">
        <ele>211.3</ele>
        <time>2014-05-31T12:57:37Z</time>
      </trkpt>
      <trkpt lat="44.41017" lon="4.10379">
        <ele>211</ele>
        <time>2014-05-31T12:57:40Z</time>
      </trkpt>
      <trkpt lat="44.41013" lon="4.10396">
        <ele>210.8</ele>
        <time>2014-05-31T12:57:44Z</time>
      </trkpt>
      <trkpt lat="44.4101" lon="4.10412">
        <ele>210.5</ele>
        <time>2014-05-31T12:57:46Z</time>
      </trkpt>
      <trkpt lat="44.41008" lon="4.10431">
        <ele>210.5</ele>
        <time>2014-05-31T12:57:49Z</time>
      </trkpt>
      <trkpt lat="44.41006" lon="4.10448">
        <ele>210.5</ele>
        <time>2014-05-31T12:57:52Z</time>
      </trkpt>
      <trkpt lat="44.41004" lon="4.10465">
        <ele>210.5</ele>
        <time>2014-05-31T12:57:55Z</time>
      </trkpt>
      <trkpt lat="44.41001" lon="4.10482">
        <ele>210.3</ele>
        <time>2014-05-31T12:57:58Z</time>
      </trkpt>
      <trkpt lat="44.40998" lon="4.10501">
        <ele>210</ele>
        <time>2014-05-31T12:58:01Z</time>
      </trkpt>
      <trkpt lat="44.40994" lon="4.10518">
        <ele>210</ele>
        <time>2014-05-31T12:58:04Z</time>
      </trkpt>
      <trkpt lat="44.40991" lon="4.10536">
        <ele>210.3</ele>
        <time>2014-05-31T12:58:07Z</time>
      </trkpt>
      <trkpt lat="44.40988" lon="4.10555">
        <ele>212.3</ele>
        <time>2014-05-31T12:58:11Z</time>
      </trkpt>
      <trkpt lat="44.40985" lon="4.10571">
        <ele>215.5</ele>
        <time>2014-05-31T12:58:13Z</time>
      </trkpt>
      <trkpt lat="44.40979" lon="4.10586">
        <ele>217.3</ele>
        <time>2014-05-31T12:58:17Z</time>
      </trkpt>
      <trkpt lat="44.4097" lon="4.10598">
        <ele>218</ele>
        <time>2014-05-31T12:58:19Z</time>
      </trkpt>
      <trkpt lat="44.40959" lon="4.1061">
        <ele>218</ele>
        <time>2014-05-31T12:58:23Z</time>
      </trkpt>
      <trkpt lat="44.40949" lon="4.10624">
        <ele>219.5</ele>
        <time>2014-05-31T12:58:26Z</time>
      </trkpt>
      <trkpt lat="44.40941" lon="4.10638">
        <ele>220.3</ele>
        <time>2014-05-31T12:58:30Z</time>
      </trkpt>
      <trkpt lat="44.40936" lon="4.10656">
        <ele>221.5</ele>
        <time>2014-05-31T12:58:32Z</time>
      </trkpt>
      <trkpt lat="44.40933" lon="4.10675">
        <ele>222</ele>
        <time>2014-05-31T12:58:36Z</time>
      </trkpt>
      <trkpt lat="44.40932" lon="4.10693">
        <ele>222</ele>
        <time>2014-05-31T12:58:38Z</time>
      </trkpt>
      <trkpt lat="44.40931" lon="4.10711">
        <ele>222</ele>
        <time>2014-05-31T12:58:42Z</time>
      </trkpt>
      <trkpt lat="44.4093" lon="4.10729">
        <ele>222.5</ele>
        <time>2014-05-31T12:58:44Z</time>
      </trkpt>
      <trkpt lat="44.40929" lon="4.10746">
        <ele>222.5</ele>
        <time>2014-05-31T12:58:48Z</time>
      </trkpt>
      <trkpt lat="44.40926" lon="4.10765">
        <ele>222.5</ele>
        <time>2014-05-31T12:58:50Z</time>
      </trkpt>
      <trkpt lat="44.40921" lon="4.10781">
        <ele>222.5</ele>
        <time>2014-05-31T12:58:54Z</time>
      </trkpt>
      <trkpt lat="44.40915" lon="4.10802">
        <ele>223.5</ele>
        <time>2014-05-31T12:58:56Z</time>
      </trkpt>
      <trkpt lat="44.40911" lon="4.10819">
        <ele>224.5</ele>
        <time>2014-05-31T12:58:59Z</time>
      </trkpt>
      <trkpt lat="44.4091" lon="4.10835">
        <ele>228.3</ele>
        <time>2014-05-31T12:59:02Z</time>
      </trkpt>
      <trkpt lat="44.40909" lon="4.10853">
        <ele>228</ele>
        <time>2014-05-31T12:59:05Z</time>
      </trkpt>
      <trkpt lat="44.40909" lon="4.1087">
        <ele>228.3</ele>
        <time>2014-05-31T12:59:09Z</time>
      </trkpt>
      <trkpt lat="44.40909" lon="4.10888">
        <ele>228.5</ele>
        <time>2014-05-31T12:59:11Z</time>
      </trkpt>
      <trkpt lat="44.40909" lon="4.10906">
        <ele>229</ele>
        <time>2014-05-31T12:59:14Z</time>
      </trkpt>
      <trkpt lat="44.40909" lon="4.10924">
        <ele>230</ele>
        <time>2014-05-31T12:59:17Z</time>
      </trkpt>
      <trkpt lat="44.40909" lon="4.10942">
        <ele>229.8</ele>
        <time>2014-05-31T12:59:20Z</time>
      </trkpt>
      <trkpt lat="44.40909" lon="4.10961">
        <ele>230.8</ele>
        <time>2014-05-31T12:59:23Z</time>
      </trkpt>
      <trkpt lat="44.40909" lon="4.10977">
        <ele>230.8</ele>
        <time>2014-05-31T12:59:26Z</time>
      </trkpt>
      <trkpt lat="44.40908" lon="4.10996">
        <ele>231.3</ele>
        <time>2014-05-31T12:59:29Z</time>
      </trkpt>
      <trkpt lat="44.40904" lon="4.11013">
        <ele>231.3</ele>
        <time>2014-05-31T12:59:32Z</time>
      </trkpt>
      <trkpt lat="44.40899" lon="4.1103">
        <ele>233.3</ele>
        <time>2014-05-31T12:59:35Z</time>
      </trkpt>
      <trkpt lat="44.40891" lon="4.11044">
        <ele>233.3</ele>
        <time>2014-05-31T12:59:39Z</time>
      </trkpt>
      <trkpt lat="44.40879" lon="4.11053">
        <ele>234.8</ele>
        <time>2014-05-31T12:59:42Z</time>
      </trkpt>
      <trkpt lat="44.40866" lon="4.11061">
        <ele>235</ele>
        <time>2014-05-31T12:59:46Z</time>
      </trkpt>
      <trkpt lat="44.40862" lon="4.11079">
        <ele>235.5</ele>
        <time>2014-05-31T12:59:48Z</time>
      </trkpt>
      <trkpt lat="44.40861" lon="4.11095">
        <ele>235.3</ele>
        <time>2014-05-31T12:59:52Z</time>
      </trkpt>
      <trkpt lat="44.40861" lon="4.11114">
        <ele>235.5</ele>
        <time>2014-05-31T12:59:54Z</time>
      </trkpt>
      <trkpt lat="44.40859" lon="4.11131">
        <ele>236</ele>
        <time>2014-05-31T12:59:58Z</time>
      </trkpt>
      <trkpt lat="44.40858" lon="4.11149">
        <ele>236</ele>
        <time>2014-05-31T13:00:00Z</time>
      </trkpt>
      <trkpt lat="44.40857" lon="4.11167">
        <ele>236.5</ele>
        <time>2014-05-31T13:00:01Z</time>
      </trkpt>
      <trkpt lat="44.40856" lon="4.11184">
        <ele>237</ele>
        <time>2014-05-31T13:00:05Z</time>
      </trkpt>
      <trkpt lat="44.40854" lon="4.11201">
        <ele>237</ele>
        <time>2014-05-31T13:00:06Z</time>
      </trkpt>
      <trkpt lat="44.40852" lon="4.11219">
        <ele>236.5</ele>
        <time>2014-05-31T13:00:07Z</time>
      </trkpt>
      <trkpt lat="44.4085" lon="4.11238">
        <ele>236.5</ele>
        <time>2014-05-31T13:00:10Z</time>
      </trkpt>
      <trkpt lat="44.40847" lon="4.11256">
        <ele>236</ele>
        <time>2014-05-31T13:00:12Z</time>
      </trkpt>
      <trkpt lat="44.40844" lon="4.11274">
        <ele>236</ele>
        <time>2014-05-31T13:00:14Z</time>
      </trkpt>
      <trkpt lat="44.40839" lon="4.11293">
        <ele>235.5</ele>
        <time>2014-05-31T13:00:16Z</time>
      </trkpt>
      <trkpt lat="44.40834" lon="4.11309">
        <ele>235.5</ele>
        <time>2014-05-31T13:00:19Z</time>
      </trkpt>
      <trkpt lat="44.40821" lon="4.11345">
        <ele>235.5</ele>
        <time>2014-05-31T13:00:21Z</time>
      </trkpt>
      <trkpt lat="44.40816" lon="4.11363">
        <ele>237</ele>
        <time>2014-05-31T13:00:24Z</time>
      </trkpt>
      <trkpt lat="44.4081" lon="4.1138">
        <ele>237.5</ele>
        <time>2014-05-31T13:00:25Z</time>
      </trkpt>
      <trkpt lat="44.40803" lon="4.11396">
        <ele>237</ele>
        <time>2014-05-31T13:00:27Z</time>
      </trkpt>
      <trkpt lat="44.40799" lon="4.11413">
        <ele>237</ele>
        <time>2014-05-31T13:00:31Z</time>
      </trkpt>
      <trkpt lat="44.40794" lon="4.11429">
        <ele>237</ele>
        <time>2014-05-31T13:00:32Z</time>
      </trkpt>
      <trkpt lat="44.40788" lon="4.11447">
        <ele>237</ele>
        <time>2014-05-31T13:00:33Z</time>
      </trkpt>
      <trkpt lat="44.40784" lon="4.11466">
        <ele>236.5</ele>
        <time>2014-05-31T13:00:36Z</time>
      </trkpt>
      <trkpt lat="44.40779" lon="4.11484">
        <ele>236.5</ele>
        <time>2014-05-31T13:00:38Z</time>
      </trkpt>
      <trkpt lat="44.40774" lon="4.11504">
        <ele>235.5</ele>
        <time>2014-05-31T13:00:39Z</time>
      </trkpt>
      <trkpt lat="44.4077" lon="4.11523">
        <ele>235.5</ele>
        <time>2014-05-31T13:00:42Z</time>
      </trkpt>
      <trkpt lat="44.40766" lon="4.11544">
        <ele>235.5</ele>
        <time>2014-05-31T13:00:44Z</time>
      </trkpt>
      <trkpt lat="44.40763" lon="4.11564">
        <ele>235.5</ele>
        <time>2014-05-31T13:00:45Z</time>
      </trkpt>
      <trkpt lat="44.40759" lon="4.11587">
        <ele>235</ele>
        <time>2014-05-31T13:00:48Z</time>
      </trkpt>
      <trkpt lat="44.40758" lon="4.11607">
        <ele>235</ele>
        <time>2014-05-31T13:00:50Z</time>
      </trkpt>
      <trkpt lat="44.4075" lon="4.11631">
        <ele>234.5</ele>
        <time>2014-05-31T13:00:51Z</time>
      </trkpt>
      <trkpt lat="44.40743" lon="4.11654">
        <ele>234</ele>
        <time>2014-05-31T13:00:53Z</time>
      </trkpt>
      <trkpt lat="44.40737" lon="4.11675">
        <ele>234</ele>
        <time>2014-05-31T13:00:56Z</time>
      </trkpt>
      <trkpt lat="44.40729" lon="4.11694">
        <ele>234</ele>
        <time>2014-05-31T13:00:57Z</time>
      </trkpt>
      <trkpt lat="44.40715" lon="4.11718">
        <ele>233.5</ele>
        <time>2014-05-31T13:00:59Z</time>
      </trkpt>
      <trkpt lat="44.40703" lon="4.11736">
        <ele>233</ele>
        <time>2014-05-31T13:01:02Z</time>
      </trkpt>
      <trkpt lat="44.40689" lon="4.11755">
        <ele>233</ele>
        <time>2014-05-31T13:01:03Z</time>
      </trkpt>
      <trkpt lat="44.40678" lon="4.11774">
        <ele>232.5</ele>
        <time>2014-05-31T13:01:07Z</time>
      </trkpt>
      <trkpt lat="44.40667" lon="4.11796">
        <ele>232.5</ele>
        <time>2014-05-31T13:01:08Z</time>
      </trkpt>
      <trkpt lat="44.40657" lon="4.11821">
        <ele>231.5</ele>
        <time>2014-05-31T13:01:10Z</time>
      </trkpt>
      <trkpt lat="44.40648" lon="4.1185">
        <ele>231</ele>
        <time>2014-05-31T13:01:11Z</time>
      </trkpt>
      <trkpt lat="44.40644" lon="4.11865">
        <ele>230.5</ele>
        <time>2014-05-31T13:01:12Z</time>
      </trkpt>
      <trkpt lat="44.4064" lon="4.1188">
        <ele>230</ele>
        <time>2014-05-31T13:01:14Z</time>
      </trkpt>
      <trkpt lat="44.40637" lon="4.11894">
        <ele>230</ele>
        <time>2014-05-31T13:01:15Z</time>
      </trkpt>
      <trkpt lat="44.40634" lon="4.11909">
        <ele>229.5</ele>
        <time>2014-05-31T13:01:16Z</time>
      </trkpt>
      <trkpt lat="44.40626" lon="4.11938">
        <ele>229.5</ele>
        <time>2014-05-31T13:01:18Z</time>
      </trkpt>
      <trkpt lat="44.40621" lon="4.11967">
        <ele>229.5</ele>
        <time>2014-05-31T13:01:20Z</time>
      </trkpt>
      <trkpt lat="44.40618" lon="4.1198">
        <ele>229</ele>
        <time>2014-05-31T13:01:22Z</time>
      </trkpt>
      <trkpt lat="44.4061" lon="4.12011">
        <ele>228</ele>
        <time>2014-05-31T13:01:23Z</time>
      </trkpt>
      <trkpt lat="44.40606" lon="4.12038">
        <ele>227.5</ele>
        <time>2014-05-31T13:01:24Z</time>
      </trkpt>
      <trkpt lat="44.40603" lon="4.12053">
        <ele>227.5</ele>
        <time>2014-05-31T13:01:26Z</time>
      </trkpt>
      <trkpt lat="44.40599" lon="4.12068">
        <ele>227</ele>
        <time>2014-05-31T13:01:27Z</time>
      </trkpt>
      <trkpt lat="44.40595" lon="4.12082">
        <ele>227</ele>
        <time>2014-05-31T13:01:28Z</time>
      </trkpt>
      <trkpt lat="44.4059" lon="4.12107">
        <ele>226</ele>
        <time>2014-05-31T13:01:29Z</time>
      </trkpt>
      <trkpt lat="44.40586" lon="4.12122">
        <ele>225.5</ele>
        <time>2014-05-31T13:01:31Z</time>
      </trkpt>
      <trkpt lat="44.40581" lon="4.12151">
        <ele>225.5</ele>
        <time>2014-05-31T13:01:33Z</time>
      </trkpt>
      <trkpt lat="44.40578" lon="4.12167">
        <ele>225.5</ele>
        <time>2014-05-31T13:01:34Z</time>
      </trkpt>
      <trkpt lat="44.40578" lon="4.12194">
        <ele>223.5</ele>
        <time>2014-05-31T13:01:35Z</time>
      </trkpt>
      <trkpt lat="44.40577" lon="4.12222">
        <ele>223</ele>
        <time>2014-05-31T13:01:37Z</time>
      </trkpt>
      <trkpt lat="44.40585" lon="4.12229">
        <ele>222</ele>
        <time>2014-05-31T13:01:39Z</time>
      </trkpt>
      <trkpt lat="44.40576" lon="4.1226">
        <ele>221.5</ele>
        <time>2014-05-31T13:01:41Z</time>
      </trkpt>
      <trkpt lat="44.40572" lon="4.12288">
        <ele>221</ele>
        <time>2014-05-31T13:01:43Z</time>
      </trkpt>
      <trkpt lat="44.4057" lon="4.12316">
        <ele>220.5</ele>
        <time>2014-05-31T13:01:44Z</time>
      </trkpt>
      <trkpt lat="44.40569" lon="4.12342">
        <ele>220.5</ele>
        <time>2014-05-31T13:01:47Z</time>
      </trkpt>
      <trkpt lat="44.40554" lon="4.12364">
        <ele>221</ele>
        <time>2014-05-31T13:01:48Z</time>
      </trkpt>
      <trkpt lat="44.40546" lon="4.12406">
        <ele>220.5</ele>
        <time>2014-05-31T13:01:52Z</time>
      </trkpt>
      <trkpt lat="44.40542" lon="4.12433">
        <ele>220</ele>
        <time>2014-05-31T13:01:53Z</time>
      </trkpt>
      <trkpt lat="44.40539" lon="4.12447">
        <ele>220</ele>
        <time>2014-05-31T13:01:54Z</time>
      </trkpt>
      <trkpt lat="44.40531" lon="4.12472">
        <ele>217</ele>
        <time>2014-05-31T13:01:55Z</time>
      </trkpt>
      <trkpt lat="44.40527" lon="4.12486">
        <ele>215.5</ele>
        <time>2014-05-31T13:01:56Z</time>
      </trkpt>
      <trkpt lat="44.40526" lon="4.125">
        <ele>215.5</ele>
        <time>2014-05-31T13:01:58Z</time>
      </trkpt>
      <trkpt lat="44.40529" lon="4.12529">
        <ele>215</ele>
        <time>2014-05-31T13:02:00Z</time>
      </trkpt>
      <trkpt lat="44.40534" lon="4.12555">
        <ele>214</ele>
        <time>2014-05-31T13:02:01Z</time>
      </trkpt>
      <trkpt lat="44.40535" lon="4.12582">
        <ele>211.5</ele>
        <time>2014-05-31T13:02:03Z</time>
      </trkpt>
      <trkpt lat="44.40537" lon="4.12608">
        <ele>209.5</ele>
        <time>2014-05-31T13:02:07Z</time>
      </trkpt>
      <trkpt lat="44.40551" lon="4.12655">
        <ele>205.5</ele>
        <time>2014-05-31T13:02:11Z</time>
      </trkpt>
      <trkpt lat="44.40555" lon="4.12679">
        <ele>203</ele>
        <time>2014-05-31T13:02:12Z</time>
      </trkpt>
      <trkpt lat="44.40558" lon="4.12706">
        <ele>202</ele>
        <time>2014-05-31T13:02:14Z</time>
      </trkpt>
      <trkpt lat="44.40561" lon="4.12732">
        <ele>201</ele>
        <time>2014-05-31T13:02:15Z</time>
      </trkpt>
      <trkpt lat="44.40561" lon="4.12758">
        <ele>200</ele>
        <time>2014-05-31T13:02:19Z</time>
      </trkpt>
      <trkpt lat="44.4056" lon="4.12785">
        <ele>198.5</ele>
        <time>2014-05-31T13:02:20Z</time>
      </trkpt>
      <trkpt lat="44.40558" lon="4.1281">
        <ele>197</ele>
        <time>2014-05-31T13:02:21Z</time>
      </trkpt>
      <trkpt lat="44.40556" lon="4.12834">
        <ele>196</ele>
        <time>2014-05-31T13:02:24Z</time>
      </trkpt>
      <trkpt lat="44.40553" lon="4.12858">
        <ele>195.5</ele>
        <time>2014-05-31T13:02:26Z</time>
      </trkpt>
      <trkpt lat="44.40549" lon="4.12881">
        <ele>195</ele>
        <time>2014-05-31T13:02:27Z</time>
      </trkpt>
      <trkpt lat="44.40545" lon="4.12903">
        <ele>194.5</ele>
        <time>2014-05-31T13:02:30Z</time>
      </trkpt>
      <trkpt lat="44.40541" lon="4.12924">
        <ele>194.5</ele>
        <time>2014-05-31T13:02:33Z</time>
      </trkpt>
      <trkpt lat="44.40537" lon="4.1294">
        <ele>194</ele>
        <time>2014-05-31T13:02:34Z</time>
      </trkpt>
      <trkpt lat="44.40532" lon="4.12959">
        <ele>194</ele>
        <time>2014-05-31T13:02:38Z</time>
      </trkpt>
      <trkpt lat="44.40529" lon="4.12974">
        <ele>194</ele>
        <time>2014-05-31T13:02:42Z</time>
      </trkpt>
      <trkpt lat="44.40526" lon="4.1299">
        <ele>193.9</ele>
        <time>2014-05-31T13:02:46Z</time>
      </trkpt>
      <trkpt lat="44.40527" lon="4.13006">
        <ele>193</ele>
        <time>2014-05-31T13:02:51Z</time>
      </trkpt>
      <trkpt lat="44.40524" lon="4.13021">
        <ele>191.1</ele>
        <time>2014-05-31T13:02:55Z</time>
      </trkpt>
      <trkpt lat="44.40521" lon="4.13037">
        <ele>189.9</ele>
        <time>2014-05-31T13:03:00Z</time>
      </trkpt>
      <trkpt lat="44.40517" lon="4.13051">
        <ele>187.6</ele>
        <time>2014-05-31T13:03:05Z</time>
      </trkpt>
      <trkpt lat="44.40513" lon="4.13065">
        <ele>186.8</ele>
        <time>2014-05-31T13:03:10Z</time>
      </trkpt>
      <trkpt lat="44.40509" lon="4.13081">
        <ele>186.2</ele>
        <time>2014-05-31T13:03:15Z</time>
      </trkpt>
      <trkpt lat="44.40505" lon="4.13096">
        <ele>185.9</ele>
        <time>2014-05-31T13:03:19Z</time>
      </trkpt>
      <trkpt lat="44.40505" lon="4.13107">
        <ele>186</ele>
        <time>2014-05-31T13:03:26Z</time>
      </trkpt>
      <trkpt lat="44.40529" lon="4.13104">
        <ele>187.9</ele>
        <time>2014-05-31T13:03:36Z</time>
      </trkpt>
      <trkpt lat="44.40531" lon="4.13105">
        <ele>184.5</ele>
        <time>2014-05-31T13:03:43Z</time>
      </trkpt>
      <trkpt lat="44.40546" lon="4.13086">
        <ele>230.2</ele>
        <time>2014-05-31T13:15:17Z</time>
      </trkpt>
      <trkpt lat="44.40536" lon="4.13103">
        <ele>205.1</ele>
        <time>2014-05-31T13:24:25Z</time>
      </trkpt>
      <trkpt lat="44.40533" lon="4.1311">
        <ele>194.1</ele>
        <time>2014-05-31T13:24:58Z</time>
      </trkpt>
      <trkpt lat="44.40553" lon="4.13082">
        <ele>185.9</ele>
        <time>2014-05-31T13:25:50Z</time>
      </trkpt>
      <trkpt lat="44.4055" lon="4.13067">
        <ele>181.7</ele>
        <time>2014-05-31T13:25:58Z</time>
      </trkpt>
      <trkpt lat="44.40549" lon="4.1306">
        <ele>179.6</ele>
        <time>2014-05-31T13:26:11Z</time>
      </trkpt>
      <trkpt lat="44.40561" lon="4.1308">
        <ele>178</ele>
        <time>2014-05-31T13:26:24Z</time>
      </trkpt>
      <trkpt lat="44.40576" lon="4.13078">
        <ele>178.4</ele>
        <time>2014-05-31T13:26:34Z</time>
      </trkpt>
      <trkpt lat="44.40589" lon="4.13075">
        <ele>179.2</ele>
        <time>2014-05-31T13:26:44Z</time>
      </trkpt>
      <trkpt lat="44.40599" lon="4.13058">
        <ele>178.6</ele>
        <time>2014-05-31T13:26:54Z</time>
      </trkpt>
      <trkpt lat="44.40608" lon="4.13048">
        <ele>178.7</ele>
        <time>2014-05-31T13:27:06Z</time>
      </trkpt>
      <trkpt lat="44.40617" lon="4.13034">
        <ele>178.5</ele>
        <time>2014-05-31T13:27:22Z</time>
      </trkpt>
      <trkpt lat="44.40618" lon="4.1302">
        <ele>178.9</ele>
        <time>2014-05-31T13:27:37Z</time>
      </trkpt>
      <trkpt lat="44.40621" lon="4.13007">
        <ele>179.4</ele>
        <time>2014-05-31T13:27:50Z</time>
      </trkpt>
      <trkpt lat="44.40633" lon="4.12997">
        <ele>180</ele>
        <time>2014-05-31T13:28:04Z</time>
      </trkpt>
      <trkpt lat="44.40649" lon="4.12995">
        <ele>182.6</ele>
        <time>2014-05-31T13:28:18Z</time>
      </trkpt>
      <trkpt lat="44.40657" lon="4.12983">
        <ele>183.4</ele>
        <time>2014-05-31T13:28:31Z</time>
      </trkpt>
      <trkpt lat="44.40662" lon="4.12969">
        <ele>184.7</ele>
        <time>2014-05-31T13:28:42Z</time>
      </trkpt>
      <trkpt lat="44.40674" lon="4.12967">
        <ele>186.5</ele>
        <time>2014-05-31T13:28:52Z</time>
      </trkpt>
      <trkpt lat="44.40681" lon="4.1297">
        <ele>187.8</ele>
        <time>2014-05-31T13:29:02Z</time>
      </trkpt>
      <trkpt lat="44.40673" lon="4.12963">
        <ele>189.5</ele>
        <time>2014-05-31T13:30:27Z</time>
      </trkpt>
    </trkseg>
  </trk>
</gpx>